[[{"header":{"parameterUnit":"m.s-1","parameterCategory":1,"la1":30.6,"la2":28.766,"lo1":-90.7593,"lo2":-88.6598,"dy":0.0162,"dx":0.0183,"nx":116,"ny":114,"refTime":"2023-06-30T00:00:00:Z","depth":0,"parameterNumber":2,"parameterNumberName":"U-component_of_WINDS"},"data":[0.0,0.0,0.0,0.0,0.0,0.0,0.0,0.0,0.0,0.0,0.0,0.0,0.0,0.0,0.0,0.0,0.0,0.0,0.0,0.0,0.0,0.0,0.0,0.0,0.0,0.0,0.0,0.0,0.0,0.0,0.0,0.0,0.0,0.0,0.0,0.0,0.0,0.0,0.0,0.0,0.0,0.0,0.0,0.0,0.0,0.0,0.0,0.0,0.0,0.0,0.0,0.0,0.0,0.0,0.0,0.0,0.0,0.0,0.0,0.0,0.0,0.0,0.0,0.0,0.0,0.0,0.0,0.0,0.0,0.0,0.0,0.0,0.0,0.0,0.0,0.0,0.0,0.0,0.0,0.0,0.0,0.0,0.0,0.0,0.0,0.0,0.0,0.0,0.0,0.0,0.0,0.0,0.0,0.0,0.0,0.0,0.0,0.0,0.0,0.0,0.0,0.0,0.0,0.0,0.0,0.0,0.0,0.0,0.0,0.0,0.0,0.0,0.0,0.0,0.0,0.0,0.0,0.0,0.0,0.0,0.0,0.0,0.0,0.0,0.0,0.0,0.0,0.0,0.0,0.0,0.0,0.0,0.0,0.0,0.0,0.0,0.0,0.0,0.0,0.0,0.0,0.0,0.0,0.0,0.0,0.0,0.0,0.0,0.0,0.0,0.0,0.0,0.0,0.0,0.0,0.0,0.0,0.0,0.0,0.0,0.0,0.0,0.0,0.0,0.0,0.0,0.0,0.0,0.0,0.0,0.0,0.0,0.0,0.0,0.0,0.0,0.0,0.0,0.0,0.0,0.0,0.0,0.0,0.0,0.0,0.0,0.0,0.0,0.0,0.0,0.0,0.0,0.0,0.0,0.0,0.0,0.0,0.0,0.0,0.0,0.0,0.0,0.0,0.0,0.0,0.0,0.0,0.0,0.0,0.0,0.0,0.0,0.0,0.0,0.0,0.0,0.0,0.0,0.0,0.0,0.0,0.0,0.0,0.0,0.0,0.0,0.0,0.0,0.0,0.0,0.0,0.0,0.0,0.0,0.0,0.0,0.0,0.0,0.0,0.0,0.0,0.0,0.0,0.0,0.0,0.0,0.0,0.0,0.0,0.0,0.0,0.0,0.0,0.0,0.0,0.0,0.0,0.0,0.0,0.0,0.0,0.0,0.0,0.0,0.0,0.0,0.0,0.0,0.0,0.0,0.0,0.0,0.0,0.0,0.0,0.0,0.0,0.0,0.0,0.0,0.0,0.0,0.0,0.0,0.0,0.0,0.0,0.0,0.0,0.0,0.0,0.0,0.0,0.0,0.0,0.0,0.0,0.0,0.0,0.0,0.0,0.0,0.0,0.0,0.0,0.0,0.0,0.0,0.0,0.0,0.0,0.0,0.0,0.0,0.0,0.0,0.0,0.0,0.0,0.0,0.0,0.0,0.0,0.0,0.0,0.0,0.0,0.0,0.0,0.0,0.0,0.0,0.0,0.0,0.0,0.0,0.0,0.0,0.0,0.0,0.0,0.0,0.0,0.0,0.0,0.0,0.0,0.0,0.0,0.0,0.0,0.0,0.0,0.0,0.0,0.0,0.0,0.0,0.0,0.0,0.0,0.0,0.0,0.0,0.0,0.0,0.0,0.0,0.0,0.0,0.0,0.0,0.0,0.0,0.0,0.0,0.0,0.0,0.0,0.0,0.0,0.0,0.0,0.0,0.0,0.0,0.0,0.0,0.0,0.0,0.0,0.0,0.0,0.0,0.0,0.0,0.0,0.0,0.0,0.0,0.0,0.0,0.0,0.0,0.0,0.0,0.0,0.0,0.0,0.0,0.0,0.0,0.0,0.0,0.0,0.0,0.0,0.0,0.0,0.0,0.0,0.0,0.0,0.0,0.0,0.0,0.0,0.0,0.0,0.0,0.0,0.0,0.0,0.0,0.0,0.0,0.0,0.0,0.0,0.0,0.0,0.0,0.0,0.0,0.0,0.0,0.0,0.0,0.0,0.0,0.0,0.0,0.0,0.0,0.0,0.0,0.0,0.0,0.0,0.0,0.0,0.0,0.0,0.0,0.0,0.0,0.0,0.0,0.0,0.0,0.0,0.0,0.0,0.0,0.0,0.0,0.0,0.0,0.0,0.0,0.0,0.0,0.0,0.0,0.0,0.0,0.0,0.0,0.0,0.0,0.0,0.0,0.0,0.0,0.0,0.0,0.0,0.0,0.0,0.0,0.0,0.0,0.0,0.0,0.0,0.0,0.0,0.0,0.0,0.0,0.0,0.0,0.0,0.0,0.0,0.0,0.0,0.0,0.0,0.0,0.0,0.0,0.0,0.0,0.0,0.0,0.0,0.0,0.0,0.0,0.0,0.0,0.0,0.0,0.0,0.0,0.0,0.0,0.0,0.0,0.0,0.0,0.0,0.0,0.0,0.0,0.0,0.0,0.0,0.0,0.0,0.0,0.0,0.0,0.0,0.0,0.0,0.0,0.0,0.0,0.0,0.0,0.0,0.0,0.0,0.0,0.0,0.0,0.0,0.0,0.0,0.0,0.0,0.0,0.0,0.0,0.0,0.0,0.0,0.0,0.0,0.0,0.0,0.0,0.0,0.0,0.0,0.0,0.0,0.0,0.0,0.0,0.0,0.0,0.0,0.0,0.0,0.0,0.0,0.0,0.0,0.0,0.0,0.0,0.0,0.0,0.0,0.0,0.0,0.0,0.0,0.0,0.0,0.0,0.0,0.0,0.0,0.0,0.0,0.0,0.0,0.0,0.0,0.0,0.0,0.0,0.0,0.0,0.0,0.0,0.0,0.0,0.0,0.0,0.0,0.0,0.0,0.0,0.0,0.0,0.0,0.0,0.0,0.0,0.0,0.0,0.0,0.0,0.0,0.0,0.0,0.0,0.0,0.0,0.0,0.0,0.0,0.0,0.0,0.0,0.0,0.0,0.0,0.0,0.0,0.0,0.0,0.0,0.0,0.0,0.0,0.0,0.0,0.0,0.0,0.0,0.0,0.0,0.0,0.0,0.0,0.0,0.0,0.0,0.0,0.0,0.0,0.0,0.0,0.0,0.0,0.0,0.0,0.0,0.0,0.0,0.0,0.0,0.0,0.0,0.0,0.0,0.0,0.0,0.0,0.0,0.0,0.0,0.0,0.0,0.0,0.0,0.0,0.0,0.0,0.0,0.0,0.0,0.0,0.0,0.0,0.0,0.0,0.0,0.0,0.0,0.0,0.0,0.0,0.0,0.0,0.0,0.0,0.0,0.0,0.0,0.0,0.0,0.0,0.0,0.0,0.0,0.0,0.0,0.0,0.0,0.0,0.0,0.0,0.0,0.0,0.0,0.0,0.0,0.0,0.0,0.0,0.0,0.0,0.0,0.0,0.0,0.0,0.0,0.0,0.0,0.0,0.0,0.0,0.0,0.0,0.0,0.0,0.0,0.0,0.0,0.0,0.0,0.0,0.0,0.0,0.0,0.0,0.0,0.0,0.0,0.0,0.0,0.0,0.0,0.0,0.0,0.0,0.0,0.0,0.0,0.0,0.0,0.0,0.0,0.0,0.0,0.0,0.0,0.0,0.0,0.0,0.0,0.0,0.0,0.0,0.0,0.0,0.0,0.0,0.0,0.0,0.0,0.0,0.0,0.0,0.0,0.0,0.0,0.0,0.0,0.0,0.0,0.0,0.0,0.0,0.0,0.0,0.0,0.0,0.0,0.0,0.0,0.0,0.0,0.0,0.0,0.0,0.0,0.0,0.0,0.0,0.0,0.0,0.0,0.0,0.0,0.0,0.0,0.0,0.0,0.0,0.0,0.0,0.0,0.0,0.0,0.0,0.0,0.0,0.0,0.0,0.0,0.0,0.0,0.0,0.0,0.0,0.0,0.0,0.0,0.0,0.0,0.0,0.0,0.0,0.0,0.0,0.0,0.0,0.0,0.0,0.0,0.0,0.0,0.0,0.0,0.0,0.0,0.0,0.0,0.0,0.0,0.0,0.0,0.0,0.0,0.0,0.0,0.0,0.0,0.0,0.0,0.0,0.0,0.0,0.0,0.0,0.0,0.0,0.0,0.0,0.0,0.0,0.0,0.0,0.0,0.0,0.0,0.0,0.0,0.0,0.0,0.0,0.0,0.0,0.0,0.0,0.0,0.0,0.0,0.0,0.0,0.0,0.0,0.0,0.0,0.0,0.0,0.0,0.0,0.0,0.0,0.0,0.0,0.0,0.0,0.0,0.0,0.0,0.0,0.0,0.0,0.0,0.0,0.0,0.0,0.0,0.0,0.0,0.0,0.0,0.0,0.0,0.0,0.0,0.0,0.0,0.0,0.0,0.0,0.0,0.0,0.0,0.0,0.0,0.0,0.0,0.0,0.0,0.0,0.0,0.0,0.0,0.0,0.0,0.0,0.0,0.0,0.0,0.0,0.0,0.0,0.0,0.0,0.0,0.0,0.0,0.0,0.0,0.0,0.0,0.0,0.0,0.0,0.0,0.0,0.0,0.0,0.0,0.0,0.0,0.0,0.0,0.0,0.0,0.0,0.0,0.0,0.0,0.0,0.0,0.0,0.0,0.0,0.0,0.0,0.0,0.0,0.0,0.0,0.0,0.0,0.0,0.0,0.0,0.0,0.0,0.0,0.0,0.0,0.0,0.0,0.0,0.0,0.0,0.0,0.0,0.0,0.0,0.0,0.0,0.0,0.0,0.0,0.0,0.0,0.0,0.0,0.0,0.0,0.0,0.0,0.0,0.0,0.0,0.0,0.0,0.0,0.0,0.0,0.0,0.0,0.0,0.0,0.0,0.0,0.0,0.0,0.0,0.0,0.0,0.0,0.0,0.0,0.0,0.0,0.0,0.0,0.0,0.0,0.0,0.0,0.0,0.0,0.0,0.0,0.0,0.0,0.0,0.0,0.0,0.0,0.0,0.0,0.0,0.0,0.0,0.0,0.0,0.0,0.0,0.0,0.0,0.0,0.0,0.0,0.0,0.0,0.0,0.0,0.0,0.0,0.0,0.0,0.0,0.0,0.0,0.0,0.0,0.0,0.0,0.0,0.0,0.0,0.0,0.0,0.0,0.0,0.0,0.0,0.0,0.0,0.0,0.0,0.0,0.0,0.0,0.0,0.0,0.0,0.0,0.0,0.0,0.0,0.0,0.0,0.0,0.0,0.0,0.0,0.0,0.0,0.0,0.0,0.0,0.0,0.0,0.0,0.0,0.0,0.0,0.0,0.0,0.0,0.0,0.0,0.0,0.0,0.0,0.0,0.0,0.0,0.0,0.0,0.0,0.0,0.0,0.0,0.0,0.0,0.0,0.0,0.0,0.0,0.0,0.0,0.0,0.0,0.0,0.0,0.0,0.0,0.0,0.0,0.0,0.0,0.0,0.0,0.0,0.0,0.0,0.0,0.0,0.0,0.0,0.0,0.0,0.0,0.0,0.0,0.0,0.0,0.0,0.0,0.0,0.0,0.0,0.0,0.0,0.0,0.0,0.0,0.0,0.0,0.0,0.0,0.0,0.0,0.0,0.0,0.0,0.0,0.0,0.0,0.0,0.0,0.0,0.0,0.0,0.0,0.0,0.0,0.0,0.0,0.0,0.0,0.0,0.0,0.0,0.0,0.0,0.0,0.0,0.0,0.0,0.0,0.0,0.0,0.0,0.0,0.0,0.0,0.0,0.0,0.0,0.0,0.0,0.0,0.0,0.0,0.0,0.0,0.0,0.0,0.0,0.0,0.0,0.0,0.0,0.0,0.0,0.0,0.0,0.0,0.0,0.0,0.0,0.0,0.0,0.0,0.0,0.0,0.0,0.0,0.0,0.0,0.0,0.0,0.0,0.0,0.0,0.0,0.0,0.0,0.0,0.0,0.0,0.0,0.0,0.0,0.0,0.0,0.0,0.0,0.0,0.0,0.0,0.0,0.0,0.0,0.0,0.0,0.0,0.0,0.0,0.0,0.0,0.0,0.0,0.0,0.0,0.0,0.0,0.0,0.0,0.0,0.0,0.0,0.0,0.0,0.0,0.0,0.0,0.0,0.0,0.0,0.0,0.0,0.0,0.0,0.0,0.0,0.0,0.0,0.0,0.0,0.0,0.0,0.0,0.0,0.0,0.0,0.0,0.0,-4.2492,-4.0998,0.0,0.0,0.0,0.0,0.0,0.0,0.0,0.0,0.0,0.0,0.0,0.0,0.0,0.0,0.0,0.0,0.0,0.0,0.0,0.0,0.0,0.0,0.0,0.0,0.0,0.0,0.0,0.0,0.0,0.0,0.0,0.0,0.0,0.0,0.0,0.0,0.0,0.0,0.0,-2.7494,-2.8382,-2.82,-2.842,-2.892,0.0,0.0,0.0,0.0,0.0,0.0,0.0,0.0,0.0,0.0,0.0,0.0,0.0,0.0,0.0,0.0,0.0,0.0,0.0,0.0,0.0,0.0,0.0,0.0,0.0,0.0,0.0,0.0,0.0,0.0,0.0,0.0,0.0,0.0,0.0,0.0,0.0,0.0,0.0,0.0,0.0,0.0,0.0,0.0,0.0,0.0,0.0,0.0,0.0,0.0,0.0,0.0,0.0,0.0,0.0,0.0,0.0,0.0,0.0,0.0,0.0,0.0,0.0,0.0,0.0,0.0,0.0,0.0,0.0,0.0,-4.3972,-4.2727,0.0,0.0,0.0,0.0,0.0,0.0,0.0,0.0,0.0,0.0,0.0,0.0,0.0,0.0,0.0,0.0,0.0,0.0,0.0,0.0,0.0,0.0,0.0,0.0,0.0,0.0,0.0,0.0,0.0,0.0,0.0,0.0,0.0,0.0,0.0,0.0,0.0,0.0,-2.8658,-2.9236,-3.0439,-3.0214,-3.002,-2.9886,-2.9538,0.0,0.0,0.0,0.0,0.0,0.0,0.0,0.0,0.0,0.0,0.0,0.0,0.0,0.0,0.0,0.0,0.0,0.0,0.0,0.0,0.0,0.0,0.0,0.0,0.0,0.0,0.0,0.0,0.0,0.0,0.0,0.0,0.0,0.0,0.0,0.0,0.0,0.0,0.0,0.0,0.0,0.0,0.0,0.0,0.0,0.0,0.0,0.0,0.0,0.0,0.0,0.0,0.0,0.0,0.0,0.0,0.0,0.0,0.0,0.0,0.0,0.0,0.0,-4.771,-4.765,-4.7636,-4.7339,-4.7186,-4.7034,-4.5334,-4.445,-4.4081,-4.2408,0.0,0.0,0.0,0.0,0.0,0.0,0.0,0.0,0.0,0.0,0.0,0.0,0.0,0.0,0.0,0.0,0.0,0.0,0.0,0.0,0.0,0.0,0.0,0.0,0.0,0.0,0.0,0.0,0.0,0.0,0.0,0.0,0.0,0.0,0.0,0.0,-3.0066,-3.068,-3.1408,-3.1105,-3.1133,-3.1437,-3.0509,-3.0315,-3.0656,0.0,0.0,0.0,0.0,0.0,0.0,0.0,0.0,0.0,0.0,0.0,0.0,0.0,0.0,0.0,0.0,0.0,0.0,0.0,0.0,0.0,0.0,0.0,0.0,0.0,0.0,0.0,0.0,0.0,0.0,0.0,0.0,0.0,0.0,0.0,0.0,0.0,0.0,0.0,0.0,0.0,-3.989,-4.0137,0.0,0.0,0.0,0.0,0.0,0.0,0.0,0.0,0.0,0.0,0.0,0.0,0.0,-4.7463,-4.7463,-4.8303,-4.8737,-4.8725,-4.9153,-4.9372,-4.9372,-4.9037,-4.8877,-4.8789,-4.7505,0.0,-4.58,-4.4669,0.0,0.0,0.0,0.0,0.0,0.0,0.0,0.0,0.0,0.0,0.0,0.0,0.0,0.0,0.0,0.0,0.0,0.0,0.0,0.0,0.0,0.0,0.0,0.0,0.0,0.0,0.0,0.0,0.0,0.0,0.0,0.0,0.0,0.0,0.0,0.0,-3.182,-3.2171,-3.2275,-3.1928,-3.1742,-3.1654,-3.0953,-3.0732,-3.0797,-3.0137,0.0,0.0,0.0,0.0,0.0,0.0,0.0,0.0,0.0,0.0,0.0,0.0,0.0,0.0,0.0,0.0,0.0,0.0,0.0,0.0,0.0,0.0,0.0,0.0,0.0,0.0,0.0,0.0,0.0,0.0,0.0,0.0,0.0,0.0,0.0,0.0,0.0,0.0,0.0,-4.0142,-4.1374,-4.1899,-4.2635,-4.3104,0.0,0.0,0.0,0.0,0.0,0.0,0.0,0.0,0.0,-4.6866,-4.7952,-4.8517,-4.8468,-4.9212,-4.955,-4.9512,-4.965,-4.9678,-4.9619,-4.9343,-4.9129,-4.8993,-4.8343,-4.7813,-4.7279,-4.581,-4.5093,-4.4847,0.0,0.0,0.0,0.0,-4.3864,-4.3694,0.0,0.0,0.0,0.0,0.0,0.0,0.0,0.0,0.0,0.0,0.0,0.0,0.0,0.0,0.0,-2.5993,0.0,0.0,0.0,0.0,0.0,0.0,0.0,0.0,0.0,0.0,0.0,-3.267,-3.289,-3.2819,-3.2487,-3.1927,-3.1429,-3.0941,-3.054,-3.0446,-3.0572,-3.021,-2.9496,0.0,0.0,0.0,0.0,0.0,0.0,0.0,0.0,0.0,0.0,0.0,0.0,0.0,0.0,0.0,0.0,0.0,0.0,0.0,0.0,0.0,0.0,0.0,0.0,0.0,0.0,0.0,0.0,0.0,0.0,0.0,0.0,0.0,0.0,0.0,0.0,0.0,0.0,-4.1769,-4.2681,-4.3387,-4.3638,-4.3772,0.0,0.0,0.0,0.0,0.0,0.0,-4.7182,-4.7982,-4.8375,-4.8314,-4.9048,-4.9389,-4.931,-4.9828,-5.0057,-4.9978,-4.9792,-4.9648,-4.9544,-4.9311,-4.9096,-4.8891,-4.8696,-4.8476,-4.8157,-4.6556,-4.5797,-4.5578,-4.5155,-4.4835,-4.4599,-4.4698,-4.4544,-4.4349,0.0,0.0,0.0,0.0,0.0,0.0,0.0,0.0,0.0,0.0,0.0,0.0,0.0,0.0,-2.3694,-2.5314,-2.6221,-2.7083,0.0,0.0,0.0,0.0,0.0,0.0,0.0,0.0,0.0,-3.363,-3.2643,-3.199,-3.1649,-3.0539,-2.9746,-2.9205,-2.8803,-2.9244,-3.0293,-2.9886,-2.947,-2.8963,0.0,0.0,0.0,0.0,0.0,0.0,0.0,0.0,0.0,0.0,0.0,0.0,0.0,0.0,0.0,0.0,0.0,0.0,0.0,0.0,0.0,0.0,0.0,0.0,0.0,0.0,0.0,0.0,0.0,0.0,0.0,0.0,0.0,0.0,0.0,0.0,0.0,0.0,0.0,-4.4427,-4.5102,0.0,0.0,0.0,0.0,-4.6763,-4.7508,-4.799,-4.8048,-4.8798,-4.9209,-4.9139,-4.9918,-5.0279,-5.0142,-5.0114,-5.0044,-4.9893,-4.9778,-4.9585,-4.9415,-4.926,-4.9096,-4.8891,-4.8696,-4.8439,-4.8132,-4.7138,-4.6613,-4.6339,-4.5371,-4.4835,-4.4652,-4.5176,-4.5188,-4.5032,0.0,0.0,0.0,0.0,0.0,0.0,0.0,0.0,0.0,0.0,0.0,0.0,0.0,-2.2232,-2.3591,-2.4727,-2.5588,-2.6423,-2.7307,0.0,0.0,0.0,0.0,0.0,0.0,0.0,-3.2958,-3.307,-3.1938,-3.1189,-3.0815,-3.0094,-2.9472,-2.8887,-2.8405,-2.8212,-2.8239,-2.8099,-2.7987,-2.7891,-2.738,-2.6972,0.0,0.0,0.0,0.0,0.0,0.0,0.0,0.0,0.0,0.0,0.0,0.0,0.0,0.0,0.0,0.0,0.0,0.0,0.0,0.0,0.0,0.0,0.0,0.0,0.0,0.0,0.0,0.0,0.0,0.0,0.0,0.0,0.0,0.0,0.0,0.0,0.0,-4.5206,-4.6016,0.0,-4.6537,-4.7293,-4.7788,-4.7743,-4.8526,-4.898,-4.8933,-4.974,-5.0152,-5.004,-5.0306,-5.0359,-5.0145,-5.012,-5.0005,-4.983,-4.975,-4.957,-4.9321,-4.9144,-4.8663,-4.7919,-4.7721,-4.7204,-4.65,-4.6014,-4.6302,-4.6956,-4.6488,-4.6119,-4.5886,-4.5917,-4.5807,-4.5568,0.0,0.0,0.0,0.0,0.0,0.0,0.0,0.0,0.0,0.0,0.0,-2.0225,-2.0565,-2.1668,-2.286,-2.4023,-2.4849,-2.5712,-2.6595,0.0,0.0,0.0,-2.9992,0.0,0.0,-3.2713,-3.2511,-3.2305,-3.0868,-2.9948,-2.9529,-2.8516,-2.7707,-2.7103,-2.6559,-2.5981,-2.5456,-2.5471,-2.5956,-2.6717,-2.6747,-2.6489,-2.6134,0.0,0.0,0.0,0.0,0.0,0.0,0.0,0.0,0.0,0.0,0.0,0.0,0.0,0.0,0.0,0.0,0.0,0.0,0.0,0.0,0.0,0.0,0.0,0.0,0.0,0.0,0.0,0.0,0.0,0.0,0.0,0.0,0.0,0.0,-4.4791,-4.5165,-4.5691,-4.629,-4.6611,-4.6596,-4.7623,-4.8282,-4.8238,-4.9274,-4.9893,-4.9846,-5.0385,-5.0643,-5.0511,-5.05,-5.0237,-4.9708,-4.9708,-4.9441,-4.8914,-4.8843,-4.8683,-4.8418,-4.824,-4.7725,-4.698,-4.6783,-4.6267,-4.5564,-4.533,-4.5701,-4.6398,-4.6284,-4.6036,-4.5741,-4.551,-4.531,-4.4985,0.0,0.0,0.0,0.0,0.0,0.0,0.0,0.0,0.0,0.0,-1.9297,-1.967,-2.0663,-2.0797,-2.1477,-2.3182,-2.4078,-2.4949,-2.5861,-2.743,0.0,0.0,0.0,0.0,-3.2047,-3.191,-3.1693,-3.1434,-2.941,-2.8214,-2.777,-2.5721,-2.4421,-2.3753,-2.3227,-2.2671,-2.2183,-2.2232,-2.3488,-2.5478,-2.5923,-2.5896,-2.56,0.0,0.0,0.0,0.0,0.0,0.0,0.0,0.0,0.0,0.0,0.0,0.0,0.0,0.0,0.0,0.0,0.0,0.0,0.0,0.0,0.0,0.0,0.0,0.0,0.0,0.0,0.0,0.0,0.0,0.0,0.0,0.0,0.0,-4.4524,-4.5363,-4.5899,-4.5906,-4.5919,-4.5925,-4.5845,-4.7337,-4.83,-4.8292,-4.9734,-5.0624,-5.0624,-5.0616,-5.0567,-5.0434,-5.0423,-4.9912,-4.8871,-4.8871,-4.8308,-4.7197,-4.7127,-4.6955,-4.6698,-4.6557,-4.6376,-4.6132,-4.5937,-4.5699,-4.5393,-4.512,-4.4872,-4.4632,-4.4664,-4.4445,-4.4089,-4.395,-4.3668,-4.3279,0.0,0.0,0.0,0.0,0.0,0.0,0.0,0.0,0.0,0.0,-1.9387,-1.9564,-1.9891,-2.0494,-2.1092,-2.1608,-2.2977,-2.3915,-2.417,0.0,0.0,0.0,0.0,0.0,-3.1289,-3.055,-2.9996,-2.9681,-2.7677,-2.6438,-2.5929,-2.4868,-2.4014,-2.3346,-2.2744,-2.2167,-2.1595,-2.1286,-2.1556,-2.2308,-2.3483,-2.4379,-2.5019,0.0,0.0,0.0,0.0,0.0,0.0,0.0,0.0,0.0,0.0,0.0,0.0,0.0,0.0,0.0,0.0,0.0,0.0,0.0,0.0,0.0,0.0,0.0,0.0,0.0,0.0,0.0,0.0,0.0,0.0,0.0,-4.3397,-4.3898,-4.5337,-4.575,-4.5905,-4.5899,-4.6455,-4.6842,-4.6809,-4.7761,-4.8342,-4.83,-4.8707,-4.8945,-4.889,-4.8845,-4.8769,-4.8689,-4.8679,-4.8458,-4.7957,-4.7957,-4.7688,-4.7197,-4.7127,-4.6955,-4.6679,-4.6473,-4.5939,-4.516,-4.4912,-4.4362,-4.3609,-4.3377,-4.3156,-4.3054,-4.4041,-4.4221,-4.3927,-4.3715,-4.2964,-4.2037,0.0,0.0,0.0,0.0,0.0,0.0,0.0,0.0,0.0,0.0,-1.9457,-1.9548,-1.9631,-2.0089,-2.0566,-2.0957,-2.1912,-2.2799,-2.3498,0.0,0.0,0.0,0.0,-2.9487,-2.9445,-2.8774,-2.8248,-2.7945,-2.5909,-2.4644,-2.4114,-2.2832,-2.2013,-2.1589,-2.0983,-2.0528,-2.021,-1.9976,-1.995,-2.0183,-2.1165,-2.2503,-2.3917,-2.4271,-2.4887,-2.5536,-2.5686,-2.617,-2.6817,-2.7218,0.0,0.0,0.0,0.0,0.0,0.0,0.0,0.0,0.0,0.0,0.0,0.0,0.0,0.0,0.0,0.0,0.0,0.0,0.0,0.0,0.0,0.0,0.0,0.0,-4.3466,-4.4064,-4.5758,-4.5964,-4.5947,-4.5929,-4.6396,-4.6681,-4.6655,-4.7402,-4.7877,-4.7801,-4.811,-4.8274,-4.8251,-4.8179,-4.8097,-4.7999,-4.7999,-4.7712,-4.7101,-4.7101,-4.6777,-4.6145,-4.6069,-4.5894,-4.5671,-4.5387,-4.4894,-4.4278,-4.4016,-4.3505,-4.2842,-4.2611,-4.2389,0.0,0.0,0.0,0.0,0.0,-4.1552,-4.0483,0.0,0.0,0.0,0.0,0.0,0.0,0.0,0.0,0.0,0.0,0.0,-1.9546,-1.968,-1.9693,-2.0,-2.0802,-2.1016,-2.1808,0.0,0.0,0.0,-2.7316,-2.7377,-2.7344,-2.729,-2.6832,-2.6475,-2.6208,-2.4114,-2.2847,-2.2337,-2.0344,-1.9344,-1.9182,-1.8648,-1.8422,-1.8424,-1.8495,-1.8683,-1.8937,-1.914,-2.0513,-2.251,-2.3351,-2.4146,-2.491,-2.5701,-2.6431,-2.7174,-2.8134,0.0,0.0,0.0,0.0,0.0,0.0,0.0,0.0,0.0,0.0,0.0,0.0,0.0,0.0,0.0,0.0,0.0,0.0,0.0,0.0,0.0,0.0,0.0,0.0,-4.3551,-4.4187,-4.5864,-4.6056,-4.6021,-4.6008,-4.6003,-4.598,-4.5919,-4.6597,-4.7022,-4.6975,-4.7627,-4.8005,-4.8004,-4.7953,0.0,0.0,0.0,-4.7233,-4.6263,-4.6149,-4.5601,-4.4561,-4.4339,-4.4149,-4.4005,-4.3669,-4.3441,-4.3304,-4.3047,-4.2759,-4.2494,-4.2243,-4.1958,-4.1676,-4.1639,-4.1389,-4.1028,-4.0582,-3.9764,-3.887,0.0,0.0,0.0,0.0,0.0,0.0,0.0,0.0,0.0,-1.9487,-1.9497,-1.9555,-1.9698,-1.9693,-1.9794,-2.0007,-2.069,-2.1834,0.0,0.0,-2.6259,-2.6367,-2.6986,-2.7255,-2.7135,-2.5597,-2.4632,-2.4312,-2.2231,-2.0923,-2.0343,-1.9372,-1.8603,-1.8026,-1.7958,-1.7701,-1.732,-1.745,-1.787,-1.8412,-1.8196,-1.9359,-2.1296,-2.2064,-2.2884,-2.3771,-2.4968,-2.5892,-2.6785,-2.7809,-2.8724,-2.9594,-3.055,-3.1275,0.0,0.0,0.0,0.0,0.0,0.0,0.0,0.0,0.0,0.0,0.0,0.0,0.0,0.0,0.0,0.0,0.0,0.0,0.0,-4.3303,-4.3583,-4.4187,-4.5864,-4.6089,-4.6075,-4.6085,-4.6026,-4.6,-4.598,-4.6087,-4.6145,-4.6119,-4.623,-4.6248,-4.6209,-4.6188,-4.6095,-4.5908,-4.5899,-4.5722,-4.535,-4.4703,-4.417,-4.3725,0.0,0.0,-4.2272,-4.1946,-4.1712,-4.1566,-4.1367,-4.1053,-4.0704,-4.0591,-4.0199,-3.9711,-4.0233,-3.9899,-3.9093,-3.8738,-3.8377,-3.8051,0.0,0.0,0.0,0.0,0.0,0.0,0.0,0.0,0.0,0.0,-2.0348,-2.0141,-2.0243,-1.9923,-1.9712,-1.9745,-2.0985,0.0,0.0,-2.4855,-2.5523,-2.5453,-2.5389,-2.5287,-2.5154,-2.3702,-2.2775,-2.245,-2.0769,-1.9652,-1.9033,-1.8024,-1.733,-1.6951,-1.6972,-1.6858,-1.6657,-1.6855,-1.7327,-1.7869,-1.7678,-1.8458,-1.9873,-2.1084,-2.2074,-2.3034,-2.4366,-2.5412,-2.6334,-2.7495,-2.8615,-2.9679,-3.0754,-3.1641,-3.2419,0.0,0.0,0.0,0.0,0.0,0.0,0.0,0.0,0.0,0.0,0.0,0.0,0.0,0.0,-4.0949,-4.0949,0.0,-4.1471,-4.2786,-4.3,-4.3448,-4.4715,-4.491,-4.5204,-4.6007,-4.6076,-4.6051,-4.6,-4.598,-4.5938,-4.59,-4.5866,-4.581,-4.5708,-4.5703,-4.5428,-4.4815,-4.4806,-4.4498,-4.3858,-4.3458,-4.3107,-4.2838,-4.2265,-4.1932,-4.1787,-4.1445,-4.1233,-4.1093,-4.0842,-4.0546,-4.0181,-3.9912,-3.9285,-3.8475,-3.8703,-3.8639,-3.8368,-3.8108,-3.7635,-3.7107,0.0,0.0,0.0,0.0,0.0,0.0,0.0,0.0,0.0,0.0,-2.1319,-2.0956,-2.1038,-2.0511,-2.0167,0.0,0.0,0.0,0.0,-2.4436,-2.4773,-2.4553,-2.3784,-2.323,-2.2935,-2.186,-2.1151,-2.0782,-1.951,-1.8576,-1.7964,-1.6763,-1.6157,-1.613,-1.6104,-1.6158,-1.625,-1.6481,-1.6925,-1.7484,-1.7314,-1.7745,-1.8666,-2.0129,-2.126,-2.2295,-2.3681,-2.48,-2.5876,-2.7176,-2.8386,-2.9575,-3.0741,-3.1752,-3.2584,-3.327,-3.3897,0.0,0.0,0.0,0.0,0.0,0.0,0.0,0.0,-4.0832,-4.0917,-4.093,-4.0964,-4.1023,-4.1022,-4.1056,-4.1381,-4.2254,-4.2407,-4.27,-4.3575,-4.369,-4.4237,-4.5679,-4.5864,-4.591,-4.6012,-4.6,-4.598,-4.5925,-4.5906,-4.5859,-4.5739,-4.5715,-4.525,-4.4249,-4.4202,-4.3694,-4.2631,-4.2449,-4.2234,-4.1957,-4.1663,-4.1445,-4.132,-4.1,-4.0772,-4.0616,-4.0284,-3.9968,-3.9621,-3.9213,-3.8459,-3.7554,-3.7162,-3.7212,-3.7513,-3.7435,-3.6878,-3.6114,0.0,0.0,0.0,0.0,0.0,0.0,0.0,0.0,0.0,0.0,0.0,0.0,0.0,0.0,0.0,0.0,0.0,0.0,-2.3521,-2.4331,-2.446,-2.3678,-2.3377,-2.2842,-2.198,-2.0852,-2.0059,-1.9672,-1.8392,-1.7476,-1.6872,-1.6122,-1.5786,-1.5835,-1.5775,-1.5858,-1.6028,-1.607,-1.6598,-1.7363,-1.6872,-1.7283,-1.8223,-1.8899,-1.9947,-2.1247,-2.2515,-2.3959,-2.5467,-2.6802,-2.8181,-2.9538,-3.079,-3.1862,-3.2797,-3.3482,-3.4537,-3.5612,-3.6041,-3.7484,-3.9115,-4.0186,-4.0539,-4.0679,0.0,-4.0931,-4.0996,-4.0993,-4.1039,-4.11,-4.1083,-4.109,-4.1386,-4.2254,-4.2405,-4.2709,-4.3585,-4.3695,-4.4038,-4.4928,-4.5033,-4.5305,-4.6022,-4.6032,-4.6,-4.5986,-4.5932,-4.588,-4.5793,-4.5727,-4.5274,-4.4327,-4.4238,-4.3714,-4.2702,-4.1918,-4.1399,-4.1127,-4.0202,-3.9739,-3.9653,-3.9314,-3.9098,-3.8933,-3.8427,-3.8008,-3.7697,-3.7469,-3.7161,-3.6733,-3.5676,-3.5202,-3.5137,-3.5515,-3.5505,-3.5221,0.0,0.0,0.0,0.0,0.0,0.0,0.0,0.0,0.0,0.0,0.0,0.0,0.0,0.0,0.0,0.0,0.0,0.0,-2.4174,-2.4546,-2.4335,-2.3416,-2.2736,-2.1933,-2.0956,-1.9813,-1.9035,-1.863,-1.777,-1.7068,-1.6448,-1.6099,-1.5764,-1.5454,-1.5795,-1.5806,-1.5633,-1.6044,-1.6492,-1.692,-1.6908,-1.7285,-1.7899,-1.813,-1.8899,-2.01,-2.1913,-2.3579,0.0,-2.6605,-2.8021,-2.9434,-3.0875,-3.2004,-3.2973,-3.3771,-3.4539,-3.5483,-3.6869,-3.863,-4.0191,-4.0603,-4.0796,-4.0888,-4.0945,-4.0972,-4.102,-4.105,-4.1076,-4.1095,-4.1108,-4.1094,-4.1215,-4.1588,-4.1645,-4.1779,-4.215,-4.2183,-4.2682,-4.404,-4.4202,-4.4718,-4.6029,-4.6095,-4.6032,-4.6005,-4.596,-4.5906,-4.5807,-4.5327,-4.4616,-4.364,-4.3045,-4.2267,-4.1246,-4.0842,-4.0536,-4.0306,-3.9756,-3.9458,-3.9391,-3.9054,-3.8474,-3.7697,-3.7334,-3.6755,-3.5988,-3.5786,-3.5577,-3.5288,-3.4544,-3.4178,-3.4062,-3.4061,-3.3918,-3.3669,0.0,0.0,0.0,0.0,0.0,0.0,0.0,0.0,0.0,0.0,0.0,0.0,0.0,0.0,0.0,0.0,0.0,-2.405,-2.4637,-2.4655,-2.4129,-2.2989,-2.2169,-2.1164,-1.9945,-1.901,-1.8341,-1.7926,-1.7526,-1.7019,-1.6412,-1.6266,-1.5983,-1.5613,-1.5984,-1.594,-1.5663,-1.6231,-1.6529,-1.6687,-1.6856,-1.716,-1.7507,-1.7573,-1.8171,-1.9221,-2.1092,-2.2889,-2.4652,-2.6174,-2.7828,-2.949,-3.1002,-3.2207,-3.3269,-3.4096,-3.4811,-3.5796,-3.7887,-3.9402,-4.0472,-4.0776,-4.0902,-4.0964,-4.1018,-4.1036,-4.1044,-4.1085,-4.1106,-4.1099,-4.1104,-4.1109,-4.1092,-4.1092,-4.1092,-4.1188,-4.1423,-4.1458,-4.2114,-4.3847,-4.4052,-4.4641,-4.6092,-4.6174,-4.6095,-4.6027,-4.6011,-4.5955,-4.5854,-4.5059,-4.4158,-4.3161,-4.2231,-4.1247,-4.0252,-4.0167,-4.0026,-3.9804,-3.9611,-3.9358,-3.9018,-3.8437,-3.7616,-3.6685,-3.6454,-3.5861,-3.5013,-3.4798,-3.4576,-3.4332,-3.3659,-3.3332,-3.3168,-3.269,-3.2562,-3.2613,0.0,0.0,0.0,0.0,0.0,0.0,0.0,0.0,0.0,0.0,0.0,0.0,0.0,0.0,-2.4444,-2.4462,-2.452,-2.4569,-2.4607,-2.4532,-2.3766,-2.2102,-2.1766,-2.077,-1.8985,-1.8601,-1.8173,-1.771,-1.7688,-1.7344,-1.6682,-1.6544,-1.651,-1.6546,-1.6292,-1.6298,-1.6466,-1.6567,-1.6695,-1.687,-1.6631,-1.6727,-1.7039,-1.7239,-1.789,-1.8817,-1.9737,0.0,-2.396,-2.5434,-2.7565,-2.9814,-3.1255,-3.2559,-3.3731,-3.4467,-3.5656,-3.7152,-3.9029,-3.9587,-3.9844,-4.0765,-4.1029,-4.1095,-4.1108,-4.1092,-4.1109,-4.1097,-4.1106,-4.1092,-4.1094,-4.1093,-4.1091,-4.1108,-4.1093,-4.1406,-4.2246,-4.2361,-4.3001,-4.4758,-4.4962,-4.5303,-4.62,-4.6234,-4.6181,-4.6098,-4.6047,-4.6005,-4.5991,-4.5105,-4.4179,-4.3238,-4.2279,-4.1308,-4.0307,-4.0225,-4.0067,-3.9804,-3.9658,-3.9089,-3.8103,-3.6846,-3.6153,-3.5932,-3.5642,-3.5359,-3.5066,-3.4816,-3.4576,-3.4279,-3.3093,-3.2525,-3.2239,-3.1308,-3.1615,-3.25,0.0,0.0,0.0,0.0,0.0,0.0,0.0,0.0,0.0,0.0,0.0,0.0,0.0,0.0,0.0,0.0,-2.4429,-2.4446,-2.4393,-2.4411,-2.3904,-2.2719,-2.2419,-2.1666,-2.0399,-1.9941,-1.9492,-1.9031,-1.8538,-1.7943,-1.7228,-1.704,-1.6959,-1.6917,-1.6732,-1.6723,-1.6834,-1.6899,-1.683,-1.6664,-1.6781,-1.6843,-1.6881,-1.705,-1.754,-1.8285,0.0,0.0,-2.3418,-2.496,-2.7157,-2.9473,-3.1009,-3.2619,-3.412,-3.5021,-3.6115,-3.7131,-3.7762,-3.8826,-3.9815,-4.0123,-4.0662,-4.1104,-4.1094,-4.1099,-4.1106,-4.1093,-4.1094,-4.1093,-4.1092,-4.1578,-4.1967,-4.1966,-4.2456,-4.2926,-4.3219,-4.3262,-4.3691,-4.4863,-4.4994,-4.5337,-4.6212,-4.6231,-4.6187,-4.6162,-4.6095,-4.6051,-4.6011,-4.4597,-4.364,-4.3285,-4.1781,-4.0808,-4.0383,-4.0262,-3.9841,-3.9117,-3.8274,-3.7598,-3.7082,-3.6482,-3.5806,-3.509,-3.4812,-3.4284,-3.3538,-3.3248,-3.3019,-3.282,-3.2132,-3.174,-3.1509,-3.1073,-3.0925,-3.0975,0.0,0.0,0.0,0.0,0.0,0.0,0.0,0.0,0.0,0.0,0.0,0.0,0.0,0.0,0.0,0.0,0.0,-2.433,-2.4294,-2.4331,-2.3907,-2.2969,-2.2687,-2.2078,-2.105,-2.0587,-2.0135,-1.9661,-1.9164,-1.8562,-1.7861,-1.7843,-1.7686,-1.7411,-1.7474,-1.7412,-1.7301,-1.7375,-1.7254,-1.706,-1.7207,-1.7291,-1.7336,-1.7615,-1.7951,0.0,0.0,-2.1095,-2.2984,-2.4659,-2.6857,-2.9136,-3.066,-3.2525,-3.4336,-3.5372,-3.6142,-3.6739,-3.7025,-3.7966,-3.8943,-3.9253,-3.976,-4.025,-4.0565,-4.0644,-4.0723,-4.1032,-4.1106,-4.1102,-4.1099,-4.1819,-4.2402,-4.2402,-4.3128,-4.3814,-4.4127,-4.4156,-4.4491,-4.535,-4.5469,-4.5681,-4.6244,-4.6266,-4.6238,-4.6209,-4.616,-4.6119,-4.6047,-4.4389,-4.3394,-4.3299,-4.1575,-4.0569,-4.043,-4.0307,-3.9728,-3.871,-3.7261,-3.6441,-3.62,-3.5607,-3.496,-3.4299,-3.3998,-3.3476,-3.2804,-3.2155,-3.1812,-3.1603,-3.093,-3.0549,-3.0359,-3.0183,-2.9809,-2.9484,0.0,0.0,0.0,0.0,0.0,0.0,0.0,0.0,0.0,0.0,0.0,0.0,0.0,0.0,0.0,0.0,0.0,0.0,-2.4275,-2.4237,-2.3793,-2.2903,-2.266,-2.2071,-2.1049,-2.0628,-2.0182,-1.9721,-1.9618,-1.9253,-1.8616,-1.8906,-1.8708,-1.8148,-1.8482,-1.837,-1.788,-1.7921,-1.7969,-1.8024,-1.789,-1.8005,-1.8312,-1.8838,0.0,0.0,0.0,-2.1668,-2.2785,-2.4502,-2.6698,-2.8954,-3.0405,-3.2412,-3.4422,-3.5481,-3.5839,-3.6064,-3.6827,-3.7105,-3.7388,-3.8229,-3.8471,-3.8729,-3.9546,-3.9779,-4.003,-4.0864,-4.1065,-4.1111,-4.115,-4.1863,-4.2481,-4.252,-4.3259,-4.413,-4.4951,-4.5063,-4.5363,-4.6203,-4.6305,-4.6307,-4.6308,-4.6308,-4.6262,-4.6214,-4.6212,-4.6176,-4.6111,-4.4457,-4.3446,-4.3303,-4.1616,-4.0633,-4.0504,-4.0281,-3.9624,-3.8521,-3.6637,-3.5637,-3.5404,-3.4289,-3.3726,-3.3591,-3.3253,-3.3006,-3.2743,-3.1659,-3.1059,-3.0733,-2.9643,-2.9069,-2.887,-2.8755,-2.8398,-2.8207,0.0,0.0,0.0,0.0,0.0,0.0,0.0,0.0,0.0,0.0,0.0,0.0,0.0,0.0,0.0,0.0,0.0,0.0,-2.4075,-2.4056,-2.3925,-2.3636,-2.3471,-2.3195,-2.2774,0.0,0.0,-2.1387,-2.0827,-2.0464,-2.0267,-1.9651,-1.9543,-1.9848,-1.9391,-1.9121,-1.8979,-1.8688,-1.8564,-1.8503,0.0,-1.8456,-1.8838,0.0,0.0,0.0,-2.2062,-2.3382,-2.4267,-2.4831,-2.7247,-3.0378,-3.2481,-3.3716,-3.4525,-3.5447,-3.5732,-3.5791,-3.5999,-3.6583,-3.72,-3.7457,-3.8024,-3.8566,-3.8777,-3.9327,-3.9852,-4.0088,-4.0643,-4.1278,-4.1889,-4.2716,-4.3501,-4.4159,-4.4994,-4.5631,-4.5865,-4.5898,-4.6007,-4.6267,-4.6294,-4.63,-4.6305,-4.6308,-4.6289,-4.6286,-4.6266,-4.6248,-4.6173,-4.4476,-4.3471,-4.3451,-4.1658,-4.0668,-4.0586,-3.9095,-3.8128,-3.7678,-3.5786,-3.4768,-3.4513,-3.4013,-3.3726,-3.3591,-3.3253,-3.2668,-3.1958,-3.1413,-3.0762,-3.0021,-2.942,-2.9069,-2.887,-2.8755,-2.8398,-2.8059,0.0,0.0,0.0,0.0,0.0,0.0,0.0,0.0,0.0,0.0,0.0,0.0,0.0,0.0,0.0,0.0,0.0,0.0,0.0,-2.3976,-2.3927,-2.3865,-2.3725,-2.3555,-2.336,0.0,0.0,0.0,0.0,0.0,-2.119,-2.0641,-2.0604,-2.0999,-2.0604,-2.0308,-2.008,-1.9618,0.0,0.0,0.0,0.0,0.0,0.0,0.0,-2.1146,-2.3362,-2.5409,-2.7168,-2.7753,-2.943,-3.1625,-3.3534,-3.4225,-3.4521,-3.5362,-3.5596,-3.5577,-3.5576,-3.5999,-3.6451,-3.6526,-3.6933,-3.742,-3.779,-3.8561,-3.9285,-3.9678,-4.0445,-4.1312,-4.2158,-4.3006,-4.387,-4.4724,-4.5605,-4.6206,-4.6206,-4.6206,-4.6201,-4.6247,-4.6253,-4.6261,-4.6269,-4.6279,-4.6305,-4.6307,-4.6301,-4.6271,-4.6242,-4.4523,-4.3522,-4.3495,-4.172,-4.0675,-4.0515,-3.8629,-3.7595,-3.7389,-3.553,-3.4506,-3.4233,-3.3998,-3.3807,-3.3597,0.0,-3.2301,-3.162,-3.0631,-2.9866,-2.9256,-2.8543,-2.8134,-2.7925,-2.778,-2.7468,-2.7077,0.0,0.0,0.0,0.0,0.0,0.0,0.0,0.0,0.0,0.0,0.0,0.0,0.0,0.0,0.0,0.0,0.0,0.0,0.0,0.0,0.0,0.0,-2.3682,-2.3533,-2.336,-2.3028,-2.2677,-2.2289,-2.1763,-2.1633,0.0,0.0,0.0,0.0,0.0,0.0,0.0,0.0,0.0,0.0,0.0,0.0,0.0,0.0,0.0,-2.2432,-2.4819,-2.7753,-3.0649,-3.1759,-3.2232,-3.2589,-3.389,-3.4295,-3.4447,-3.5218,-3.5419,-3.5364,-3.5364,-3.547,-3.5596,-3.5667,-3.573,-3.6024,-3.6879,-3.7753,-3.862,-3.9512,-4.0373,-4.1252,-4.2108,-4.2987,-4.3843,-4.4664,-4.5578,-4.6189,-4.6189,-4.6196,-4.6195,-4.6198,-4.6198,-4.6187,-4.6201,-4.6251,-4.6285,-4.6299,-4.6306,-4.6306,-4.6303,-4.4585,-4.3458,-4.3155,-4.1626,-4.0687,-4.043,-3.8618,-3.764,-3.7403,-3.5574,-3.4561,-3.4305,-3.4099,-3.3839,-3.3483,-3.252,-3.1825,-3.1263,-2.9667,-2.8809,-2.8437,-2.7473,-2.6957,-2.6708,-2.6571,-2.6258,-2.5934,0.0,0.0,0.0,0.0,0.0,0.0,0.0,0.0,0.0,0.0,0.0,0.0,0.0,0.0,0.0,0.0,0.0,0.0,0.0,0.0,0.0,0.0,-2.3813,-2.3718,-2.3634,-2.336,-2.306,-2.279,-2.2289,-2.25,0.0,0.0,0.0,0.0,0.0,0.0,0.0,0.0,0.0,0.0,0.0,0.0,0.0,0.0,0.0,0.0,-2.7485,-3.0528,-3.312,-3.4039,-3.3619,-3.2903,-3.3963,-3.4267,-3.4339,-3.4973,-3.5165,-3.5171,-3.5223,-3.534,-3.5457,-3.5601,-3.5669,-3.595,-3.6822,-3.7683,-3.8551,-3.9437,-4.0306,-4.117,-4.1969,-4.2858,-4.3733,-4.4647,-4.5536,-4.6123,-4.6126,-4.6115,-4.6127,-4.6123,-4.6126,-4.6141,-4.6189,-4.6206,-4.6245,-4.6303,-4.6305,-4.6307,-4.6293,-4.4586,-4.2909,-4.1392,-4.0999,-4.0724,-4.0566,-3.8762,-3.7766,-3.7538,-3.5664,-3.4645,-3.4363,-3.4124,-3.3526,-3.2692,-3.2281,0.0,-2.9758,-2.9225,-2.8476,-2.7672,-2.7266,-2.6989,-2.6843,-2.6589,-2.6345,-2.6132,0.0,0.0,0.0,0.0,0.0,0.0,0.0,0.0,0.0,0.0,0.0,0.0,0.0,0.0,0.0,0.0,0.0,0.0,0.0,0.0,0.0,0.0,0.0,0.0,-2.375,-2.356,-2.3365,-2.317,0.0,-2.3119,-2.4264,-2.3769,-2.4151,-2.5195,-2.4776,-2.4357,-2.3926,-2.3509,-2.3246,-2.3068,-2.2881,-2.3007,0.0,0.0,0.0,0.0,-2.992,-3.2256,-3.4235,-3.4959,-3.4795,-3.4336,-3.4818,-3.487,-3.4754,-3.4986,-3.5,-3.4955,-3.5028,-3.5147,-3.527,-3.5404,-3.588,-3.6427,-3.6855,-3.8001,-3.9093,-3.9469,-4.0239,-4.1111,-4.1953,-4.2778,-4.3668,-4.4608,-4.5476,-4.6046,-4.6056,-4.6435,-4.6746,-4.6768,-4.6772,-4.6796,-4.682,-4.6459,-4.6209,-4.6242,-4.6282,-4.609,-4.5642,-4.3935,-4.2353,-4.0987,-4.0854,-4.073,-4.0595,-3.8804,-3.7791,-3.7585,-3.5703,-3.4678,-3.445,-3.4209,-3.3542,-3.252,-3.1851,-3.077,-2.939,-2.8795,-2.8126,-2.7542,-2.7324,-2.7104,-2.6876,-2.664,-2.6398,-2.6168,0.0,0.0,0.0,0.0,0.0,0.0,0.0,0.0,0.0,0.0,0.0,0.0,0.0,0.0,0.0,0.0,0.0,0.0,0.0,0.0,0.0,0.0,0.0,0.0,-2.3886,0.0,0.0,-2.3508,-2.3336,0.0,0.0,0.0,0.0,0.0,-2.6058,-2.5719,-2.533,-2.5048,-2.4689,0.0,0.0,-2.4266,-2.4609,0.0,0.0,0.0,0.0,-3.3437,-3.4827,-3.5364,-3.5584,-3.5602,-3.5581,-3.5366,-3.5138,-3.5001,-3.4869,-3.4819,-3.487,-3.4991,-3.5168,-3.5488,-3.6232,-3.6954,-3.7351,-3.8539,-3.9594,-3.9712,-4.0287,-4.0964,-4.1647,-4.2589,-4.3512,-4.426,-4.5265,-4.596,-4.5989,-4.6729,-4.73,-4.7359,-4.7515,-4.7578,-4.7393,-4.6811,-4.6372,-4.6215,-4.5924,-4.5436,-4.4765,-4.3258,-4.1975,-4.103,-4.0888,-4.0668,-4.0372,-3.8741,-3.7753,-3.7374,-3.5666,-3.4752,-3.455,-3.434,-3.3555,-3.2334,-3.1493,-3.041,-2.9209,-2.8417,-2.7911,-2.7617,-2.7465,-2.72,-2.6909,-2.6708,-2.6468,-2.6239,0.0,0.0,0.0,0.0,0.0,0.0,0.0,0.0,0.0,0.0,0.0,0.0,0.0,0.0,0.0,0.0,0.0,0.0,0.0,0.0,0.0,0.0,0.0,0.0,0.0,0.0,0.0,-2.3855,-2.4432,0.0,0.0,0.0,0.0,0.0,0.0,-2.6868,-2.6539,-2.6319,0.0,0.0,0.0,0.0,0.0,0.0,0.0,0.0,0.0,-3.4074,-3.528,-3.5578,-3.5692,-3.5663,-3.5479,-3.5231,-3.498,-3.4859,-3.4809,-3.4809,-3.4802,-3.4944,-3.5329,-3.6243,-3.6591,-3.7151,-3.8799,-3.9302,-3.9617,-4.0358,-4.057,-4.0647,-4.0724,-4.2095,-4.3248,-4.3322,-4.4736,-4.5834,-4.5906,-4.6655,-4.7217,-4.7223,-4.7915,-4.8114,-4.7376,-4.725,-4.6926,-4.6251,-4.4809,-4.3896,-4.3824,-4.2926,-4.1974,-4.1026,-4.0933,-4.0475,-3.9614,-3.8588,-3.762,-3.6672,-3.5581,-3.4974,-3.4768,-3.4495,-3.339,-3.1659,-3.1345,-3.0168,0.0,-2.82,-2.794,-2.7672,-2.7496,-2.7261,-2.7054,-2.6792,-2.6589,-2.6433,0.0,0.0,0.0,0.0,0.0,0.0,0.0,0.0,0.0,0.0,0.0,0.0,0.0,0.0,0.0,0.0,0.0,0.0,0.0,0.0,0.0,0.0,0.0,0.0,0.0,0.0,-2.4449,-2.4919,-2.5104,0.0,0.0,0.0,0.0,0.0,0.0,-2.7861,-2.7648,-2.7407,0.0,0.0,0.0,0.0,0.0,0.0,0.0,0.0,0.0,0.0,-3.5553,-3.5718,-3.572,-3.5655,-3.5425,-3.5208,-3.5038,-3.4859,-3.4768,-3.4749,-3.4792,-3.5296,-3.5938,-3.6414,-3.7379,-3.8396,-3.9162,-3.9757,-4.0214,-4.0521,-4.0591,-4.0591,-4.0591,-4.1986,-4.3158,-4.3195,-4.4626,-4.5757,-4.584,-4.7034,-4.7952,-4.7973,-4.8755,-4.8955,-4.8108,-4.7586,-4.6776,-4.551,-4.4306,-4.343,-4.2948,-4.2085,-4.1456,-4.1078,-4.05,-3.9958,-3.9494,-3.8046,-3.7075,-3.6581,-3.5588,-3.4993,-3.4788,-3.4517,-3.3376,-3.1591,-3.1353,-3.0192,0.0,-2.8286,-2.8035,-2.7745,-2.7569,-2.7371,-2.7117,-2.6908,-2.6725,-2.6572,0.0,0.0,0.0,0.0,0.0,0.0,0.0,0.0,0.0,0.0,0.0,0.0,0.0,0.0,0.0,0.0,0.0,0.0,0.0,0.0,0.0,0.0,0.0,0.0,0.0,0.0,-2.5439,-2.6042,-2.62,-2.6848,0.0,0.0,-2.8434,-2.8904,0.0,0.0,0.0,0.0,0.0,0.0,0.0,0.0,0.0,0.0,0.0,0.0,0.0,0.0,0.0,0.0,0.0,-3.5659,-3.5406,-3.5219,-3.5057,-3.4878,-3.4958,-3.5118,-3.519,-3.5941,-3.6777,-3.7156,-3.8213,-3.9245,-3.955,-4.0096,-4.0534,-4.0535,-4.0535,-4.0631,-4.0881,-4.2074,-4.3148,-4.3466,-4.4734,-4.5788,-4.609,-4.7418,-4.8481,-4.8791,-4.9599,-4.9683,-4.858,-4.7524,-4.6367,-4.4997,-4.4088,-4.3249,-4.2447,-4.1328,-4.0715,-4.0717,-4.0078,-3.9428,-3.8801,-3.7511,-3.6665,-3.6265,-3.5529,-3.5047,-3.484,-3.4341,-3.3213,-3.1654,-3.1201,-3.0087,0.0,-2.8406,-2.8164,-2.7879,-2.7704,-2.7478,-2.723,-2.7023,-2.6859,-2.6657,0.0,0.0,0.0,0.0,0.0,0.0,0.0,0.0,0.0,0.0,0.0,0.0,0.0,0.0,0.0,0.0,0.0,0.0,0.0,0.0,0.0,0.0,0.0,0.0,0.0,0.0,-2.7078,-2.7076,-2.7893,-2.8278,-2.8315,-2.911,-2.9455,-2.9389,0.0,0.0,0.0,0.0,0.0,0.0,0.0,0.0,0.0,0.0,0.0,0.0,0.0,0.0,0.0,0.0,0.0,0.0,0.0,-3.5251,-3.5066,-3.4936,-3.5465,-3.6099,-3.6168,-3.6863,-3.7823,-3.8735,-3.9045,-3.9329,-4.0187,-4.0407,-4.0407,-4.0407,-4.0407,-4.0675,-4.1527,-4.2361,-4.3203,-4.415,-4.5021,-4.5892,-4.6782,-4.77,-4.8618,-4.9489,-5.0359,-5.0236,-4.8558,-4.695,-4.5702,-4.4959,-4.4101,-4.3239,-4.2433,-4.0769,-3.9805,-3.9801,-3.9797,-3.8932,-3.7147,-3.704,-3.6491,-3.5514,-3.5362,-3.5198,-3.4954,-3.3893,-3.2854,-3.1834,-3.0771,-2.9739,0.0,-2.8497,-2.8291,-2.8071,-2.7789,-2.7585,-2.7373,-2.7166,-2.6923,-2.6674,0.0,0.0,0.0,0.0,0.0,0.0,0.0,0.0,0.0,0.0,0.0,0.0,0.0,0.0,0.0,0.0,0.0,0.0,0.0,0.0,0.0,0.0,0.0,0.0,0.0,0.0,-2.7538,-2.8121,-2.8436,-2.915,-3.0288,-3.0536,-3.0963,-3.1511,-3.1467,-3.1431,0.0,0.0,0.0,0.0,0.0,0.0,-3.4223,0.0,0.0,0.0,0.0,0.0,0.0,0.0,0.0,0.0,0.0,0.0,0.0,-3.5796,-3.6008,-3.6128,-3.6236,-3.731,-3.8518,-3.8962,-3.9503,-3.9999,-4.0321,-4.0407,-4.056,-4.1182,-4.1297,-4.1547,-4.2362,-4.3215,-4.3904,-4.4237,-4.5485,-4.652,-4.6851,-4.8186,-4.9215,-4.9489,-4.9299,-4.8709,-4.7687,-4.608,-4.478,-4.401,-4.3183,-4.2361,-4.1551,-4.0429,-3.9803,-3.9795,-3.8633,-3.7729,-3.7108,-3.6438,-3.591,-3.5495,-3.5369,-3.4909,-3.4153,-3.3686,-3.2594,-3.1038,-3.058,-2.9768,-2.8773,-2.8562,-2.834,-2.814,-2.7861,-2.7657,-2.7511,-2.7261,-2.7054,-2.6875,0.0,0.0,0.0,0.0,0.0,0.0,0.0,0.0,0.0,0.0,0.0,0.0,0.0,0.0,0.0,0.0,0.0,0.0,0.0,0.0,0.0,0.0,0.0,0.0,0.0,-2.8272,-2.876,-2.966,-2.9692,-3.0422,-3.1798,-3.1775,-3.2068,-3.261,-3.254,-3.2518,0.0,0.0,0.0,0.0,0.0,0.0,-3.4889,0.0,0.0,0.0,0.0,0.0,0.0,0.0,0.0,0.0,0.0,0.0,0.0,0.0,-3.7042,-3.7176,-3.7253,-3.828,-3.9366,-3.9516,-3.9936,-4.0299,-4.0345,-4.0603,-4.0976,-4.1512,-4.1895,-4.2354,-4.3168,-4.3762,-4.4365,-4.5093,-4.6081,-4.7012,-4.7748,-4.8786,-4.9478,-4.9504,-4.8784,-4.7998,-4.724,-4.5661,-4.4335,-4.3558,-4.2736,-4.1777,-4.0666,-3.9784,-3.9168,-3.8867,-3.7797,-3.7058,-3.666,-3.604,-3.567,-3.5568,-3.5104,-3.4519,-3.3805,-3.2967,-3.192,-3.0708,-3.0193,-2.9576,0.0,-2.87,-2.8484,-2.825,-2.8053,-2.7821,-2.7615,-2.7402,-2.7214,-2.7055,0.0,0.0,0.0,0.0,0.0,0.0,0.0,0.0,0.0,0.0,0.0,0.0,0.0,0.0,0.0,0.0,0.0,0.0,0.0,0.0,0.0,0.0,0.0,0.0,0.0,-3.0162,-3.0613,-3.1497,-3.1504,-3.1969,-3.291,-3.2847,-3.2874,-3.2986,-3.2924,-3.2882,0.0,0.0,0.0,0.0,0.0,0.0,0.0,0.0,0.0,0.0,0.0,0.0,0.0,0.0,0.0,0.0,0.0,0.0,0.0,0.0,0.0,0.0,0.0,-3.9595,-4.0225,-4.0272,-4.0301,-4.0301,-4.0358,-4.096,0.0,-4.1648,-4.2316,-4.3138,-4.393,-4.414,-4.4735,-4.6425,-4.679,-4.7472,-4.9164,-4.9394,-4.9394,-4.9401,-4.8684,-4.7854,-4.7004,-4.5445,-4.4208,-4.3451,-4.2592,-4.1434,-3.9874,-3.897,-3.8126,-3.7336,-3.7245,-3.6797,-3.5908,-3.5836,-3.5733,-3.5591,-3.467,-3.4037,-3.3664,-3.1919,-3.0968,-3.0685,-2.9721,-2.9246,0.0,-2.8881,-2.865,-2.8411,-2.825,-2.8011,-2.7716,-2.7554,-2.7386,-2.7197,0.0,0.0,0.0,0.0,0.0,0.0,0.0,0.0,0.0,0.0,0.0,0.0,0.0,0.0,0.0,0.0,0.0,0.0,0.0,0.0,0.0,0.0,0.0,0.0,0.0,-3.1992,-3.2168,-3.2401,-3.2441,-3.2952,-3.3865,-3.3851,-3.4217,-3.4866,-3.4838,-3.4789,0.0,0.0,0.0,0.0,0.0,0.0,0.0,0.0,0.0,0.0,-3.5756,-3.5841,0.0,0.0,0.0,0.0,0.0,0.0,0.0,0.0,-3.9039,-3.9254,-3.9874,0.0,-4.0225,-4.0272,-4.0301,-4.0454,0.0,-4.1361,-4.1858,-4.3157,-4.3586,-4.3968,-4.4838,-4.5507,-4.6082,-4.6546,-4.7738,-4.8786,-4.9259,-4.9365,-4.9182,-4.8573,-4.7763,-4.667,-4.5248,-4.4199,-4.326,-4.2421,-4.1639,-4.0779,-3.9781,-3.8958,-3.8124,-3.7325,-3.6656,-3.6169,-3.5908,-3.5836,-3.543,-3.4691,-3.4409,-3.3506,-3.2053,-3.1497,-3.0806,-3.001,-2.9616,-2.9351,-2.9156,-2.8905,-2.87,-2.8523,-2.8291,-2.8126,-2.7982,-2.7748,-2.7569,-2.7386,0.0,0.0,0.0,0.0,0.0,0.0,0.0,0.0,0.0,0.0,0.0,0.0,0.0,0.0,0.0,0.0,0.0,0.0,0.0,0.0,0.0,0.0,0.0,0.0,-3.2583,-3.2688,-3.2938,-3.3331,-3.3414,-3.4102,-3.5386,-3.538,-3.5862,-3.6691,-3.6684,-3.6629,0.0,0.0,0.0,0.0,-3.6496,0.0,0.0,0.0,0.0,0.0,-3.6358,-3.618,0.0,-3.5935,-3.6184,-3.6631,0.0,0.0,0.0,0.0,-3.989,-3.9927,-4.0293,-4.0316,-4.0253,-4.03,-4.0577,-4.096,-4.1399,-4.2087,-4.2908,-4.3815,-4.4312,-4.4857,-4.5698,-4.6214,-4.6759,-4.7608,-4.855,-4.932,-4.9784,-4.9537,-4.9009,-4.8212,-4.7365,-4.62,-4.4564,-4.3674,-4.2864,-4.206,-4.1263,-4.0306,-3.9151,-3.8688,-3.7901,-3.6703,-3.6237,-3.5976,-3.5949,-3.5476,-3.4977,-3.4447,-3.3571,-3.2574,-3.1481,-3.0989,-3.04,-2.9799,-2.9655,-2.9453,-2.9235,-2.9067,-2.887,-2.8626,-2.8062,-2.7736,-2.7571,-2.7405,-2.7221,-2.7116,0.0,0.0,0.0,0.0,0.0,0.0,0.0,0.0,0.0,0.0,0.0,0.0,0.0,0.0,0.0,0.0,0.0,0.0,0.0,0.0,0.0,0.0,0.0,-3.3039,-3.3104,-3.3149,-3.3544,-3.4299,-3.45,-3.5348,-3.6794,-3.6961,-3.7418,-3.8112,-3.8112,-3.8073,0.0,0.0,-3.7978,-3.7916,-3.7928,0.0,0.0,0.0,0.0,0.0,0.0,0.0,0.0,-3.6162,-3.6542,-3.7188,-3.8118,0.0,0.0,0.0,0.0,0.0,-4.0477,-4.0392,-4.0334,-4.0325,-4.0911,-4.1552,-4.1667,-4.2889,-4.4064,-4.4331,-4.4972,-4.5736,-4.6557,-4.6806,-4.7371,-4.8859,-4.9215,-4.9535,-5.0212,-4.9571,-4.8708,-4.7893,-4.6973,-4.5783,-4.4233,-4.336,-4.2591,-4.1834,-4.0997,-3.989,-3.8452,-3.8252,-3.7495,-3.5955,-3.5956,-3.5936,-3.5793,-3.5002,-3.445,-3.4093,-3.2546,-3.1651,-3.1322,-3.051,-3.0022,-2.9842,0.0,0.0,-2.9314,-2.9254,-2.9055,-2.8737,-2.7786,-2.7264,-2.703,-2.6805,-2.6698,-2.676,0.0,0.0,0.0,0.0,0.0,0.0,0.0,0.0,0.0,0.0,0.0,0.0,0.0,0.0,0.0,0.0,0.0,0.0,0.0,0.0,0.0,0.0,-3.5611,-3.4841,-3.4894,-3.4921,-3.5016,-3.5194,-3.6008,-3.6543,-3.6826,-3.761,-3.8067,-3.8183,-3.8183,-3.8151,-3.8084,-3.8084,-3.8055,-3.7973,-3.7981,0.0,0.0,0.0,0.0,0.0,0.0,0.0,0.0,-3.7011,-3.666,-3.6455,-3.7999,0.0,0.0,0.0,0.0,0.0,-4.0661,-4.0569,-4.0468,-4.0396,-4.0995,-4.1762,-4.246,-4.334,-4.4407,-4.5831,-4.6214,-4.6577,-4.7444,-4.82,-4.8785,-4.9064,-4.9728,-5.0002,-4.9484,-4.8708,-4.7854,-4.7011,-4.5544,-4.4211,-4.3203,-4.2428,-4.1639,-4.0785,-4.0076,-3.9267,-3.8274,-3.7632,-3.6868,-3.5936,-3.5919,-3.5588,-3.4902,-3.4761,-3.3912,-3.2383,-3.2035,-3.1458,-3.0645,-3.0382,-3.0185,-3.003,0.0,-2.9654,-2.9463,-2.9336,-2.9163,-2.8867,-2.7863,-2.7423,-2.7229,-2.631,-2.6373,-2.7019,0.0,0.0,0.0,0.0,0.0,0.0,0.0,0.0,0.0,0.0,0.0,0.0,0.0,0.0,0.0,0.0,0.0,0.0,0.0,0.0,0.0,-3.7705,-3.696,-3.6392,-3.6013,-3.5998,-3.5817,-3.5453,-3.6369,-3.7051,-3.7527,-3.8949,-3.9592,-3.9592,-3.9592,-3.9567,-3.9495,-3.9481,-3.9427,-3.9403,0.0,0.0,0.0,0.0,0.0,0.0,0.0,0.0,0.0,0.0,-3.6981,-3.6836,-3.7577,0.0,0.0,0.0,0.0,0.0,-4.0713,-4.0655,-4.0716,-4.1104,-4.1754,-4.2507,-4.3312,-4.4153,-4.5079,-4.6252,-4.65,-4.692,-4.8258,-4.8831,-4.9232,-4.9637,-4.9632,-4.9453,-4.9087,-4.7941,-4.6814,-4.5935,-4.4772,-4.3551,-4.2278,-4.1864,-4.1176,-3.988,-3.9548,-3.8839,-3.7568,-3.721,-3.6673,-3.5872,-3.5885,-3.5284,-3.4002,-3.3999,-3.3337,-3.1987,-3.1445,-3.095,-3.0499,-3.0355,-3.0226,-3.0091,0.0,-2.9753,-2.9598,-2.9453,-2.9286,-2.8979,-2.7559,-2.6916,-2.6675,-2.6043,-2.6305,-2.7086,0.0,0.0,0.0,0.0,0.0,0.0,0.0,0.0,0.0,0.0,0.0,0.0,0.0,0.0,0.0,0.0,0.0,0.0,0.0,0.0,-3.8298,-3.8304,-3.8304,-3.787,-3.6926,-3.6907,-3.6638,-3.6096,-3.6967,-3.7861,-3.8769,-4.0153,-4.0797,-4.0797,-4.0797,-4.0868,-4.097,-4.093,-4.0906,-4.0881,0.0,0.0,0.0,0.0,0.0,0.0,0.0,0.0,0.0,0.0,0.0,0.0,0.0,0.0,0.0,-3.9687,-4.0287,-4.0907,-4.079,-4.0744,-4.0952,-4.195,-4.2566,-4.3118,-4.3934,-4.4929,-4.5885,-4.6645,-4.6937,-4.7548,-4.9087,-4.9331,-4.946,-4.9832,-4.9314,-4.8732,-4.8351,-4.6989,-4.5734,-4.4878,-4.3907,-4.2806,-4.157,-4.116,-4.045,-3.9251,-3.8839,-3.8145,-3.6916,-3.6734,-3.6401,-3.5791,-3.5666,-3.4897,-3.3405,-3.3203,-3.2638,-3.1716,-3.0966,-3.0593,-3.0515,-3.0396,-3.0279,-3.0138,-3.0011,-2.9883,-2.9735,-2.9598,-2.9441,-2.9095,-2.7538,-2.6633,-2.6181,-2.5961,-2.6356,-2.7099,0.0,0.0,0.0,0.0,0.0,0.0,0.0,0.0,0.0,0.0,0.0,0.0,0.0,0.0,0.0,0.0,0.0,0.0,0.0,0.0,-4.0043,-4.011,-4.011,-3.9391,-3.7838,-3.78,-3.7809,-3.7815,-3.876,-3.9683,-4.0616,-4.0732,-4.0797,-4.0797,-4.0797,-4.1177,-4.1815,-4.1815,-4.1771,-4.172,-4.172,0.0,0.0,0.0,0.0,0.0,0.0,0.0,0.0,0.0,0.0,0.0,0.0,0.0,-3.8744,-3.9555,-4.037,-4.098,-4.0912,-4.0842,-4.1163,-4.2716,-4.305,-4.3205,-4.4019,-4.539,-4.6736,-4.7532,-4.8296,-4.9082,-4.9952,-5.0075,-4.9797,-4.9099,-4.8891,-4.8264,-4.6712,-4.562,-4.4704,-4.3907,-4.2435,-4.1442,-4.1328,-3.9975,-3.907,-3.902,-3.7633,-3.6761,-3.6726,-3.608,-3.569,-3.5713,-3.5049,-3.4286,-3.3402,-3.2594,-3.1752,-3.0872,-3.0745,-3.0658,-3.0593,-3.052,-3.0408,-3.0273,-3.0135,-3.0018,-2.9887,-2.9738,-2.956,-2.9279,-2.8299,-2.7204,-2.6192,-2.6181,-2.6531,-2.7103,0.0,0.0,0.0,0.0,0.0,0.0,0.0,0.0,0.0,0.0,0.0,0.0,0.0,0.0,0.0,0.0,0.0,0.0,0.0,0.0,-4.0234,-4.0301,-4.0301,-4.0013,-3.9406,-3.8903,-3.8423,-3.8007,-3.8933,-3.9863,-4.0739,-4.0784,-4.0797,-4.0797,-4.0797,-4.0939,-4.1195,-4.1687,-4.1574,-4.1097,-4.1593,-4.132,0.0,0.0,0.0,0.0,0.0,0.0,0.0,0.0,-3.7323,-3.5994,-3.6364,-3.744,-3.8618,-3.8904,-3.9945,-4.0997,-4.0913,-4.0878,-4.1244,-4.2866,-4.319,-4.3447,-4.468,-4.5841,-4.6863,-4.7594,-4.8407,-4.9077,-4.9338,-4.9296,-4.8953,-4.8099,-4.7472,-4.6845,-4.6202,-4.4909,-4.3724,-4.2874,-4.1789,-4.0727,-3.9711,-3.9071,-3.8335,-3.7386,-3.6809,-3.6283,-3.5852,-3.5649,-3.557,-3.5634,-3.4913,-3.416,-3.336,-3.2506,-3.166,-3.0806,-3.0728,-3.0665,-3.0602,-3.053,-3.0455,-3.0343,-3.0232,-3.0117,-3.0018,-2.9825,-2.9664,-2.9426,-2.8347,-2.7334,-2.6502,-2.6824,-2.7073,-2.7347,0.0,0.0,0.0,0.0,0.0,0.0,0.0,0.0,0.0,0.0,0.0,0.0,0.0,0.0,0.0,0.0,0.0,0.0,0.0,-4.0157,-4.0215,-4.0263,-4.0291,-4.0291,-4.0307,-3.9776,-3.926,-3.8793,-3.9453,-4.0087,-4.07,-4.0778,-4.0797,-4.0797,-4.0784,-4.0868,-4.1098,-4.168,-4.1547,-4.1027,-4.1574,-4.1312,0.0,0.0,0.0,0.0,0.0,0.0,0.0,0.0,-3.7464,-3.6278,-3.6078,-3.7205,-3.8592,-3.856,-3.973,-4.1028,-4.0948,-4.0921,-4.1311,-4.2923,-4.3272,-4.3578,-4.5091,-4.6081,-4.6826,-4.7247,-4.7948,-4.8478,-4.8416,-4.8313,-4.7937,-4.704,-4.6329,-4.5719,-4.5197,-4.3871,-4.2654,-4.1795,-4.0766,-3.9679,-3.8588,-3.8029,-3.7327,-3.6272,-3.6027,-3.5708,-3.5264,-3.536,-3.5355,-3.5187,-3.4472,-3.3692,-3.29,-3.2082,-3.1383,-3.08,-3.0741,-3.0706,-3.0622,-3.0558,-3.049,-3.0408,-3.0292,-3.0192,-3.0125,-2.9943,-2.9764,-2.9485,-2.8398,-2.7733,-2.7405,-2.7497,-2.7622,-2.7845,0.0,0.0,0.0,0.0,0.0,0.0,0.0,0.0,0.0,0.0,0.0,0.0,0.0,0.0,0.0,0.0,0.0,0.0,0.0,-4.0118,-4.0196,-4.0196,-4.0263,-4.031,-4.0307,-4.037,-4.0432,-4.0502,-4.0576,-4.0628,-4.07,-4.0778,-4.0797,-4.079,-4.0733,-4.1137,-4.1885,-4.1894,-4.1855,-4.1788,-4.1788,-4.1277,-4.0504,0.0,0.0,0.0,0.0,0.0,0.0,0.0,-3.7877,-3.7064,-3.6258,0.0,-3.8593,-3.8593,-3.9795,-4.1083,-4.103,-4.1,-4.138,-4.3001,-4.3305,-4.3612,-4.5155,-4.6129,-4.6654,-4.6522,-4.6984,-4.7384,-4.7305,-4.7219,-4.6886,-4.5937,-4.5721,-4.5087,-4.3418,-4.238,-4.1502,-4.0699,-3.9176,-3.8184,-3.8184,-3.6802,-3.5924,-3.5977,-3.5304,-3.4954,-3.5069,-3.52,-3.4971,-3.43,-3.3567,-3.2791,-3.2007,-3.1198,-3.0805,-3.0799,-3.0794,-3.0776,-3.07,-3.0626,-3.0558,-3.0479,-3.0352,-3.0254,-3.0185,-3.0061,-2.9851,-2.9494,-2.8508,-2.8532,-2.8997,-2.8132,-2.814,-2.86,0.0,0.0,0.0,0.0,0.0,0.0,0.0,0.0,0.0,0.0,0.0,0.0,0.0,0.0,0.0,0.0,0.0,0.0,0.0,-4.0046,-4.0098,-4.0196,-4.0215,-4.0244,-4.031,-4.0363,-4.043,-4.0492,-4.0573,-4.0605,-4.0628,-4.07,-4.0733,-4.0733,-4.07,-4.0814,-4.1027,-4.1636,-4.1509,-4.0931,-4.1546,-4.1277,-4.0504,0.0,0.0,0.0,0.0,0.0,0.0,0.0,0.0,0.0,-3.6209,0.0,-3.8544,-3.8593,-3.9783,-4.1098,-4.1083,-4.1039,-4.1385,-4.2994,-4.3337,-4.3661,-4.5227,-4.6129,-4.6723,-4.7053,-4.7239,-4.7103,-4.6377,-4.62,-4.5679,-4.4219,-4.383,-4.3355,-4.2296,-4.1385,-4.0733,-4.0491,-3.8997,-3.7789,-3.7281,-3.6291,-3.5483,-3.4985,-3.484,-3.4555,-3.4064,-3.4213,-3.3983,-3.3275,-3.2588,-3.2125,-3.1926,-3.1176,-3.0799,-3.0809,-3.0801,-3.0783,-3.0767,-3.0707,-3.0637,-3.0564,-3.0439,-3.0328,-3.0267,-3.0072,-2.9874,-2.9645,-2.9289,-2.9197,-2.9191,-2.8901,-2.8831,-2.887,0.0,0.0,0.0,0.0,0.0,0.0,0.0,0.0,0.0,0.0,0.0,0.0,0.0,0.0,0.0,0.0,0.0,0.0,0.0,0.0,-4.019,-4.0662,-4.0682,-4.0874,-4.1275,-4.133,-4.1238,-4.0984,-4.0712,-4.0603,-4.0605,-4.064,-4.0661,-4.0661,-4.066,-4.0631,-4.0626,-4.1131,-4.102,-4.0554,-4.1066,-4.0969,-4.0516,0.0,0.0,0.0,0.0,0.0,0.0,0.0,0.0,0.0,-3.6279,-3.7093,-3.8504,-3.8544,-3.9765,-4.1091,-4.1091,-4.1074,-4.1347,-4.2612,-4.2856,-4.3083,-4.4196,-4.5235,-4.6046,-4.6347,-4.6031,-4.552,-4.4917,-4.443,-4.3774,-4.273,-4.2433,-4.2047,-4.12,-4.0589,-3.9993,-3.9363,-3.8076,-3.6961,-3.6231,-3.5435,-3.4779,-3.4365,-3.4195,-3.393,-3.3495,-3.3362,-3.2988,-3.2264,-3.1897,-3.1602,-3.1353,-3.0963,-3.0762,-3.0807,-3.0793,-3.0799,-3.0801,-3.0764,-3.0701,-3.0633,-3.0462,-3.0358,-3.0292,-3.0116,-2.9948,-2.977,-2.9673,-2.9551,-2.9394,-2.9289,-2.916,-2.9074,0.0,0.0,0.0,0.0,0.0,0.0,0.0,0.0,0.0,0.0,0.0,0.0,0.0,0.0,0.0,0.0,0.0,0.0,0.0,0.0,-4.0416,-4.1354,-4.1462,-4.1924,-4.2786,-4.2795,-4.244,-4.1694,-4.1035,-4.0677,-4.0607,-4.0605,-4.0607,-4.0607,-4.0603,-4.0607,-4.06,-4.0531,-4.0496,-4.0496,-4.0496,-4.0496,-4.0516,-4.0573,0.0,0.0,0.0,0.0,0.0,0.0,0.0,0.0,-3.6502,-3.7164,-3.8493,-3.8504,-3.9736,-4.1093,-4.1091,-4.1108,-4.1273,-4.2019,-4.2158,-4.2207,-4.2622,-4.3765,-4.474,-4.4655,-4.3856,-4.3182,-4.3154,-4.2352,-4.164,-4.1482,-4.139,-4.1018,-4.0095,-3.9835,-3.92,-3.7732,-3.6681,-3.584,-3.5225,-3.4431,-3.3961,-3.3963,-3.3476,-3.313,-3.3058,-3.2543,-3.1963,-3.1283,-3.1392,-3.1162,-3.0501,-3.0622,-3.0727,-3.0795,-3.0795,-3.0798,-3.0798,-3.0798,-3.0753,-3.0683,-3.0492,-3.0377,-3.0299,-3.0166,-3.0049,-2.9897,-2.9779,-2.9673,-2.9598,-2.9404,-2.927,-2.9189,0.0,0.0,0.0,0.0,0.0,0.0,0.0,0.0,0.0,0.0,0.0,0.0,0.0,0.0,0.0,0.0,0.0,0.0,0.0,0.0,-4.0352,-4.1271,-4.2032,-4.2553,-4.2794,-4.2795,-4.244,-4.169,-4.153,-4.1173,-4.0607,-4.0595,-4.0603,-4.0603,-4.0588,-4.0573,-4.0523,-4.0516,-4.0496,-4.0496,-4.0496,-4.0496,-4.0496,-4.0523,-4.0549,0.0,0.0,0.0,0.0,0.0,0.0,0.0,-3.7179,-3.7605,-3.8497,-3.8506,-3.9727,-4.1091,-4.1091,-4.1108,-4.1273,-4.2015,-4.2534,-4.2853,-4.2794,-4.287,-4.292,-4.275,-4.2472,-4.2227,-4.1996,-4.1779,-4.1338,-4.0495,-4.0296,-3.9926,-3.897,-3.8251,-3.7658,-3.7329,-3.5996,-3.5074,-3.4962,-3.4243,-3.3545,-3.3036,-3.2933,-3.2398,-3.1233,-3.1211,-3.0921,-3.023,-3.0405,-3.0471,-3.0425,-3.0544,-3.0665,0.0,-3.0765,-3.0803,-3.08,-3.08,-3.073,-3.0626,-3.058,-3.0491,-3.0377,-3.0299,-3.0173,-3.003,-2.9905,-2.9779,-2.9663,-2.9626,-2.9472,-2.9262,0.0,0.0,0.0,0.0,0.0,0.0,0.0,0.0,0.0,0.0,0.0,0.0,0.0,0.0,0.0,0.0,0.0,0.0,0.0,0.0,0.0,0.0,-4.3164,-4.3906,-4.3956,-4.398,-4.3417,-4.222,-4.2265,-4.1681,-4.0546,-4.0546,-4.0546,-4.0546,-4.0546,-4.0531,-4.0496,-4.0496,-4.0496,-4.0496,-4.0496,-4.0496,-4.0496,-4.0496,-4.0534,-4.0605,-4.0607,0.0,0.0,0.0,0.0,0.0,0.0,0.0,-3.792,-3.8361,-3.9431,-4.0571,-4.0995,-4.1106,-4.1187,-4.1502,-4.1736,-4.1844,-4.1663,-4.1424,-4.1166,-4.091,-4.1065,-4.1231,-4.1058,-4.0581,-4.0025,-3.9461,-3.892,-3.8392,-3.7906,-3.7048,-3.6334,-3.595,-3.5105,-3.4452,-3.416,-3.3415,-3.2816,-3.2527,-3.1854,-3.117,-3.0487,-3.0251,-3.002,-2.9761,-2.9988,-3.0178,-3.0299,-3.0479,-3.06,-3.0651,-3.0728,-3.077,-3.08,-3.0803,-3.0745,-3.0658,-3.0599,-3.0544,-3.0449,-3.0379,-3.0279,-3.0133,-3.0034,-2.9916,-2.9787,-2.971,-2.9598,-2.9482,0.0,0.0,0.0,0.0,0.0,0.0,0.0,0.0,0.0,0.0,0.0,0.0,0.0,0.0,0.0,0.0,0.0,0.0,0.0,0.0,0.0,0.0,-4.4219,-4.5181,-4.5192,-4.5112,-4.4324,-4.2795,-4.2718,-4.1918,-4.05,-4.0489,-4.0496,-4.0496,-4.0496,-4.0496,-4.0496,-4.0496,-4.0496,-4.0496,-4.0496,-4.0496,-4.0496,-4.0496,-4.0539,-4.0595,-4.0605,-4.064,-4.0584,-3.9932,0.0,0.0,0.0,0.0,-3.7447,-3.8066,-3.8889,-3.9761,-4.0632,-4.0996,-4.1069,-4.0953,-4.0779,-4.0528,-4.0183,-3.9948,-3.9637,-3.9173,-3.9606,-4.0035,-3.9941,-3.9032,-3.827,-3.8206,-3.7453,-3.6858,-3.6842,-3.6025,-3.5189,-3.4522,-3.4211,-3.3802,-3.309,-3.2436,-3.1989,-3.1837,-3.0665,-2.999,-3.0037,-2.9544,-2.9355,-2.9561,-2.9813,-3.0015,-3.0181,-3.0365,-3.0506,-3.0579,-3.0675,-3.0758,-3.08,-3.0808,-3.0769,-3.0712,-3.0644,-3.0589,-3.0511,-3.0442,-3.0355,-3.0221,-3.015,-3.0046,-2.9932,-2.9782,-2.9729,-2.9692,0.0,0.0,0.0,0.0,0.0,0.0,0.0,0.0,0.0,0.0,-3.7712,-3.8317,0.0,0.0,0.0,0.0,0.0,0.0,0.0,0.0,0.0,0.0,-4.411,-4.5091,-4.5192,-4.4467,-4.3661,-4.2795,-4.2106,-4.1337,-4.0491,-4.05,-4.0496,-4.0496,-4.0496,-4.0496,-4.0496,-4.0496,-4.0496,-4.0496,-4.0496,-4.0496,-4.0496,-4.0496,-4.0539,-4.0607,-4.0595,-4.0605,-4.0602,-4.0565,-3.9992,0.0,0.0,0.0,-3.81,-3.7475,-3.7959,-3.8868,-3.9741,-4.0527,-4.1085,-4.1015,-4.0839,-4.0456,-3.9542,-3.9106,-3.8597,-3.763,-3.791,-3.8276,-3.8095,-3.7264,-3.6538,-3.631,-3.6111,-3.5912,-3.575,-3.4968,-3.4365,-3.4257,-3.3568,-3.2771,-3.1985,-3.1864,-3.1311,-3.0062,-2.989,-2.9584,-2.9034,-2.9076,-2.9214,-2.9414,-2.9636,-2.9855,-3.0098,-3.0267,-3.0386,-3.0521,-3.0698,-3.0788,-3.0806,-3.08,-3.0808,-3.0772,-3.0712,-3.0648,-3.0585,-3.051,-3.0431,-3.0355,-3.0245,-3.0142,-3.0064,-2.9913,-2.9832,-2.9773,0.0,0.0,0.0,0.0,0.0,0.0,0.0,0.0,0.0,0.0,0.0,-3.8307,0.0,0.0,0.0,0.0,0.0,0.0,0.0,0.0,0.0,-4.1764,-4.2936,-4.3627,-4.3683,-4.3387,-4.2829,-4.202,-4.1753,-4.1186,-4.0388,-4.0463,-4.0511,-4.0496,-4.0496,-4.0496,-4.0496,-4.0496,-4.0496,-4.0535,-4.1027,-4.1239,-4.1277,-4.1758,-4.1986,-4.1944,-4.1486,-4.1335,-4.1261,-4.0795,-4.012,-3.938,-3.9044,0.0,0.0,0.0,-3.7766,-3.7904,-3.8827,-3.9355,-3.9632,-3.9568,-3.944,-3.9195,-3.8616,-3.8295,-3.7956,-3.73,-3.689,-3.6726,-3.692,-3.6505,-3.6075,-3.5893,-3.5356,-3.4907,-3.4727,-3.3967,-3.3385,-3.3318,-3.2593,-3.1975,-3.162,-3.0797,-3.0039,-2.9479,-2.9098,-2.8819,-2.8643,-2.8822,-2.9044,-2.9286,-2.9512,-2.9745,-2.9929,-3.0133,-3.0354,-3.0564,-3.0688,-3.0769,-3.0791,-3.0795,-3.0798,-3.0804,-3.0765,-3.0713,-3.0653,-3.0591,-3.053,-3.0431,-3.0305,-3.0214,-3.015,-3.0053,-2.9959,-2.9849,0.0,0.0,0.0,0.0,0.0,0.0,0.0,0.0,0.0,0.0,0.0,0.0,0.0,0.0,0.0,0.0,0.0,0.0,0.0,0.0,0.0,-4.1177,-4.1999,-4.2469,-4.2503,-4.2411,-4.2025,-4.1397,-4.1304,-4.0911,-4.0307,-4.0424,-4.0471,-4.05,-4.0489,-4.0496,-4.0496,-4.0496,-4.0504,-4.0608,-4.1466,-4.1832,-4.1928,-4.2775,-4.3094,-4.3017,-4.2414,-4.2056,-4.1775,-4.1145,-4.0381,-3.9674,-3.9522,-3.8432,0.0,0.0,0.0,-3.7254,-3.7968,-3.832,-3.8481,-3.8434,-3.8365,-3.819,-3.7752,-3.7513,-3.724,-3.6723,-3.5919,-3.5423,-3.5739,-3.5581,-3.5377,-3.5214,-3.4506,-3.392,-3.3793,-3.3179,-3.2602,-3.2306,-3.1762,-3.1235,-3.0847,-2.9733,-2.9018,-2.8897,-2.8447,-2.8264,-2.8419,-2.865,-2.8893,-2.9145,-2.9411,-2.9626,-2.9803,-3.0087,-3.0329,-3.0573,-3.0637,-3.0712,-3.0784,-3.0781,-3.08,-3.0792,-3.0796,-3.0769,-3.0685,-3.063,-3.0577,-3.0505,-3.0369,-3.0299,-3.0233,-3.0161,-3.0061,-2.9972,0.0,0.0,0.0,0.0,0.0,0.0,0.0,0.0,0.0,0.0,0.0,0.0,-4.0002,-4.0106,-4.0046,-3.9911,0.0,0.0,0.0,0.0,0.0,-4.1101,-4.1877,0.0,-4.2503,-4.1754,-4.139,-4.1397,-4.0644,-4.0272,-4.0307,-4.037,-4.0441,-4.051,-4.0492,-4.0496,-4.0496,-4.0496,-4.0531,-4.0665,-4.1551,-4.1898,-4.1975,-4.2784,-4.3107,-4.3085,-4.3047,-4.2508,-4.1805,-4.1832,-4.1262,-4.0403,-3.9648,-3.882,-3.7986,0.0,0.0,0.0,-3.7242,-3.7864,-3.8495,-3.8507,-3.8403,-3.8059,-3.7163,-3.674,-3.626,-3.5239,-3.4764,-3.4479,-3.4191,-3.3962,-3.3743,-3.3564,-3.3273,-3.3019,-3.2893,-3.2659,-3.2224,-3.1466,-3.123,-3.0552,-2.908,-2.8917,-2.8594,-2.7853,-2.8042,-2.8196,-2.8227,-2.8536,-2.8791,-2.9003,-2.9278,-2.9541,-2.9808,-3.0123,-3.038,-3.0509,-3.0572,-3.0637,-3.0709,-3.0763,-3.0799,-3.0799,-3.0803,-3.0759,-3.0681,-3.0632,-3.0595,-3.0582,-3.0455,-3.0389,-3.038,-3.0233,-3.0178,-3.0157,0.0,0.0,0.0,0.0,0.0,0.0,0.0,0.0,0.0,0.0,0.0,0.0,0.0,-4.0057,-4.0005,-3.9911,-3.9867,0.0,0.0,0.0,0.0,-4.0207,-4.0472,-4.0669,-4.0779,-4.0528,-4.0431,-4.0496,-4.03,-4.0215,-4.0234,-3.9781,-3.9574,-3.9635,-4.0234,-4.0496,-4.0496,-4.0496,-4.0539,-4.0723,-4.211,-4.2668,-4.2822,-4.4237,-4.4743,-4.4624,-4.4066,-4.3662,-4.3239,-4.2197,-4.162,-4.1224,-4.0422,-3.9583,-3.8659,-3.7351,-3.6627,-3.6274,-3.635,-3.6621,-3.6893,-3.6903,-3.6833,-3.6642,-3.6237,-3.5996,-3.5691,-3.5145,-3.486,-3.4448,-3.3645,-3.3596,-3.3633,-3.3382,-3.2799,-3.2276,-3.2012,-3.1455,-3.0951,-3.0574,-2.9988,-2.9416,-2.8839,-2.8318,-2.7899,-2.7647,-2.7792,-2.795,-2.8126,-2.8367,-2.8625,-2.887,-2.9127,-2.9443,-2.9799,-3.0049,-3.0254,-3.0444,-3.0554,-3.0642,-3.0703,-3.0769,-3.0809,-3.0794,-3.08,-3.0782,-3.0759,-3.0695,-3.0639,-3.0595,-3.0554,-3.0476,-3.0389,-3.0343,-3.0266,-3.0178,0.0,0.0,0.0,0.0,0.0,0.0,0.0,0.0,0.0,-3.8898,0.0,0.0,0.0,0.0,-3.9965,-3.9859,-3.98,-3.9743,-3.9696,-3.9672,-3.9672,-3.9715,-3.9715,-3.972,-3.977,-3.9826,-3.99,-3.9965,-4.0077,-4.0014,-3.9748,-3.9297,-3.8918,-3.8692,-3.9338,-3.9808,-4.0112,-4.04,-4.0546,-4.0745,-4.2441,-4.3123,-4.3324,-4.5032,-4.5673,-4.5554,-4.494,-4.4547,-4.4124,-4.3008,-4.2277,-4.17,-4.1174,-4.0015,-3.8612,-3.7345,-3.6406,-3.5784,-3.5847,-3.5916,-3.5966,-3.5995,-3.5949,-3.5864,-3.5764,-3.5634,-3.5464,-3.5224,-3.4786,-3.4226,-3.3417,-3.3159,-3.2955,-3.2653,-3.2014,-3.1464,-3.1193,-3.0656,-3.0139,-2.9767,-2.9181,-2.8681,-2.8419,-2.7853,-2.7526,-2.7602,-2.7657,-2.7821,-2.8056,-2.8291,-2.8562,-2.8917,-2.916,-2.9463,-2.9799,-2.9996,-3.0199,-3.0374,-3.05,-3.0597,-3.0669,-3.0742,-3.0788,-3.0803,-3.0797,-3.0799,-3.0809,-3.0756,-3.0692,-3.0635,-3.0603,-3.0554,-3.0471,-3.0436,-3.0355,-3.0253,0.0,0.0,0.0,0.0,0.0,0.0,0.0,0.0,-3.9012,-3.8947,0.0,0.0,0.0,0.0,0.0,-3.9804,-3.9746,-3.9693,-3.9693,-3.9645,-3.9633,-3.9693,0.0,0.0,-3.9689,-3.9758,-3.9826,-3.99,-3.9965,-3.9611,-3.8899,-3.8946,-3.8532,-3.7761,-3.7832,-3.8374,-3.9315,-4.0131,-4.0523,-4.0749,-4.2505,-4.3195,-4.3378,-4.5059,-4.5695,-4.5693,-4.5631,-4.5056,-4.4335,-4.4316,-4.3201,-4.1827,-4.1769,-4.0042,-3.7885,-3.7158,-3.6355,-3.5747,0.0,0.0,0.0,-3.5972,-3.5948,-3.5877,-3.5824,-3.5711,-3.5535,-3.5315,-3.4496,-3.3714,-3.3392,-3.247,-3.1633,-3.1216,-3.0885,-3.0632,-3.049,-3.028,-2.9845,-2.9072,-2.8844,-2.8454,-2.7672,-2.7542,-2.7526,-2.7602,-2.7657,-2.7792,-2.8,-2.8246,-2.865,-2.9178,-2.9382,-2.9589,-2.9799,-2.9991,-3.015,-3.0292,-3.0425,-3.0535,-3.0606,-3.0669,-3.0733,-3.0799,-3.0803,-3.08,-3.081,-3.0801,-3.075,-3.0703,-3.0635,-3.0579,-3.0552,-3.0496,-3.0428,-3.0359,0.0,0.0,0.0,0.0,0.0,0.0,0.0,-3.9651,-3.9785,0.0,0.0,0.0,-3.9996,-3.9903,-3.9823,-3.9734,-3.9717,-3.9681,-3.9633,-3.962,-3.962,-3.9633,-3.9633,-3.9638,-3.9698,-3.9722,-3.9762,-3.9826,-3.99,-3.9547,-3.8812,-3.8299,-3.7619,-3.6869,-3.6929,-3.7452,-3.8355,-3.925,-4.0003,-4.0749,-4.2505,-4.3195,-4.3378,-4.5059,-4.5695,-4.5693,-4.5631,-4.546,-4.5143,-4.4512,-4.3581,-4.2439,-4.1187,-3.9895,-3.8715,-3.7931,-3.7165,-3.6468,-3.5946,0.0,0.0,0.0,0.0,0.0,-3.5873,-3.5814,-3.5523,-3.4748,-3.4282,-3.3582,-3.2131,-3.1514,-3.0958,-3.0113,-3.0094,-3.0115,-2.9875,-2.9265,-2.8706,-2.8397,-2.8138,-2.7917,-2.7689,-2.7554,-2.7526,0.0,-2.7657,-2.7792,-2.8,-2.834,-2.87,-2.9033,-2.9238,-2.9482,-2.9719,-2.9885,-3.0057,-3.0221,-3.0367,-3.0485,-3.0608,-3.0622,-3.0665,-3.0726,-3.0778,-3.0805,-3.08,-3.0793,-3.0785,-3.0769,-3.0698,-3.0296,-2.9722,-2.9662,-2.9593,-2.9511,0.0,0.0,0.0,0.0,0.0,0.0,-3.9867,-4.0077,-4.0077,0.0,0.0,0.0,-3.9914,-3.9815,-3.9743,-3.9705,-3.9669,-3.9633,-3.9571,-3.9558,-3.9558,-3.952,-3.9527,-3.9583,-3.962,-3.9669,-3.971,-3.9762,-3.9823,-3.9294,-3.8209,-3.7804,-3.7023,-3.5967,-3.6004,-3.6719,-3.7932,-3.847,-3.9449,-4.0749,-4.2505,-4.3229,-4.3419,-4.5109,-4.5727,-4.5679,-4.5657,-4.5631,-4.5528,-4.4975,-4.3969,-4.2665,-4.0933,-3.9827,-3.9077,-3.863,-3.7713,-3.6764,-3.6367,-3.6064,-3.5862,-3.5882,0.0,0.0,-3.5908,-3.5864,-3.5554,-3.4589,-3.4007,-3.3229,-3.171,-3.1009,-3.0454,-2.9784,-2.9777,-2.9734,-2.9365,-2.8799,-2.8393,-2.8232,-2.8063,-2.7918,-2.7879,-2.778,-2.7721,-2.7766,-2.7763,-2.7706,-2.7628,-2.7617,-2.7894,-2.8491,-2.8696,-2.9078,-2.9645,-2.9825,-2.9988,-3.0166,-3.0292,-3.0425,-3.0554,-3.0593,-3.0641,-3.0709,-3.0745,-3.078,-3.0767,-3.0409,-3.0266,-3.0256,-3.0209,-2.9663,-2.889,-2.881,-2.8984,-2.9241,0.0,0.0,0.0,0.0,0.0,0.0,-3.9606,-3.9989,-4.0057,0.0,-4.007,-4.0065,-3.9955,-3.995,-3.9967,-3.9957,-3.982,-3.9702,-3.9626,-3.9551,-3.9457,-3.9405,-3.9457,-3.9495,-3.9495,-3.962,-3.9681,-3.9693,-3.9773,-3.8983,-3.7389,-3.7469,-3.6682,-3.5191,-3.5204,-3.6222,-3.7901,-3.7901,-3.8945,-4.0749,-4.2389,-4.3146,-4.3472,-4.5042,-4.5661,-4.57,-4.5698,-4.5648,-4.5566,-4.5302,-4.4172,-4.2611,-4.0916,-3.9862,-3.9235,-3.9204,-3.8183,-3.7038,-3.6917,-3.6406,-3.5912,-3.5888,-3.589,0.0,-3.5898,-3.5907,-3.5613,-3.4589,-3.3704,-3.2796,-3.1692,-3.0796,-3.0176,-2.9988,-2.9836,-2.9551,-2.9037,-2.8773,-2.8601,-2.8484,-2.8393,-2.8286,-2.8182,-2.8067,-2.8025,-2.8025,-2.7833,-2.755,-2.7136,-2.6609,-2.672,-2.764,-2.7956,-2.8537,-2.9467,-2.9744,-2.9962,-3.0102,-3.0239,-3.0355,-3.0493,-3.0554,-3.0633,-3.0685,-3.0706,-3.073,-3.071,-2.9866,-2.9491,-2.9501,-2.9398,-2.8823,-2.805,-2.7992,-2.8484,-2.9162,-3.4676,0.0,0.0,0.0,0.0,0.0,-3.8795,-3.9515,-3.9933,-3.9922,-4.0484,-4.0863,-4.0774,-4.1286,-4.1619,-4.1561,-4.089,-4.0476,-4.0463,-3.9812,-3.9418,-3.9405,-3.9418,-3.9444,-3.9495,-3.952,-3.9583,-3.9693,-3.9698,-3.8901,-3.7308,-3.7389,-3.6596,-3.5129,-3.5168,-3.6222,-3.7901,-3.7901,-3.8945,-4.0691,-4.1733,-4.2606,-4.3414,-4.4378,-4.5159,-4.57,-4.5698,-4.5648,-4.5385,-4.3902,-4.3158,-4.2537,-4.0854,-4.0212,-3.9942,-3.9319,-3.8949,-3.8433,-3.7102,-3.6712,-3.6547,-3.5958,-3.5862,0.0,-3.5892,-3.5896,-3.5445,-3.3868,-3.3382,-3.2755,-3.1096,-3.0597,-3.0392,-3.0247,-3.011,-2.9856,-2.9373,-2.9134,-2.8959,-2.8899,-2.8676,-2.8525,-2.85,-2.8335,-2.8246,-2.8246,-2.7611,-2.7248,-2.7252,-2.6638,-2.6453,-2.6822,-2.7656,-2.8274,-2.8633,-2.9426,-2.991,-3.0102,-3.019,-3.0279,-3.0427,-3.0499,-3.0554,-3.0629,-3.0678,-3.0709,-3.0667,-2.9847,-2.9525,-2.9508,-2.8816,-2.7975,-2.7143,-2.714,-2.7646,-2.8332,-3.4572,-3.4655,0.0,0.0,0.0,0.0,0.0,-3.9318,-3.9848,-3.99,-4.0602,-4.1213,-4.1512,-4.187,-4.2051,-4.1965,-4.1544,-4.1266,-4.1203,-4.041,-3.9922,-3.9895,-3.9512,-3.9315,-3.9354,-3.9431,-3.9495,-3.9596,0.0,0.0,-3.726,-3.7316,-3.6509,-3.503,-3.5519,-3.6528,-3.7888,-3.8303,-3.9315,-4.0691,-4.1559,-4.247,-4.3395,-4.4225,-4.5039,-4.57,-4.5703,-4.5351,-4.465,-4.2887,-4.223,-4.1934,-4.0683,-4.0301,-4.0213,-3.982,-3.944,-3.8888,-3.7688,-3.7109,-3.6665,-3.5936,-3.5779,0.0,0.0,-3.5903,-3.5538,-3.4258,-3.3644,-3.2932,-3.1607,-3.0944,-3.0576,-3.0481,-3.0372,-3.019,-2.9889,-2.9588,-2.9346,-2.9225,-2.9045,-2.8909,-2.8797,-2.8682,-2.8556,-2.8458,-2.7367,-2.6736,-2.6808,-2.5779,-2.5463,-2.6029,-2.6984,-2.7772,-2.8344,-2.9314,-2.9868,-3.0002,-3.0106,-3.0194,-3.0305,-3.0402,-3.0485,-3.0544,-3.0614,-3.0674,-3.0647,-2.9829,-2.9268,-2.8825,-2.7987,-2.7097,-2.6293,-2.6291,-2.6807,-2.7568,-3.4484,-3.4602,-3.4873,0.0,0.0,0.0,0.0,0.0,-3.986,-4.0083,-4.0794,-4.1561,-4.2272,-4.2472,-4.25,-4.2393,-4.2202,-4.2039,-4.1949,-4.1156,-4.0681,-4.0639,-3.9863,-3.9444,-3.9458,-3.9376,-3.9399,-3.9482,0.0,0.0,0.0,0.0,-3.6751,-3.542,-3.6207,-3.7106,-3.8104,-3.8788,-3.9677,-4.0653,-4.1366,-4.2219,-4.3131,-4.3827,-4.4578,-4.5214,-4.5198,-4.466,-4.3713,-4.2218,-4.1618,-4.1361,-4.0559,-4.0301,-4.0291,-4.0299,-3.9837,-3.9142,-3.8205,-3.7502,-3.6787,-3.5886,-3.5679,-3.5702,0.0,0.0,0.0,-3.4841,-3.3981,-3.3124,-3.2255,-3.1349,-3.0701,-3.0658,-3.0587,-3.05,-3.0364,-3.0077,-2.9775,-2.9523,-2.9425,-2.9304,-2.9138,-2.9014,-2.8893,-2.8712,-2.7379,-2.6584,-2.6595,-2.5307,-2.4942,-2.5721,-2.6654,-2.7522,-2.8288,-2.9287,-2.9816,-2.9904,-3.0003,-3.0104,-3.0202,-3.033,-3.0414,-3.0495,-3.0564,-3.0633,-3.0623,-2.9805,-2.907,-2.8348,-2.7381,-2.6462,-2.5708,-2.571,-2.6328,-2.7233,-3.4461,-3.4517,-3.4588,-3.4808,0.0,0.0,0.0,0.0,-3.9995,-4.0762,-4.1512,-4.2309,-4.3162,-4.3769,-4.413,-4.4116,-4.3295,-4.2779,-4.275,-4.1946,-4.1475,-4.146,-4.0694,-4.0295,-4.0351,-3.9602,-3.9269,-3.9418,0.0,0.0,0.0,0.0,-3.7929,-3.7134,-3.7338,-3.8012,-3.8965,-3.9057,-3.9677,-4.0614,-4.071,-4.1312,-4.2164,-4.226,-4.2795,-4.348,-4.3412,-4.325,-4.2917,-4.2007,-4.1618,-4.1361,-4.0559,-4.0301,-4.0301,-4.0291,-4.0233,-3.9818,-3.8257,-3.7805,-3.742,-3.5894,-3.5577,-3.5626,-3.5713,0.0,-3.5581,-3.4778,0.0,-3.3059,-3.224,0.0,0.0,-3.0786,-3.0726,-3.0652,-3.0579,-3.0476,-3.0263,-2.9885,-2.9732,-2.9617,-2.9531,-2.9307,-2.9134,-2.9044,-2.8109,-2.7562,-2.7636,-2.6796,-2.6418,-2.6648,-2.7516,-2.807,-2.8288,-2.9242,-2.9774,-2.9904,-2.9916,-3.0026,-3.0199,-3.0292,-3.0356,-3.0427,-3.0559,-3.0591,-3.0544,-2.9742,-2.9384,-2.9207,-2.7626,-2.6465,-2.5698,-2.5709,-2.67,-2.8072,-3.4351,-3.445,-3.4517,-3.4561,0.0,0.0,0.0,0.0,-4.0745,-4.1519,-4.236,-4.3136,-4.39,-4.4219,-4.4373,-4.4285,-4.3894,-4.3595,-4.3488,-4.2715,-4.2205,-4.2125,-4.143,-4.1048,-4.1078,-4.03,-3.9946,-4.0034,-3.9557,0.0,0.0,0.0,-3.8007,-3.7373,-3.801,-3.8547,-3.9011,-3.9606,-4.0134,-4.0598,-4.06,-4.0887,-4.1351,-4.1816,-4.2498,-4.3137,-4.2595,-4.2319,-4.2064,-4.124,-4.0881,-4.074,-4.0349,-3.9881,-3.9481,-3.9433,-3.9099,-3.8487,-3.7339,-3.7075,-3.6818,-3.5722,-3.5463,-3.549,-3.5574,-3.5643,-3.5602,-3.5294,0.0,0.0,0.0,0.0,0.0,0.0,-3.0789,-3.0744,-3.0723,-3.0662,-3.0494,-3.0177,-3.004,-2.9918,-2.9737,-2.954,-2.939,-2.9278,-2.8432,-2.7935,-2.7975,-2.7161,-2.6739,-2.6799,-2.7677,-2.8202,-2.8288,-2.9223,-2.9755,-2.9842,-2.9883,-2.998,-3.0147,-3.0199,-3.0279,-3.0348,-3.0433,-3.053,-3.0576,-3.028,-2.9868,-2.9389,-2.8714,-2.7941,-2.7207,-2.7203,-2.764,-2.8324,-3.4221,-3.4351,-3.4536,-3.4813,-3.6096,0.0,0.0,-3.9611,-4.1224,-4.1983,-4.2822,-4.3613,-4.4318,-4.4373,-4.43,-4.4199,-4.4153,-4.4058,-4.3897,-4.3328,-4.2947,-4.2865,-4.2171,-4.1776,-4.1776,-4.0848,-4.0383,-4.0425,-3.9611,0.0,0.0,0.0,0.0,-3.7996,-3.8763,-3.9154,-3.9309,-4.0049,-4.0455,-4.058,-4.0593,-4.0539,-4.0526,-4.1351,-4.2008,-4.2382,-4.1523,-4.1115,-4.0856,-4.0004,-3.9647,0.0,-3.9528,-3.9071,-3.8537,-3.849,-3.8061,-3.7423,-3.6658,-3.6447,-3.6262,-3.5507,-3.5335,-3.5372,-3.5438,-3.5509,-3.5564,-3.5635,-3.5018,0.0,0.0,0.0,-3.1781,-3.0941,0.0,-3.0799,-3.0805,-3.0755,-3.0636,-3.0404,-3.0272,-3.0114,-2.9907,-2.9736,-2.9608,-2.9522,-2.8871,-2.8494,-2.8505,-2.7887,-2.7525,-2.7546,-2.823,-2.8614,-2.8662,-2.9345,-2.9736,-2.9808,-2.9849,-2.994,-3.0061,-3.0135,-3.02,-3.0273,-3.0371,-3.0469,-3.0583,-3.064,-3.0314,-2.9766,-2.9834,-2.9503,-2.8921,-2.8476,-2.8433,-2.8714,-3.4099,-3.4209,-3.4601,-3.5577,-3.6454,-3.7565,-3.927,-4.0247,-4.1098,-4.1892,-4.2701,-4.3517,-4.4303,-4.4285,-4.4199,-4.4199,-4.4026,-4.3915,-4.3897,-4.3816,-4.3767,-4.3767,-4.292,-4.2477,-4.2477,-4.0966,-4.0196,-4.0196,-3.9538,0.0,0.0,0.0,0.0,-3.9625,-3.9788,-3.9958,-4.0167,-4.0271,-4.0375,-4.0504,-4.0559,-4.0172,-3.9636,-4.0507,-4.0771,-4.0575,-3.9765,-3.9357,-3.9054,-3.8241,-3.7898,0.0,0.0,0.0,-3.7642,-3.7642,-3.7623,-3.7414,-3.6539,-3.631,-3.611,-3.5306,-3.5157,-3.5215,-3.53,-3.5364,-3.5429,-3.5483,-3.4869,-3.4069,-3.3346,-3.2554,-3.1746,-3.0934,-3.0807,0.0,0.0,-3.08,-3.075,-3.0611,-3.0359,-3.0163,-3.0109,-2.991,-2.9794,-2.9799,-2.958,-2.9474,-2.9551,-2.9397,-2.9348,-2.9418,-2.9513,-2.956,-2.956,-2.9655,-2.9738,-2.9808,-2.9808,-2.9866,-3.0014,-3.0072,-3.013,-3.0199,-3.033,-3.0444,-3.0514,-3.0572,-3.0622,-3.0662,-3.0728,-3.0747,-3.0525,-2.8904,-2.8787,-2.9461,-3.4074,-3.4612,-3.5169,-3.5589,-3.6414,-3.7771,-4.0046,-4.1079,-4.1879,-4.2701,-4.3479,-4.4055,-4.4252,-4.4229,-4.4153,-4.4011,-4.3947,-4.3849,-4.3718,-4.3684,-4.3651,-4.36,-4.3358,-4.3227,-4.3227,-4.2255,-4.1487,-4.1063,-4.0273,-3.9654,0.0,0.0,0.0,-3.9642,-3.977,-3.9943,-4.0147,-4.0252,-4.0349,-4.0399,-3.9976,-3.9335,-3.8721,-3.9617,-3.9535,-3.8916,-3.8646,-3.8445,0.0,-3.7992,-3.7813,-3.7688,-3.7642,-3.7224,-3.6739,-3.6692,-3.6283,0.0,0.0,0.0,-3.5399,-3.5158,-3.5127,-3.5134,-3.5155,-3.5223,-3.5297,-3.5355,-3.5226,-3.4685,-3.3313,-3.2918,-3.233,-3.096,-3.0733,-3.0753,0.0,-3.0801,-3.078,-3.0689,-3.0511,-3.0373,-3.0311,-3.0159,-3.0034,-2.9951,-2.978,-2.9692,-2.9683,-2.9588,-2.9521,-2.9502,-2.9578,-2.9598,-2.9598,-2.9673,-2.9701,-2.9726,-2.9771,-2.9841,-2.994,-3.0053,-3.0147,-3.0192,-3.0292,-3.0377,-3.0439,-3.0549,-3.0637,-3.0706,-3.077,-3.0808,-3.0721,-3.0169,-3.0156,-3.0428,-3.4367,-3.4981,-3.5521,-3.5944,-3.7038,-3.849,-4.0439,-4.1413,-4.221,-4.3011,-4.3839,-4.4285,-4.4199,-4.4138,-4.4042,-4.3897,-4.3832,-4.3751,-4.3599,-4.3565,-4.3566,-4.3496,-4.3531,-4.3565,-4.3565,-4.284,-4.2126,-4.1428,-4.0607,-3.9861,0.0,0.0,0.0,-3.9185,-3.929,-3.9294,-3.9222,-3.9327,-3.9433,-3.9476,-3.9094,-3.8466,-3.7806,-3.8353,-3.8375,-3.8067,0.0,-3.7541,-3.7386,-3.7071,-3.6886,-3.6775,-3.6719,-3.6283,-3.579,-3.5751,-3.5344,-3.4917,-3.4945,-3.4955,0.0,-3.502,-3.5057,0.0,-3.5063,-3.5126,-3.5185,-3.5246,-3.533,-3.489,-3.3262,-3.304,-3.2556,-3.0921,-3.0665,-3.07,0.0,-3.0798,-3.0774,-3.0749,-3.0643,-3.0534,-3.0444,-3.0343,-3.0219,-3.0087,-2.9964,-2.9868,-2.9773,-3.0001,-3.0096,-3.0029,-3.0358,-3.0517,-3.0488,-3.0246,-3.0143,-3.016,-2.9913,-2.9842,-2.9899,-3.003,-3.0125,-3.0176,-3.026,-3.0342,-3.0406,-3.0521,-3.0617,-3.0707,-3.0755,-3.0774,-3.08,-3.0803,-3.0837,-3.0898,-3.4949,-3.5328,-3.5818,-3.6763,-3.8275,-3.9672,-4.0531,-4.1315,-4.2086,-4.2963,-4.3726,-4.4184,-4.4184,-4.4011,-4.3915,-4.3899,-4.3699,-4.3599,-4.3599,-4.3549,-4.3515,-4.3515,-4.3515,-4.3515,-4.3515,-4.2812,-4.2085,-4.1298,-4.0596,-3.988,0.0,0.0,-3.8989,-3.8402,-3.8433,-3.8126,-3.7605,-3.7677,-3.7753,-3.787,-3.7987,-3.7565,-3.6845,-3.6787,-3.7249,-3.7797,-3.6967,-3.6566,-3.6293,-3.5461,-3.5084,-3.4978,-3.4978,-3.4878,-3.4775,-3.4775,-3.4775,-3.4775,-3.4775,-3.4775,-3.4775,-3.4775,0.0,0.0,0.0,0.0,-3.5081,-3.5157,-3.5163,-3.4684,-3.316,-3.2865,-3.2347,-3.0844,-3.0591,-3.0649,-3.0786,-3.0807,-3.0801,-3.0793,-3.0784,-3.073,-3.0573,-3.0541,-3.0476,-3.0343,-3.0271,-3.0179,-3.0037,-3.0743,-3.1136,-3.1064,-3.1817,-3.2164,-3.2115,-3.1316,-3.0941,-3.0998,-3.0177,-2.9834,-2.9904,-3.0041,-3.0095,-3.011,-3.0233,-3.0343,-3.0416,-3.0472,-3.058,-3.0704,-3.0701,-3.0739,-3.0808,-3.0809,-3.0833,-3.0898,-3.5032,-3.6232,-3.7451,-3.8289,-3.8882,-3.9754,-4.1264,-4.167,-4.2296,-4.3707,-4.4069,-4.4169,-4.407,-4.3961,-4.3883,-4.3837,-4.3684,-4.3582,-4.3513,-4.3515,-4.3515,-4.3515,-4.3515,-4.3515,-4.3515,-4.3311,-4.2588,-4.1298,-4.1108,-4.0367,-3.911,0.0,0.0,-3.8305,-3.7819,-3.7614,-3.7605,-3.7677,-3.7455,-3.7094,-3.7115,-3.669,-3.5936,0.0,-3.5148,-3.525,-3.5019,-3.4449,-3.3743,-3.3525,-3.3353,-3.3236,-3.3236,-3.3149,-3.3051,-3.3051,-3.3051,-3.3051,-3.3051,-3.3052,-3.3052,-3.3052,-3.3061,-3.3222,0.0,0.0,0.0,0.0,0.0,0.0,-3.2943,-3.2339,-3.1665,-3.0623,-3.0528,-3.0628,-3.0717,-3.0778,-3.0791,-3.0801,-3.1368,-3.1692,-3.1542,-3.2072,-3.2356,-3.2225,-3.2131,-3.2061,-3.1906,0.0,0.0,-3.2033,-3.2194,-3.2241,-3.2174,-3.1374,-3.096,-3.0913,-3.0159,-2.9808,-2.9834,-3.0026,-3.0095,-3.011,-3.0233,-3.0343,-3.041,-3.0471,-3.0554,-3.0622,-3.0681,-3.0737,-3.08,-3.0792,-3.0849,-3.0897,-3.5995,-3.727,-3.8432,-3.8919,-3.9092,-3.9616,-4.0994,-4.118,-4.1632,-4.2891,-4.3059,-4.3029,-4.2919,-4.2823,-4.2728,-4.2666,-4.2568,-4.2649,-4.2947,-4.2983,-4.313,-4.3478,-4.3515,-4.3515,-4.3515,-4.3515,-4.2774,-4.1298,-4.1298,-4.054,-3.9082,0.0,-3.7979,-3.7688,-3.7024,-3.6639,-3.651,-3.6604,-3.6511,-3.628,-3.628,-3.5821,0.0,-3.4587,-3.3892,-3.3205,-3.3205,-3.3025,-3.2797,-3.2797,-3.2722,-3.2608,-3.2608,-3.2503,-3.2397,-3.2397,-3.2397,-3.2397,-3.2397,-3.2399,-3.2391,-3.2391,-3.2372,-3.2477,-3.2959,-3.3127,-3.3324,0.0,-3.3636,-3.3126,0.0,-3.1863,-3.1392,-3.0574,-3.0534,-3.061,-3.0694,-3.0756,-3.0798,-3.0797,-3.1579,-3.2212,-3.2533,-3.292,-3.3098,-3.2995,-3.2891,-3.2802,0.0,0.0,-3.3063,-3.2967,-3.328,-3.3393,-3.3334,-3.2156,-3.1553,-3.1506,-3.0384,-2.9842,-2.9842,-3.0026,-3.0095,-3.011,-3.0233,-3.0343,-3.041,-3.046,-3.054,-3.0614,-3.0662,-3.0737,-3.0795,-3.0799,-3.0819,-3.0851,-3.732,-3.825,-3.891,-3.8983,-3.9031,-3.9347,-4.0104,-4.0327,-4.068,-4.1479,-4.159,-4.156,-4.1508,-4.1376,-4.1261,-4.1204,-4.1126,-4.1389,-4.2103,-4.2139,-4.2506,-4.3296,-4.3332,-4.3404,-4.3515,-4.3404,-4.2682,-4.1298,-4.1203,-4.0463,-3.9096,0.0,-3.7704,-3.6974,-3.6308,-3.5665,-3.5119,-3.5246,-3.5422,-3.5598,-3.5598,-3.5112,-3.4394,-3.4278,-3.3216,-3.1777,-3.1546,-3.1903,-3.2471,-3.2471,-3.2378,-3.2265,-3.2265,-3.218,-3.2084,-3.2084,-3.2075,-3.2075,-3.2075,-3.2068,-3.206,-3.206,-3.2005,-3.2015,-3.2202,-3.223,-3.2276,-3.245,-3.2471,-3.2216,0.0,0.0,-3.122,-3.0595,-3.053,-3.0607,-3.0682,-3.0765,-3.0807,-3.0793,-3.1562,0.0,-3.3161,-3.3317,-3.3358,-3.3276,-3.3253,0.0,0.0,0.0,-3.4075,-3.3892,-3.4566,-3.4832,-3.4668,0.0,-3.226,-3.2119,-3.0615,-2.9904,-2.9904,-3.0041,-3.0095,-3.011,-3.0233,-3.0343,-3.041,-3.0479,-3.054,-3.0618,-3.0672,-3.0737,-3.0801,-3.0793,-3.0798,-3.0819,-3.8276,-3.8655,-3.8851,-3.891,-3.8964,-3.9091,-3.9291,-3.9937,-4.068,-4.1479,-4.159,-4.156,-4.1508,-4.1376,-4.1261,-4.1204,-4.1126,-4.115,-4.1297,-4.1297,-4.168,-4.2488,-4.2506,-4.2818,-4.3496,-4.2904,-4.2161,-4.1298,-4.0692,-3.9977,-3.9165,-3.8443,-3.7729,-3.7051,-3.6319,-3.5704,-3.5193,-3.527,-3.5422,-3.5598,-3.5598,-3.5112,-3.4316,-3.3596,-3.2689,-3.1604,-3.0176,-3.0113,-3.0733,-3.0733,-3.0652,-3.0544,-3.054,-3.0475,-3.04,-3.0341,-3.0332,-3.0332,-3.0332,-3.0292,-3.0259,-3.0259,-3.0205,-3.0357,-3.1137,-3.1334,-3.1548,-3.2274,-3.1946,-3.1475,-3.1343,0.0,0.0,-3.0431,-3.0462,-3.0557,-3.0688,-3.0767,-3.0804,-3.0795,-3.1562,-3.2159,-3.231,-3.3551,-3.4307,-3.4187,-3.4718,-3.4732,0.0,0.0,-3.4964,0.0,-3.4971,0.0,0.0,0.0,-3.1986,-3.1223,-3.0332,-2.9904,-2.9904,-3.0041,-3.0095,-3.011,-3.0233,-3.0343,-3.041,-3.0463,-3.0559,-3.068,-3.0704,-3.0739,-3.0808,-3.0801,-3.0795,-3.0794,-3.8585,-3.8747,-3.8822,-3.8833,-3.8588,-3.8396,-3.8419,-3.8461,-3.8929,-4.0141,-3.9937,-3.9667,-3.96,-3.949,-3.9416,-3.9326,-3.9653,-4.0029,-4.0451,-4.0487,-4.0836,-4.1644,-4.168,-4.1881,-4.2298,-4.1963,-4.1435,-4.0729,-4.0385,-3.9861,-3.9178,-3.8443,-3.7985,-3.7743,-3.71,-3.6473,-3.5881,-3.5944,0.0,-3.5598,-3.5598,-3.4861,-3.3673,-3.3262,-3.2269,-3.0963,-2.966,-2.9404,-2.9613,-2.9154,-2.89,-2.8805,-2.8808,-2.9076,-2.9353,-2.9306,-2.9575,-2.9897,-2.9897,-2.9874,-2.9842,-2.9842,-2.9789,-2.9885,-3.0371,-3.0473,-3.0593,-3.1025,-3.0848,-3.0638,-3.0723,-3.0487,0.0,0.0,-3.0456,-3.0549,-3.0688,-3.0724,-3.076,-3.0801,-3.1165,-3.1601,-3.2056,-3.284,-3.3439,-3.3755,-3.408,-3.4066,0.0,0.0,0.0,0.0,0.0,0.0,0.0,0.0,0.0,-3.1087,-3.0299,-2.9926,-2.9951,-3.0057,-3.0117,-3.0161,-3.0266,-3.0336,-3.0419,-3.051,-3.0586,-3.0645,-3.0687,-3.0717,-3.0742,-3.0756,-3.0747,-3.076,-3.8658,-3.8603,-3.8519,-3.8549,-3.7987,-3.7535,-3.753,-3.706,-3.7151,-3.8414,-3.8042,-3.7625,-3.7549,-3.7493,-3.7437,-3.7366,-3.7868,-3.8554,-3.9378,-3.9433,-3.984,-4.0848,-4.0885,-4.099,-4.122,-4.107,-4.0723,-4.0196,-4.0059,-3.9718,0.0,-3.8663,-3.8421,-3.8445,-3.7858,0.0,0.0,0.0,-3.6217,-3.5578,-3.5405,-3.443,-3.3088,-3.2894,-3.1758,-3.0124,-2.9236,-2.8771,-2.8423,-2.7555,-2.742,-2.7624,-2.7596,-2.8037,-2.8533,-2.8461,-2.8881,-2.9385,-2.9385,-2.938,-2.9412,-2.9582,-2.9578,-2.9609,-2.9857,-2.9904,-2.9893,-2.9907,-2.9823,-2.9787,-2.9889,-2.9972,0.0,0.0,-3.0455,-3.053,-3.0661,-3.0688,-3.0723,-3.079,-3.0805,-3.1073,-3.1753,-3.1811,-3.2058,-3.2658,-3.2951,-3.3,-3.2767,0.0,0.0,0.0,0.0,-3.2557,-3.2262,0.0,-3.1195,-3.0953,-3.027,-2.9964,-3.0022,-3.0087,-3.0147,-3.0192,-3.026,-3.0355,-3.0433,-3.0554,-3.0604,-3.0606,-3.0665,-3.069,-3.0704,-3.0701,-3.0707,-3.0719,-3.8658,-3.8117,-3.7632,-3.7706,-3.7114,-3.6648,-3.6692,-3.6703,-3.6742,-3.6891,-3.6866,-3.679,-3.6716,-3.6702,-3.6675,-3.6607,-3.6611,-3.6983,-3.7848,-3.7845,-3.8527,-4.0117,-4.0188,-4.0542,-4.128,-4.0636,-4.0256,-4.0196,-3.9598,-3.9317,0.0,-3.9371,-3.9114,0.0,0.0,0.0,0.0,-3.6565,-3.6217,-3.554,-3.4737,-3.3884,-3.301,-3.2217,-3.0888,-2.9299,-2.8367,-2.7518,-2.6687,-2.577,-2.6449,-2.7682,-2.7624,-2.7653,-2.7695,-2.764,-2.766,-2.7714,-2.7714,-2.7684,-2.7815,-2.8534,-2.872,-2.893,-2.9717,-2.9904,-2.9893,-2.9907,-2.9372,-2.8927,-2.9022,-2.9078,-2.9397,0.0,0.0,-3.0525,-3.0597,-3.0658,-3.072,-3.0798,-3.0801,-3.0839,-3.0915,-3.0915,-3.094,-3.1017,-3.2365,-3.2827,0.0,0.0,0.0,-3.2883,0.0,-3.2321,-3.1501,-3.137,-3.0928,-3.0202,-3.0125,-3.0087,-3.0095,-3.0106,-3.0142,-3.0192,-3.026,-3.0367,-3.0504,-3.0579,-3.0597,-3.0604,-3.0606,-3.0645,-3.0704,-3.0707,-3.0703,-3.0697,-3.7943,-3.7327,-3.6776,-3.6824,-3.62,-3.5735,-3.5798,-3.5432,-3.5163,-3.52,-3.5659,-3.598,-3.5942,-3.589,-3.5869,-3.5843,-3.6219,-3.6616,-3.6957,-3.6948,-3.7446,-3.8615,-3.867,-3.9054,-3.9897,-3.9626,-3.9517,-3.9598,-3.9337,-3.9283,-3.9457,0.0,0.0,0.0,0.0,-3.7991,-3.7305,-3.6857,-3.6252,-3.552,-3.465,-3.3829,-3.301,-3.2121,-3.0762,-2.9187,-2.8275,-2.7393,-2.6526,-2.5586,-2.5677,-2.619,-2.6123,-2.6454,-2.6866,-2.6792,-2.7113,-2.7497,-2.7494,-2.7479,-2.754,-2.7862,-2.7941,-2.8028,-2.8384,-2.8468,-2.8457,-2.845,-2.8258,-2.8093,-2.8172,-2.8632,-2.9153,0.0,0.0,-3.053,-3.0593,-3.066,-3.0716,-3.0784,-3.0791,-3.0795,-3.08,-3.0808,-3.0799,-3.0799,-3.1352,-3.1518,0.0,0.0,0.0,-3.1405,0.0,-3.1061,-3.0686,-3.0616,-3.0415,-3.0095,-3.0095,-3.011,-3.0087,-2.9606,-2.914,-2.8779,-2.9382,-2.9677,-2.9764,-3.0307,-3.055,-3.0535,-3.0577,-3.0623,-3.0645,-3.0637,-3.0645,-3.0634,-3.7114,-3.6486,-3.5917,-3.5917,-3.5124,-3.4505,-3.4557,-3.3926,-3.3443,-3.3491,-3.4042,-3.4599,-3.5083,-3.5076,-3.505,-3.505,-3.5504,-3.5908,-3.6194,-3.6199,-3.655,-3.7359,-3.7396,-3.7808,-3.8693,-3.8711,-3.8892,-3.9256,-3.9283,-3.9367,0.0,0.0,0.0,0.0,-3.9138,-3.839,-3.7482,-3.6933,-3.6125,-3.5134,-3.4287,-3.3464,-3.2653,-3.1787,-3.0414,-2.8866,-2.8231,-2.7281,-2.6212,-2.5539,-2.5268,-2.5223,-2.516,-2.5545,-2.6009,-2.5964,-2.6343,-2.6792,-2.6783,-2.6802,-2.6859,-2.7087,-2.7144,-2.722,-2.7466,-2.7523,-2.7455,-2.7236,-2.7215,-2.7275,-2.7326,-2.7878,-2.8485,-2.9096,0.0,0.0,-3.0586,-3.0672,-3.0724,-3.0782,-3.0803,-3.081,-3.0801,-3.0793,-3.0807,-3.0804,-3.0739,-3.066,0.0,0.0,0.0,0.0,0.0,0.0,0.0,-3.0152,-3.0123,-3.0132,-2.9858,-2.9758,-2.9715,-2.8916,-2.8262,-2.7844,-2.8494,-2.8937,-2.9242,-2.986,-3.0272,-3.0505,-3.055,-3.0569,-3.0568,-3.0563,-3.0567,-3.0567,-3.6288,-3.561,-3.5023,-3.5023,-3.3802,-3.2835,-3.2835,-3.2258,-3.1831,-3.1831,-3.1849,-3.2462,-3.403,-3.4216,-3.4216,-3.4216,-3.4155,-3.4525,-3.5442,-3.5447,-3.5805,-3.6668,-3.6705,-3.7115,-3.7986,-3.8005,-3.8467,-3.9405,-3.9457,0.0,-3.9514,0.0,-3.9499,-3.8813,-3.8946,-3.8108,-3.6627,-3.6683,-3.5772,-3.4254,-3.3448,-3.2638,-3.1815,-3.0948,-2.9569,-2.8089,-2.8023,-2.6895,-2.5402,-2.5327,-2.5307,-2.5301,-2.5228,-2.516,-2.5126,-2.5107,-2.512,-2.5139,-2.5139,-2.5139,-2.533,-2.6122,-2.6313,-2.6541,-2.7397,-2.7606,-2.7366,-2.6581,-2.6403,-2.6434,-2.6496,-2.6581,-2.7184,-2.8928,0.0,0.0,-3.0576,-3.069,-3.0719,-3.0795,-3.0807,-3.081,-3.0801,-3.0793,-3.0807,-3.0804,-3.0737,0.0,0.0,0.0,0.0,-3.0398,-3.0402,0.0,-3.0188,-3.0207,-3.0194,-3.0185,-2.9338,-2.8911,-2.8891,-2.8084,-2.7757,-2.78,-2.7802,-2.8346,-2.9203,-2.9203,-2.972,-3.0504,-3.0504,-3.0504,-3.0504,-3.0504,-3.0504,-3.0504,-3.4692,-3.3935,-3.322,-3.2689,-3.2225,-3.1937,-3.2033,-3.1869,-3.1755,-3.1782,-3.1794,-3.1998,-3.2518,-3.3045,-3.3603,-3.4141,-3.4185,-3.4296,-3.4587,-3.4593,-3.4977,-3.5907,-3.5944,-3.636,-3.7225,-3.7784,-3.8252,-3.8571,0.0,0.0,0.0,-3.9034,-3.8705,-3.8031,-3.753,-3.7067,-3.6606,-3.5521,-3.4794,-3.426,-3.2851,-3.2125,-3.1803,-3.0927,-2.9555,-2.8102,-2.8089,-2.6962,-2.5468,-2.5395,-2.5346,-2.5293,-2.5278,-2.522,-2.5178,-2.5174,-2.5144,-2.5107,-2.5108,-2.5101,-2.5158,-2.5425,-2.5482,-2.5558,-2.5825,-2.5939,-2.5881,-2.5626,-2.5585,-2.5592,-2.566,-2.6177,-2.6992,-2.8193,-2.8902,0.0,-3.0575,-3.0691,-3.0717,-3.0788,-3.08,-3.0817,-3.0859,-3.0828,-3.0803,-3.0804,-3.0737,0.0,0.0,0.0,0.0,0.0,-3.0414,0.0,-3.0273,-3.0227,-2.9907,-2.9318,-2.9032,-2.8306,-2.7186,-2.6974,-2.6571,-2.6052,-2.6661,-2.7086,-2.7448,-2.8595,-2.924,-2.954,-3.0135,-3.0352,-3.0377,-3.0408,-3.0439,-3.0439,-3.3012,-3.2529,-3.2059,-3.1605,-3.131,-3.1154,-3.1235,-3.101,-3.0858,-3.0891,-3.0894,-3.1016,-3.1351,-3.1838,0.0,-3.3266,-3.3601,-3.3799,-3.3811,-3.4102,-3.4535,-3.5111,-3.5148,-3.5576,-3.6477,-3.6975,0.0,-3.7807,-3.8421,-3.8546,-3.8214,-3.8296,-3.7938,-3.7226,-3.6782,-3.6274,-3.5699,-3.4731,-3.3978,-3.332,-3.2304,-3.1715,-3.1398,-3.0831,-2.9575,-2.8101,-2.8102,-2.699,-2.5488,-2.5456,-2.5391,-2.5337,-2.5337,-2.5303,-2.5266,-2.5217,-2.5164,-2.5141,-2.5143,-2.5137,-2.5137,-2.5137,-2.5137,-2.5137,-2.5137,-2.5172,-2.5206,-2.5236,-2.5231,-2.5253,-2.5337,-2.6044,-2.6935,-2.7847,-2.8756,-2.9652,-3.0568,-3.0719,-3.0757,-3.0803,-3.0808,0.0,0.0,-3.0825,-3.0799,0.0,0.0,0.0,0.0,0.0,0.0,-3.0504,-3.0466,0.0,-3.0292,-2.9922,-2.9461,-2.8891,-2.8268,-2.7243,-2.595,-2.5987,-2.5717,-2.5231,-2.5789,-2.6209,-2.6584,-2.7633,-2.8419,-2.9052,-2.9595,-2.9998,-3.0267,-3.0311,-3.0311,-3.0311,-3.1434,-3.1415,-3.1421,0.0,-3.0879,0.0,-3.0424,-2.9848,-2.9407,-2.9417,-2.9411,-2.9729,-3.053,-3.0619,-3.0928,-3.1666,0.0,0.0,0.0,-3.3863,-3.4323,-3.4323,-3.4379,-3.4824,-3.5705,-3.5781,-3.628,-3.7212,-3.7345,-3.738,-3.7334,-3.7537,-3.7169,-3.6345,-3.6473,-3.5635,-3.4129,-3.4199,-3.3281,-3.1806,-3.1812,-3.1375,-3.0684,-3.0622,-2.9574,-2.8099,-2.8027,-2.6928,-2.5515,-2.5496,-2.5468,-2.5415,-2.5415,-2.5402,-2.5384,-2.5248,-2.5217,-2.5217,-2.5217,-2.5217,-2.5212,-2.5192,-2.5192,-2.5217,-2.5217,-2.5217,-2.5228,-2.5292,-2.5317,-2.5327,-2.5398,-2.612,-2.6993,-2.7864,-2.8791,-2.9703,-3.0583,-3.0769,-3.0802,-3.0799,0.0,0.0,0.0,-3.0803,-3.0796,0.0,0.0,0.0,0.0,0.0,-3.0563,-3.0504,-3.0499,-3.04,-3.0216,-2.941,-2.8913,-2.8701,-2.709,-2.5912,-2.5191,-2.5191,-2.5203,-2.5206,-2.5206,-2.5663,-2.642,-2.6477,-2.7416,-2.8823,-2.8945,-2.9442,-3.0105,-3.0173,-3.0197,-3.0197,0.0,0.0,-3.0496,-2.9935,-2.9698,-2.9612,-2.9649,-2.9512,-2.9431,-2.9471,-2.9491,-2.9547,-2.9752,-2.9781,-2.9876,-3.012,-3.1435,-3.2272,-3.2283,-3.303,-3.35,-3.3563,-3.4199,-3.4685,-3.4945,-3.562,-3.6411,-3.7356,-3.7379,-3.7137,-3.6643,-3.6752,-3.6018,-3.468,-3.4747,-3.4218,-3.3259,-3.265,-3.2203,-3.1818,-3.1227,-3.0863,-3.0628,-2.9965,-2.9029,-2.8019,-2.7346,-2.6443,-2.5576,-2.5524,-2.5483,-2.5476,-2.5476,-2.5433,-2.5395,-2.5365,-2.5313,-2.5283,-2.5287,-2.5282,-2.5257,-2.5217,-2.5247,-2.5287,-2.5283,-2.5313,-2.5351,-2.5375,-2.5388,-2.5404,-2.5464,-2.6192,-2.7066,-2.7928,-2.8864,-2.9775,-3.0653,-3.0784,-3.0792,0.0,-3.0859,-3.0857,-3.0807,-3.0806,-3.0798,0.0,0.0,0.0,0.0,-3.0595,-3.0569,-3.0504,-3.0455,-3.0065,-2.9321,-2.9098,-2.832,-2.6975,-2.5969,-2.5382,-2.5191,-2.5191,-2.5197,-2.5203,-2.5203,-2.5281,-2.5486,-2.6148,-2.6626,-2.7077,-2.8348,-2.8958,-2.9198,-2.9877,-3.0083,-3.0053,-2.9976,-2.9898,-2.9776,-2.9402,-2.9359,-2.9401,-2.9443,-2.9443,-2.9463,-2.9492,-2.9531,-2.956,-2.9589,-2.9589,-2.9626,-2.9682,-3.0778,-3.1458,-3.1497,-3.2285,-3.2935,-3.3371,-3.3836,-3.4302,-3.4728,-3.5234,-3.5778,-3.635,-3.6369,-3.5997,-3.5255,-3.5368,-3.4737,-3.355,-3.3615,-3.3201,-3.2413,-3.2019,-3.1659,-3.1305,-3.0889,-3.0694,-3.0607,-2.9778,-2.8906,-2.8028,-2.7167,-2.63,-2.5586,-2.556,-2.5538,-2.5494,-2.5494,-2.5483,-2.5441,-2.5441,-2.5395,-2.5341,-2.5351,-2.5346,-2.5341,-2.5293,-2.5317,-2.5351,-2.5355,-2.5373,-2.541,-2.5432,-2.5445,-2.5453,-2.549,-2.6566,-2.7592,-2.8073,-2.9243,-3.0265,-3.0728,-3.0792,-3.0811,-3.0838,-3.0859,-3.0832,-3.0799,-3.0792,-3.0782,-3.0756,-3.0717,0.0,-3.0597,-3.0568,-3.054,-3.0504,-3.0439,-2.9957,-2.9014,-2.8205,-2.7147,-2.5805,-2.5354,-2.5144,-2.5144,-2.5144,-2.5144,-2.5144,-2.5144,-2.5126,-2.5145,-2.5609,-2.5996,-2.6427,-2.7666,-2.84,-2.8848,-2.9671,-2.9943,-2.9918,-2.9315,-2.933,-2.9353,-2.9412,-2.9463,-2.9502,-2.954,-2.9522,-2.9522,-2.9541,-2.9589,-2.9655,-2.9701,-2.9728,-2.9735,-2.9799,-3.0312,-3.0667,-3.0725,-3.1534,-3.2353,-3.3097,-3.3269,-3.3676,-3.4422,-3.4519,-3.4613,-3.4729,-3.4791,-3.4443,-3.3738,-3.3856,-3.3485,-3.2699,-3.2777,-3.2369,-3.1623,-3.1698,-3.1324,-3.0707,-3.0701,-3.0636,-3.0426,-2.9605,-2.8755,-2.7898,-2.7023,-2.6232,-2.5607,-2.5607,-2.5553,-2.5512,-2.5512,-2.5528,-2.5525,-2.5525,-2.5479,-2.5436,-2.5427,-2.5423,-2.5419,-2.5423,-2.5423,-2.5412,-2.5414,-2.5422,-2.543,-2.5503,-2.5515,-2.5515,-2.5528,-2.6993,-2.8192,-2.8192,-2.9654,-3.0809,-3.0796,0.0,-3.0819,-3.0879,-3.0834,-3.0803,-3.0807,-3.0798,-3.0764,-3.0697,-3.0685,-3.0657,-3.0595,-3.0535,-3.0476,-3.0469,-3.0292,-2.967,-2.8612,-2.7014,-2.5831,-2.5101,-2.5095,-2.5101,-2.5101,-2.5095,-2.5076,-2.5076,-2.507,-2.5063,-2.5076,-2.5076,-2.5475,-2.6158,-2.7036,-2.7827,-2.8588,-2.9466,-2.9782,-2.9773,-2.9443,-2.9463,-2.9472,-2.9482,-2.9492,-2.955,-2.9655,-2.9664,-2.9692,-2.9755,-2.9764,-2.9773,-2.9782,-2.9771,-2.9799,-2.9808,-2.9895,-2.9961,-2.997,-3.0733,-3.1251,-3.1383,-3.2145,-3.2626,-3.2777,-3.2885,-3.2988,-3.3077,-3.3085,-3.3054,-3.2974,-3.305,-3.2628,-3.1814,-3.1929,-3.1536,-3.0796,-3.0862,-3.0804,-3.071,-3.0707,-3.0296,-2.9588,-2.8735,-2.786,-2.6984,-2.6111,-2.5703,-2.5603,-2.5603,-2.56,-2.5576,-2.5576,-2.5585,-2.5571,-2.5571,-2.5576,-2.5567,-2.5499,-2.5472,-2.5484,-2.548,-2.5484,-2.5476,-2.5476,-2.5483,-2.5509,-2.5567,-2.5577,-2.5578,-2.5578,-2.7024,-2.82,-2.82,-2.9668,-3.0793,-3.0794,0.0,-3.0798,-3.0814,-3.0819,-3.0798,-3.0793,-3.0747,-3.0716,-3.0704,-3.0642,-3.0617,-3.0607,-3.0476,-3.0411,-3.0421,-2.9632,-2.8434,-2.6829,-2.5806,-2.5222,-2.5108,-2.5101,-2.5101,-2.5101,-2.5031,-2.5018,-2.5018,-2.4954,-2.4921,-2.4938,-2.4938,-2.4967,-2.517,-2.6718,-2.7366,-2.7627,-2.9152,-2.9682,-2.9636,-2.9492,-2.956,-2.9617,-2.9617,-2.9645,-2.9673,-2.9737,-2.9746,-2.9792,-2.9861,-2.9851,-2.9868,-2.9891,-2.9918,-2.9926,-2.9959,-2.9959,-2.9959,-2.9959,-3.0251,-3.0622,-3.1092,-3.156,-3.2036,-3.2542,-3.2626,-3.268,-3.2747,-3.2747,-3.2553,-3.2148,-3.218,-3.178,-3.1017,-3.111,-3.096,-3.06,-3.0677,-3.071,-3.0669,-3.0227,-2.9833,-2.9355,-2.8016,-2.7259,-2.6792,-2.5957,-2.5624,-2.5619,-2.5643,-2.5622,-2.56,-2.5604,-2.5602,-2.5595,-2.5595,-2.559,-2.5595,-2.5551,-2.5557,-2.5554,-2.5544,-2.5544,-2.5554,-2.5551,-2.556,-2.5565,-2.5583,-2.5628,-2.5646,-2.5646,-2.7077,-2.8244,-2.8248,-2.9722,0.0,0.0,-3.0797,-3.0806,-3.0796,-3.0796,-3.0791,-3.0745,-3.0713,-3.0681,-3.0642,-3.0617,-3.0588,-3.054,-3.0453,-3.0173,-2.9652,-2.8759,-2.7663,-2.6365,-2.5475,-2.505,-2.505,-2.4965,-2.4945,-2.4945,-2.4905,-2.4898,-2.4898,-2.4865,-2.4844,-2.4849,-2.4853,-2.5088,-2.5566,-2.6749,-2.7448,-2.7939,-2.9158,-2.9551,-2.9491,-2.956,-2.9645,-2.9719,-2.9719,-2.9792,-2.9825,-2.9815,-2.9842,-2.9876,-2.9945,-2.9953,-2.9978,-3.0014,-3.0022,-3.0046,-3.0102,-3.011,-3.0117,-3.0113,-3.0026,-3.0261,-3.0923,-3.1009,-3.1386,-3.2129,-3.2147,-3.2163,-3.2249,-3.2249,-3.1937,-3.1332,-3.1368,-3.1061,-3.0525,-3.0588,-3.0628,-3.0607,-3.047,-3.0416,-3.036,-2.953,-2.9095,-2.8768,-2.7433,-2.6794,-2.6545,-2.5921,-2.5664,-2.5638,-2.5685,-2.5664,-2.5619,-2.5627,-2.5629,-2.5629,-2.5611,-2.563,-2.5617,-2.5604,-2.5601,-2.5601,-2.5601,-2.5601,-2.559,-2.5619,-2.5626,-2.5613,-2.5611,-2.5669,-2.5699,-2.5699,-2.7119,-2.8298,-2.83,0.0,0.0,0.0,-3.08,-3.0785,-3.0786,-3.0782,-3.0753,-3.0682,-3.0671,-3.0653,-3.0585,-3.0583,-3.0559,-3.0483,-3.0396,-2.9832,-2.8689,-2.7829,-2.6924,-2.6007,-2.5327,-2.4964,-2.4957,-2.4861,-2.4805,-2.4798,-2.4783,-2.4776,-2.4776,-2.4768,-2.4742,-2.4761,-2.4956,-2.5391,-2.6051,-2.6987,-2.7727,-2.8343,-2.9154,-2.9402,-2.9351,-2.9764,-2.979,-2.979,-2.979,-2.9842,-2.9885,-2.9899,-2.9948,-3.0014,-3.008,-3.0087,-3.0087,-3.0095,-3.0095,-3.0083,-3.0094,-3.0101,-3.013,-3.0194,-3.0174,-3.0178,-3.017,-3.0254,-3.0335,-3.0471,-3.0478,-3.051,-3.059,-3.059,-3.0587,-3.0576,-3.0641,-3.0646,-3.0598,-3.0664,-3.0688,-3.0632,-2.9849,-2.9524,-2.9515,-2.8642,-2.7857,-2.717,-2.7036,-2.6497,-2.5785,-2.5726,-2.5707,-2.5687,-2.5707,-2.5707,-2.5687,-2.5687,-2.5687,-2.5689,-2.5696,-2.5699,-2.5677,-2.5627,-2.5595,-2.5595,-2.5595,-2.5595,-2.5621,-2.5683,-2.5686,-2.569,-2.5683,-2.5694,-2.5699,-2.5699,-2.7129,-2.8299,-2.8298,0.0,0.0,-3.0804,-3.0804,-3.0777,-3.0712,-3.0701,-3.0683,-3.0618,-3.0617,-3.0586,-3.0506,-3.05,-3.0483,-3.0416,-3.0273,-2.9402,-2.7675,-2.6842,-2.598,-2.5105,-2.4976,-2.487,-2.4801,-2.4802,-2.4806,-2.4798,-2.4729,-2.4717,-2.4698,-2.4639,-2.4604,-2.4679,-2.5419,-2.5765,-2.5971,-2.7522,-2.8117,-2.8206,-2.9018,-2.9272,-2.9211,-2.9842,-2.9849,-2.9874,-2.9926,-2.9975,-3.0014,-3.0026,-3.0049,-3.0087,-3.0145,-3.0152,-3.0185,-3.0213,-3.0213,-3.0219,-3.0226,-3.0215,-3.0235,-3.026,-3.0298,-3.0292,-3.0228,-3.0292,-3.0348,-3.0359,-3.0402,-3.0444,-3.0466,-3.0458,-3.0509,-3.055,-3.0588,-3.0619,-3.0664,-3.0684,-3.0399,-2.9868,-2.9588,-2.9162,-2.8615,-2.7784,-2.7269,-2.6931,-2.6404,-2.5998,-2.571,-2.571,-2.5693,-2.5697,-2.5699,-2.5703,-2.5707,-2.5691,-2.5693,-2.5693,-2.5696,-2.5698,-2.5698,-2.5675,-2.5666,-2.5654,-2.5654,-2.5654,-2.5676,-2.5684,-2.5709,-2.5694,-2.5698,-2.5702,-2.5703,-2.5703,-2.6677,-2.7668,-2.8164,0.0,-3.0173,-3.0665,-3.0745,-3.0719,-3.0641,-3.0642,-3.061,-3.0544,-3.054,-3.0505,-3.0442,-3.0394,-3.0348,-3.0273,-2.9153,-2.821,-2.7513,-2.6102,-2.5222,-2.4882,-2.4805,-2.4768,-2.4746,-2.4703,-2.4645,-2.4613,-2.4588,-2.4555,-2.4512,-2.4495,-2.4776,-2.5307,-2.5578,-2.6265,-2.7222,-2.784,-2.8344,-2.8753,-2.9056,-2.91,-2.9021,-2.9897,-2.9956,-2.9988,-3.0019,-3.0091,-3.0135,-3.0138,-3.0152,-3.0173,-3.0221,-3.0221,-3.026,-3.0286,-3.0318,-3.0324,-3.0336,-3.0322,-3.0346,-3.0364,-3.0439,-3.0425,-3.0377,-3.0417,-3.0419,-3.0419,-3.0471,-3.051,-3.052,-3.0535,-3.0559,-3.0634,-3.064,-3.0669,-3.0699,-3.0727,-3.0257,-2.9413,-2.919,-2.8602,-2.7755,-2.6922,-2.658,-2.653,-2.5927,-2.5696,-2.5698,-2.5698,-2.5703,-2.5708,-2.5691,-2.5695,-2.5698,-2.57,-2.5702,-2.5702,-2.5703,-2.5703,-2.5703,-2.5702,-2.5703,-2.57,-2.5697,-2.5696,-2.5696,-2.5699,-2.5702,-2.5703,-2.5703,-2.5701,-2.5698,-2.5695,-2.6393,-2.7241,-2.8072,-2.8907,-2.9749,-3.0562,-3.0669,-3.0641,-3.0576,-3.0563,-3.0535,-3.0455,-3.0442,-3.0402,-3.0343,-3.0286,-3.0202,-3.0111,-2.8403,-2.7434,-2.741,-2.5687,-2.4749,-2.4704,-2.4684,-2.466,-2.4645,-2.4582,-2.4505,-2.4471,-2.4454,-2.4409,-2.4347,-2.4597,-2.5042,-2.5615,-2.6094,-2.6952,-2.7967,-2.818,-2.8588,-2.9033,-2.901,-2.894,-2.8846,-2.9916,-3.0106,-3.0101,-3.0101,-3.0166,-3.0195,-3.0195,-3.0266,-3.0292,-3.0292,-3.0305,-3.031,-3.031,-3.0348,-3.0396,-3.0392,-3.0398,-3.0419,-3.0491,-3.0549,-3.0568,-3.0509,-3.0505,-3.0496,-3.0496,-3.0506,-3.0534,-3.06,-3.06,-3.0621,-3.07,-3.0703,-3.0701,-3.0695,-3.0751,-3.0305,-2.9438,-2.8556,-2.7729,-2.6918,-2.6041,-2.5694,-2.5699,-2.5699,-2.5706,-2.5694,-2.5694,-2.5697,-2.57,-2.57,-2.5701,-2.5702,-2.5702,-2.5703,-2.5702,-2.5702,-2.5699,-2.5694,-2.5694,-2.569,-2.5692,-2.5703,-2.5703,-2.5703,-2.5703,-2.5701,-2.5699,-2.5694,-2.5706,-2.5697,-2.569,-2.6346,-2.7166,-2.804,-2.8852,-2.9664,-3.0478,-3.0582,-3.0572,-3.0514,-3.0504,-3.0447,-3.0316,-3.0292,-3.0273,-3.0195,-3.0145,-3.0049,-2.9897,-2.8253,-2.7277,-2.7204,-2.5587,-2.4642,-2.4503,-2.4564,-2.4564,-2.4503,-2.4429,-2.4403,-2.4394,-2.433,-2.4266,-2.4256,-2.5065,-2.5366,-2.5444,-2.7112,-2.779,-2.7882,-2.8606,-2.8905,-2.8893,-2.8822,-2.8761,-2.8694,-2.9261,-2.9772,-3.0187,-3.024,-3.026,-3.0299,-3.0336,-3.0354,-3.0383,-3.0425,-3.0442,-3.0433,-3.0444,-3.0455,-3.0471,-3.0462,-3.0501,-3.0573,-3.0636,-3.0649,-3.0661,-3.0641,-3.0593,-3.0585,-3.064,-3.0649,-3.0645,-3.0668,-3.0676,-3.0674,-3.0701,-3.0758,-3.0778,-3.074,-3.0146,-2.9433,-2.8604,-2.7735,-2.6866,-2.6072,-2.5804,-2.5692,-2.5696,-2.5696,-2.5697,-2.5699,-2.57,-2.5702,-2.5703,-2.5703,-2.5703,-2.5702,-2.57,-2.5697,-2.5694,-2.569,-2.5707,-2.5702,-2.5692,-2.5705,-2.5692,-2.5692,-2.5695,-2.5695,-2.5694,-2.5708,-2.5702,-2.5698,-2.5666,-2.563,-2.5634,-2.5823,-2.6252,-2.7087,-2.7928,-2.8753,-2.952,-3.0144,-3.049,-3.0367,-3.0355,-3.0324,-3.0246,-3.0185,-3.0161,-3.0128,-2.9972,-2.9866,-2.9823,-2.8677,-2.7735,-2.7145,-2.5957,-2.5013,-2.4366,-2.4472,-2.4472,-2.4366,-2.4294,-2.4247,-2.4199,-2.4749,-2.4966,-2.4951,-2.5745,-2.6377,-2.6868,-2.7389,-2.7894,-2.8385,-2.8609,-2.8662,-2.8607,-2.8612,-2.8549,-2.8484,-2.897,-2.9711,-3.0286,-3.0323,-3.0359,-3.0394,-3.0436,-3.0433,-3.046,-3.0491,-3.0525,-3.0535,-3.055,-3.0564,-3.0582,-3.058,-3.061,-3.0661,-3.0694,-3.0714,-3.0746,-3.0733,-3.0711,-3.069,-3.0703,-3.0736,-3.0733,-3.0743,-3.0736,-3.0731,-3.0747,-3.0782,-3.08,-3.0757,-2.9925,-2.9071,-2.8236,-2.7364,-2.6491,-2.5694,-2.5696,-2.5698,-2.57,-2.5701,-2.5702,-2.5702,-2.5703,-2.5703,-2.5702,-2.57,-2.5698,-2.5693,-2.5704,-2.5698,-2.5694,-2.5668,-2.5665,-2.5658,-2.5666,-2.5656,-2.5654,-2.5653,-2.5665,-2.5653,-2.5653,-2.5662,-2.5669,-2.5669,-2.563,-2.5586,-2.556,-2.5557,-2.5825,-2.6622,-2.7206,-2.7911,-2.8967,-2.9567,-2.9982,-3.0207,-3.0213,-3.0178,-3.0079,-3.0022,-2.9951,-2.992,-2.9773,-2.9664,-2.9645,-2.8679,-2.7911,-2.7428,-2.6161,-2.5214,-2.4668,-2.4413,-2.4266,-2.4228,-2.4143,-2.424,-2.4498,-2.4978,-2.5317,-2.5608,-2.6413,-2.6994,-2.7417,-2.7724,-2.8103,-2.8484,-2.8484,-2.8445,-2.8375,-2.8375,-2.8519,-2.8711,-2.8831,-2.9763,-3.0408,-3.0403,-3.0455,-3.05,-3.052,-3.0506,-3.0521,-3.0525,-3.0572,-3.0608,-3.0608,-3.0665,-3.0707,-3.0711,-3.0704,-3.071,-3.0709,-3.0764,-3.0796,-3.0806,-3.0808,-3.0772,-3.071,-3.0778,-3.0791,-3.0794,-3.0804,-3.0795,-3.0808,-3.0798,-3.0807,-3.0777,-2.9889,-2.9033,-2.8233,-2.73,-2.6423,-2.5701,-2.5701,-2.5701,-2.5701,-2.5702,-2.5703,-2.5703,-2.5702,-2.5699,-2.5693,-2.5692,-2.5744,-2.5791,-2.5715,-2.5747,-2.5783,-2.5638,-2.5609,-2.56,-2.56,-2.5598,-2.5596,-2.5593,-2.5583,-2.5589,-2.5593,-2.5598,-2.5583,-2.5583,-2.5596,-2.5564,-2.5492,-2.5485,-2.5731,-2.6452,-2.6631,-2.719,-2.8669,-2.8938,-2.9251,-3.0,-3.0072,-3.0014,-2.9891,-2.9806,-2.971,-2.956,-2.9511,-2.9443,-2.9382,-2.8484,-2.7957,-2.7872,-2.634,-2.5427,-2.5277,-2.4548,-2.4178,-2.4174,-2.4054,-2.4402,-2.5161,-2.5185,-2.5551,-2.6231,-2.7023,-2.734,-2.733,-2.8079,-2.8327,-2.8273,-2.8259,-2.8254,-2.8267,-2.8253,-2.8696,-2.9269,-2.8198,-2.9443,-3.0476,-3.0487,-3.054,-3.0577,-3.0582,-3.0613,-3.0653,-3.0661,-3.0661,-3.068,-3.0671,-3.0697,-3.0714,-3.0764,-3.0772,-3.0772,-3.0784,-3.0796,-3.0804,-3.0791,-3.0791,-3.0789,-3.0783,-3.0794,-3.0794,-3.0801,-3.0807,-3.0795,-3.0803,-3.0804,-3.0829,-3.0816,-2.9274,-2.8475,-2.8203,-2.6641,-2.5879,-2.5703,-2.5702,-2.5702,-2.5702,-2.5702,-2.57,-2.5697,-2.5694,-2.5708,-2.5701,-2.5708,-2.6119,-2.653,-2.5847,-2.6084,-2.6495,-2.5792,-2.5607,-2.5593,-2.5543,-2.5528,-2.5525,-2.5527,-2.552,-2.5538,-2.559,-2.5559,-2.5518,-2.5518,-2.5527,-2.5503,-2.5429,-2.5421,-2.5449,-2.5518,-2.6098,-2.6841,-2.7694,-2.8405,-2.9098,-2.9771,-2.9868,-2.9816,-2.9673,-2.9551,-2.9424,-2.9301,-2.9267,-2.9243,-2.9167,-2.886,-2.8372,-2.7686,-2.7248,-2.6672,-2.5911,-2.5684,-2.5269,-2.474,-2.4689,-2.5048,-2.5757,-2.6361,-2.67,-2.6856,-2.7669,-2.7969,-2.7919,-2.8097,-2.8126,-2.8053,-2.795,-2.8279,-2.8829,-2.877,-2.92,-2.9908,-2.8524,-2.9654,-3.0558,-3.0585,-3.061,-3.0649,-3.0657,-3.0676,-3.0713,-3.0733,-3.0743,-3.0755,-3.0748,-3.0756,-3.0752,-3.08,-3.0792,-3.0803,-3.0795,-3.0803,-3.0808,-3.085,-3.0814,-3.0795,-3.0795,-3.0833,-3.083,-3.0807,-3.083,-3.0834,-3.0798,-3.0408,-3.0253,-3.0195,-2.8457,-2.7676,-2.7597,-2.6268,-2.57,-2.5699,-2.5698,-2.5696,-2.5695,-2.5694,-2.5709,-2.5703,-2.5696,-2.5956,-2.627,-2.6271,-2.6814,-2.7398,-2.6943,-2.71,-2.7372,-2.6893,-2.674,-2.6745,-2.6699,-2.6672,-2.6644,-2.6631,-2.6335,-2.5929,-2.561,-2.5506,-2.5461,-2.5461,-2.5421,-2.5373,-2.5327,-2.5298,-2.5264,-2.5126,-2.5491,-2.6168,-2.7247,-2.7801,-2.8477,-2.9522,-2.9654,-2.9579,-2.9421,-2.9318,-2.9192,-2.9019,-2.9003,-2.8964,-2.887,-2.8755,-2.8488,-2.7997,-2.7543,-2.7047,-2.6483,-2.6065,-2.5831,-2.5758,-2.5427,-2.5659,-2.6394,-2.6757,-2.7076,-2.7408,-2.7784,-2.795,-2.7908,-2.7908,-2.7882,-2.783,-2.8122,-2.8463,-2.8852,-2.9125,-2.9687,-3.0385,-2.9187,-3.0013,-3.063,-3.0715,-3.0717,-3.0711,-3.0724,-3.073,-3.0742,-3.0789,-3.0796,-3.0804,-3.0791,-3.0804,-3.0799,-3.0796,-3.0819,-3.0824,-3.0814,-3.0817,-3.0819,-3.0879,-3.084,-3.08,-3.08,-3.0857,-3.0859,-3.0818,-3.0722,-3.0644,-3.0586,-2.9765,-2.9373,-2.9314,-2.7711,-2.7006,-2.6947,-2.6068,-2.5695,-2.569,-2.569,-2.5707,-2.5702,-2.5697,-2.569,-2.5683,-2.5671,-2.6208,-2.6912,-2.7054,-2.7637,-2.8278,-2.814,-2.8179,-2.8256,-2.8034,-2.7974,-2.798,-2.7975,-2.7914,-2.7874,-2.7874,-2.7318,-2.6605,-2.5995,-2.559,-2.5364,-2.536,-2.5313,-2.5257,-2.5171,-2.5179,-2.5115,-2.4987,-2.4961,-2.5496,-2.7032,-2.7253,-2.7805,-2.9276,-2.9412,-2.931,-2.9145,-2.9055,-2.894,-2.8761,-2.8737,-2.8675,-2.8562,-2.8497,-2.8401,-2.8327,-2.7629,-2.7184,-2.7036,-2.6353,-2.6303,-2.6845,-2.6259,-2.6361,-2.7026,-2.6901,-2.7165,-2.773,-2.7672,-2.7642,-2.7609,-2.7609,-2.7567,-2.7611,-2.8329,-2.8665,-2.8826,-2.9626,-3.0282,-3.0849,-2.9363,-3.0082,-3.0714,-3.0767,-3.0795,-3.0781,-3.0791,-3.0784,-3.0793,-3.0795,-3.0794,-3.0806,-3.0807,-3.0799,-3.0809,-3.0794,-3.0855,-3.0897,-3.0898,-3.0839,-3.0798,-3.0814,-3.0809,-3.0806,-3.0806,-3.0805,-3.0831,-3.0898,-3.0135,-2.9762,-2.974,-2.888,-2.8485,-2.8437,-2.7442,-2.7009,-2.6943,-2.6066,-2.5694,-2.5694,-2.5694,-2.5707,-2.5697,-2.5697,-2.5668,-2.5611,-2.56,-2.6132,-2.6938,-2.7674,-2.847,-2.9012,-2.8251,-2.85,-2.8902,-2.8136,-2.7899,-2.7898,-2.7848,-2.7775,-2.7729,-2.7729,-2.7586,-2.7434,-2.7332,-2.6226,-2.5228,-2.5225,-2.517,-2.5106,-2.5037,-2.5025,-2.4974,-2.4851,-2.483,-2.5356,-2.6837,-2.7035,-2.7597,-2.9079,-2.9044,-2.8893,-2.8858,-2.8737,-2.8637,-2.8562,-2.8484,-2.8419,-2.834,-2.8286,-2.8174,-2.8071,-2.795,-2.7795,-2.7587,-2.7444,-2.7385,-2.7475,-2.7265,-2.728,-2.7504,-2.749,-2.7467,-2.7465,-2.745,-2.7371,-2.7276,-2.7276,-2.726,-2.733,-2.7992,-2.8681,-2.9437,-3.0754,-3.1316,-3.1382,-3.0086,-3.0486,-3.0772,-3.0784,-3.0798,-3.0808,-3.0792,-3.0801,-3.0807,-3.0792,-3.0799,-3.0805,-3.0847,-3.0853,-3.0857,-3.0859,-3.0859,-3.0839,-3.0834,-3.0829,-3.0803,-3.0795,-3.0806,-3.0798,-3.0792,-3.0792,-3.0817,-3.0849,-2.9961,-2.9534,-2.9508,-2.8158,-2.7528,-2.7483,-2.6619,-2.6224,-2.618,-2.5811,-2.5632,-2.5648,-2.5648,-2.564,-2.565,-2.5641,-2.5627,-2.5665,-2.6116,-2.7078,-2.8197,-2.8576,-2.9245,-2.9849,-2.9467,-2.9552,-2.974,-2.934,-2.921,-2.918,-2.9149,-2.9091,-2.9037,-2.9037,-2.8613,-2.8191,-2.8112,-2.7205,-2.6267,-2.5844,-2.5349,-2.4966,-2.4907,-2.4851,-2.4805,-2.4707,-2.5035,-2.5663,-2.6693,-2.7211,-2.7871,-2.8851,-2.8767,-2.8625,-2.8574,-2.8484,-2.8393,-2.8286,-2.8205,-2.8136,-2.8035,-2.7965,-2.7879,-2.778,-2.778,-2.7707,-2.7539,-2.7494,-2.7434,-2.7324,-2.7261,-2.7308,-2.7481,-2.7371,-2.7293,-2.723,-2.7184,-2.7136,-2.7087,-2.7087,-2.7087,-2.7208,-2.8288,-2.936,-3.037,-3.0976,-3.121,-3.1151]},{"header":{"parameterUnit":"m.s-1","parameterCategory":1,"la1":30.6,"la2":28.766,"lo1":-90.7593,"lo2":-88.6598,"dy":0.0162,"dx":0.0183,"nx":116,"ny":114,"refTime":"2023-06-30T00:00:00:Z","depth":0,"parameterNumber":3,"parameterNumberName":"V-component_of_WINDS"},"data":[0.0,0.0,0.0,0.0,0.0,0.0,0.0,0.0,0.0,0.0,0.0,0.0,0.0,0.0,0.0,0.0,0.0,0.0,0.0,0.0,0.0,0.0,0.0,0.0,0.0,0.0,0.0,0.0,0.0,0.0,0.0,0.0,0.0,0.0,0.0,0.0,0.0,0.0,0.0,0.0,0.0,0.0,0.0,0.0,0.0,0.0,0.0,0.0,0.0,0.0,0.0,0.0,0.0,0.0,0.0,0.0,0.0,0.0,0.0,0.0,0.0,0.0,0.0,0.0,0.0,0.0,0.0,0.0,0.0,0.0,0.0,0.0,0.0,0.0,0.0,0.0,0.0,0.0,0.0,0.0,0.0,0.0,0.0,0.0,0.0,0.0,0.0,0.0,0.0,0.0,0.0,0.0,0.0,0.0,0.0,0.0,0.0,0.0,0.0,0.0,0.0,0.0,0.0,0.0,0.0,0.0,0.0,0.0,0.0,0.0,0.0,0.0,0.0,0.0,0.0,0.0,0.0,0.0,0.0,0.0,0.0,0.0,0.0,0.0,0.0,0.0,0.0,0.0,0.0,0.0,0.0,0.0,0.0,0.0,0.0,0.0,0.0,0.0,0.0,0.0,0.0,0.0,0.0,0.0,0.0,0.0,0.0,0.0,0.0,0.0,0.0,0.0,0.0,0.0,0.0,0.0,0.0,0.0,0.0,0.0,0.0,0.0,0.0,0.0,0.0,0.0,0.0,0.0,0.0,0.0,0.0,0.0,0.0,0.0,0.0,0.0,0.0,0.0,0.0,0.0,0.0,0.0,0.0,0.0,0.0,0.0,0.0,0.0,0.0,0.0,0.0,0.0,0.0,0.0,0.0,0.0,0.0,0.0,0.0,0.0,0.0,0.0,0.0,0.0,0.0,0.0,0.0,0.0,0.0,0.0,0.0,0.0,0.0,0.0,0.0,0.0,0.0,0.0,0.0,0.0,0.0,0.0,0.0,0.0,0.0,0.0,0.0,0.0,0.0,0.0,0.0,0.0,0.0,0.0,0.0,0.0,0.0,0.0,0.0,0.0,0.0,0.0,0.0,0.0,0.0,0.0,0.0,0.0,0.0,0.0,0.0,0.0,0.0,0.0,0.0,0.0,0.0,0.0,0.0,0.0,0.0,0.0,0.0,0.0,0.0,0.0,0.0,0.0,0.0,0.0,0.0,0.0,0.0,0.0,0.0,0.0,0.0,0.0,0.0,0.0,0.0,0.0,0.0,0.0,0.0,0.0,0.0,0.0,0.0,0.0,0.0,0.0,0.0,0.0,0.0,0.0,0.0,0.0,0.0,0.0,0.0,0.0,0.0,0.0,0.0,0.0,0.0,0.0,0.0,0.0,0.0,0.0,0.0,0.0,0.0,0.0,0.0,0.0,0.0,0.0,0.0,0.0,0.0,0.0,0.0,0.0,0.0,0.0,0.0,0.0,0.0,0.0,0.0,0.0,0.0,0.0,0.0,0.0,0.0,0.0,0.0,0.0,0.0,0.0,0.0,0.0,0.0,0.0,0.0,0.0,0.0,0.0,0.0,0.0,0.0,0.0,0.0,0.0,0.0,0.0,0.0,0.0,0.0,0.0,0.0,0.0,0.0,0.0,0.0,0.0,0.0,0.0,0.0,0.0,0.0,0.0,0.0,0.0,0.0,0.0,0.0,0.0,0.0,0.0,0.0,0.0,0.0,0.0,0.0,0.0,0.0,0.0,0.0,0.0,0.0,0.0,0.0,0.0,0.0,0.0,0.0,0.0,0.0,0.0,0.0,0.0,0.0,0.0,0.0,0.0,0.0,0.0,0.0,0.0,0.0,0.0,0.0,0.0,0.0,0.0,0.0,0.0,0.0,0.0,0.0,0.0,0.0,0.0,0.0,0.0,0.0,0.0,0.0,0.0,0.0,0.0,0.0,0.0,0.0,0.0,0.0,0.0,0.0,0.0,0.0,0.0,0.0,0.0,0.0,0.0,0.0,0.0,0.0,0.0,0.0,0.0,0.0,0.0,0.0,0.0,0.0,0.0,0.0,0.0,0.0,0.0,0.0,0.0,0.0,0.0,0.0,0.0,0.0,0.0,0.0,0.0,0.0,0.0,0.0,0.0,0.0,0.0,0.0,0.0,0.0,0.0,0.0,0.0,0.0,0.0,0.0,0.0,0.0,0.0,0.0,0.0,0.0,0.0,0.0,0.0,0.0,0.0,0.0,0.0,0.0,0.0,0.0,0.0,0.0,0.0,0.0,0.0,0.0,0.0,0.0,0.0,0.0,0.0,0.0,0.0,0.0,0.0,0.0,0.0,0.0,0.0,0.0,0.0,0.0,0.0,0.0,0.0,0.0,0.0,0.0,0.0,0.0,0.0,0.0,0.0,0.0,0.0,0.0,0.0,0.0,0.0,0.0,0.0,0.0,0.0,0.0,0.0,0.0,0.0,0.0,0.0,0.0,0.0,0.0,0.0,0.0,0.0,0.0,0.0,0.0,0.0,0.0,0.0,0.0,0.0,0.0,0.0,0.0,0.0,0.0,0.0,0.0,0.0,0.0,0.0,0.0,0.0,0.0,0.0,0.0,0.0,0.0,0.0,0.0,0.0,0.0,0.0,0.0,0.0,0.0,0.0,0.0,0.0,0.0,0.0,0.0,0.0,0.0,0.0,0.0,0.0,0.0,0.0,0.0,0.0,0.0,0.0,0.0,0.0,0.0,0.0,0.0,0.0,0.0,0.0,0.0,0.0,0.0,0.0,0.0,0.0,0.0,0.0,0.0,0.0,0.0,0.0,0.0,0.0,0.0,0.0,0.0,0.0,0.0,0.0,0.0,0.0,0.0,0.0,0.0,0.0,0.0,0.0,0.0,0.0,0.0,0.0,0.0,0.0,0.0,0.0,0.0,0.0,0.0,0.0,0.0,0.0,0.0,0.0,0.0,0.0,0.0,0.0,0.0,0.0,0.0,0.0,0.0,0.0,0.0,0.0,0.0,0.0,0.0,0.0,0.0,0.0,0.0,0.0,0.0,0.0,0.0,0.0,0.0,0.0,0.0,0.0,0.0,0.0,0.0,0.0,0.0,0.0,0.0,0.0,0.0,0.0,0.0,0.0,0.0,0.0,0.0,0.0,0.0,0.0,0.0,0.0,0.0,0.0,0.0,0.0,0.0,0.0,0.0,0.0,0.0,0.0,0.0,0.0,0.0,0.0,0.0,0.0,0.0,0.0,0.0,0.0,0.0,0.0,0.0,0.0,0.0,0.0,0.0,0.0,0.0,0.0,0.0,0.0,0.0,0.0,0.0,0.0,0.0,0.0,0.0,0.0,0.0,0.0,0.0,0.0,0.0,0.0,0.0,0.0,0.0,0.0,0.0,0.0,0.0,0.0,0.0,0.0,0.0,0.0,0.0,0.0,0.0,0.0,0.0,0.0,0.0,0.0,0.0,0.0,0.0,0.0,0.0,0.0,0.0,0.0,0.0,0.0,0.0,0.0,0.0,0.0,0.0,0.0,0.0,0.0,0.0,0.0,0.0,0.0,0.0,0.0,0.0,0.0,0.0,0.0,0.0,0.0,0.0,0.0,0.0,0.0,0.0,0.0,0.0,0.0,0.0,0.0,0.0,0.0,0.0,0.0,0.0,0.0,0.0,0.0,0.0,0.0,0.0,0.0,0.0,0.0,0.0,0.0,0.0,0.0,0.0,0.0,0.0,0.0,0.0,0.0,0.0,0.0,0.0,0.0,0.0,0.0,0.0,0.0,0.0,0.0,0.0,0.0,0.0,0.0,0.0,0.0,0.0,0.0,0.0,0.0,0.0,0.0,0.0,0.0,0.0,0.0,0.0,0.0,0.0,0.0,0.0,0.0,0.0,0.0,0.0,0.0,0.0,0.0,0.0,0.0,0.0,0.0,0.0,0.0,0.0,0.0,0.0,0.0,0.0,0.0,0.0,0.0,0.0,0.0,0.0,0.0,0.0,0.0,0.0,0.0,0.0,0.0,0.0,0.0,0.0,0.0,0.0,0.0,0.0,0.0,0.0,0.0,0.0,0.0,0.0,0.0,0.0,0.0,0.0,0.0,0.0,0.0,0.0,0.0,0.0,0.0,0.0,0.0,0.0,0.0,0.0,0.0,0.0,0.0,0.0,0.0,0.0,0.0,0.0,0.0,0.0,0.0,0.0,0.0,0.0,0.0,0.0,0.0,0.0,0.0,0.0,0.0,0.0,0.0,0.0,0.0,0.0,0.0,0.0,0.0,0.0,0.0,0.0,0.0,0.0,0.0,0.0,0.0,0.0,0.0,0.0,0.0,0.0,0.0,0.0,0.0,0.0,0.0,0.0,0.0,0.0,0.0,0.0,0.0,0.0,0.0,0.0,0.0,0.0,0.0,0.0,0.0,0.0,0.0,0.0,0.0,0.0,0.0,0.0,0.0,0.0,0.0,0.0,0.0,0.0,0.0,0.0,0.0,0.0,0.0,0.0,0.0,0.0,0.0,0.0,0.0,0.0,0.0,0.0,0.0,0.0,0.0,0.0,0.0,0.0,0.0,0.0,0.0,0.0,0.0,0.0,0.0,0.0,0.0,0.0,0.0,0.0,0.0,0.0,0.0,0.0,0.0,0.0,0.0,0.0,0.0,0.0,0.0,0.0,0.0,0.0,0.0,0.0,0.0,0.0,0.0,0.0,0.0,0.0,0.0,0.0,0.0,0.0,0.0,0.0,0.0,0.0,0.0,0.0,0.0,0.0,0.0,0.0,0.0,0.0,0.0,0.0,0.0,0.0,0.0,0.0,0.0,0.0,0.0,0.0,0.0,0.0,0.0,0.0,0.0,0.0,0.0,0.0,0.0,0.0,0.0,0.0,0.0,0.0,0.0,0.0,0.0,0.0,0.0,0.0,0.0,0.0,0.0,0.0,0.0,0.0,0.0,0.0,0.0,0.0,0.0,0.0,0.0,0.0,0.0,0.0,0.0,0.0,0.0,0.0,0.0,0.0,0.0,0.0,0.0,0.0,0.0,0.0,0.0,0.0,0.0,0.0,0.0,0.0,0.0,0.0,0.0,0.0,0.0,0.0,0.0,0.0,0.0,0.0,0.0,0.0,0.0,0.0,0.0,0.0,0.0,0.0,0.0,0.0,0.0,0.0,0.0,0.0,0.0,0.0,0.0,0.0,0.0,0.0,0.0,0.0,0.0,0.0,0.0,0.0,0.0,0.0,0.0,0.0,0.0,0.0,0.0,0.0,0.0,0.0,0.0,0.0,0.0,0.0,0.0,0.0,0.0,0.0,0.0,0.0,0.0,0.0,0.0,0.0,0.0,0.0,0.0,0.0,0.0,0.0,0.0,0.0,0.0,0.0,0.0,0.0,0.0,0.0,0.0,0.0,0.0,0.0,0.0,0.0,0.0,0.0,0.0,0.0,0.0,0.0,0.0,0.0,0.0,0.0,0.0,0.0,0.0,0.0,0.0,0.0,0.0,0.0,0.0,0.0,0.0,0.0,0.0,0.0,0.0,0.0,0.0,0.0,0.0,0.0,0.0,0.0,0.0,0.0,0.0,0.0,0.0,0.0,0.0,0.0,0.0,0.0,0.0,0.0,0.0,0.0,0.0,0.0,0.0,0.0,0.0,0.0,0.0,0.0,0.0,0.0,0.0,0.0,0.0,0.0,0.0,0.0,0.0,0.0,0.0,0.0,0.0,0.0,0.0,0.0,0.0,0.0,0.0,0.0,0.0,0.0,0.0,0.0,0.0,0.0,0.0,0.0,0.0,0.0,0.0,0.0,0.0,0.0,0.0,0.0,0.0,0.0,0.0,0.0,0.0,0.0,0.0,0.0,0.0,0.0,0.0,0.0,0.0,0.0,0.0,0.0,0.0,0.0,0.0,0.0,0.0,0.0,0.0,0.0,0.0,0.0,0.0,0.0,0.0,0.0,0.0,0.0,0.0,0.0,0.0,0.0,0.0,0.0,0.0,0.0,0.0,0.0,0.0,0.0,0.0,0.0,0.0,0.0,0.0,0.0,0.0,0.0,0.0,0.0,0.0,0.0,0.0,0.0,0.0,0.0,0.0,0.0,0.0,0.0,0.0,0.0,0.0,0.0,0.0,-1.2991,-1.3123,0.0,0.0,0.0,0.0,0.0,0.0,0.0,0.0,0.0,0.0,0.0,0.0,0.0,0.0,0.0,0.0,0.0,0.0,0.0,0.0,0.0,0.0,0.0,0.0,0.0,0.0,0.0,0.0,0.0,0.0,0.0,0.0,0.0,0.0,0.0,0.0,0.0,0.0,0.0,-1.253,-1.3538,-1.3868,-1.452,-1.5418,0.0,0.0,0.0,0.0,0.0,0.0,0.0,0.0,0.0,0.0,0.0,0.0,0.0,0.0,0.0,0.0,0.0,0.0,0.0,0.0,0.0,0.0,0.0,0.0,0.0,0.0,0.0,0.0,0.0,0.0,0.0,0.0,0.0,0.0,0.0,0.0,0.0,0.0,0.0,0.0,0.0,0.0,0.0,0.0,0.0,0.0,0.0,0.0,0.0,0.0,0.0,0.0,0.0,0.0,0.0,0.0,0.0,0.0,0.0,0.0,0.0,0.0,0.0,0.0,0.0,0.0,0.0,0.0,0.0,0.0,-1.3759,-1.3934,0.0,0.0,0.0,0.0,0.0,0.0,0.0,0.0,0.0,0.0,0.0,0.0,0.0,0.0,0.0,0.0,0.0,0.0,0.0,0.0,0.0,0.0,0.0,0.0,0.0,0.0,0.0,0.0,0.0,0.0,0.0,0.0,0.0,0.0,0.0,0.0,0.0,0.0,-1.2461,-1.3324,-1.4397,-1.4818,-1.5337,-1.5932,-1.6205,0.0,0.0,0.0,0.0,0.0,0.0,0.0,0.0,0.0,0.0,0.0,0.0,0.0,0.0,0.0,0.0,0.0,0.0,0.0,0.0,0.0,0.0,0.0,0.0,0.0,0.0,0.0,0.0,0.0,0.0,0.0,0.0,0.0,0.0,0.0,0.0,0.0,0.0,0.0,0.0,0.0,0.0,0.0,0.0,0.0,0.0,0.0,0.0,0.0,0.0,0.0,0.0,0.0,0.0,0.0,0.0,0.0,0.0,0.0,0.0,0.0,0.0,0.0,-1.2172,-1.2712,-1.2764,-1.3686,-1.4202,-1.4436,-1.4566,-1.4819,-1.5178,-1.5226,0.0,0.0,0.0,0.0,0.0,0.0,0.0,0.0,0.0,0.0,0.0,0.0,0.0,0.0,0.0,0.0,0.0,0.0,0.0,0.0,0.0,0.0,0.0,0.0,0.0,0.0,0.0,0.0,0.0,0.0,0.0,0.0,0.0,0.0,0.0,0.0,-1.2995,-1.378,-1.4396,-1.5087,-1.5906,-1.6759,-1.6911,-1.7414,-1.8148,0.0,0.0,0.0,0.0,0.0,0.0,0.0,0.0,0.0,0.0,0.0,0.0,0.0,0.0,0.0,0.0,0.0,0.0,0.0,0.0,0.0,0.0,0.0,0.0,0.0,0.0,0.0,0.0,0.0,0.0,0.0,0.0,0.0,0.0,0.0,0.0,0.0,0.0,0.0,0.0,0.0,-0.7483,-0.7439,0.0,0.0,0.0,0.0,0.0,0.0,0.0,0.0,0.0,0.0,0.0,0.0,0.0,-1.0143,-1.0143,-1.0874,-1.1252,-1.1305,-1.2598,-1.3229,-1.3229,-1.4351,-1.4885,-1.4974,-1.5722,0.0,-1.5826,-1.6038,0.0,0.0,0.0,0.0,0.0,0.0,0.0,0.0,0.0,0.0,0.0,0.0,0.0,0.0,0.0,0.0,0.0,0.0,0.0,0.0,0.0,0.0,0.0,0.0,0.0,0.0,0.0,0.0,0.0,0.0,0.0,0.0,0.0,0.0,0.0,0.0,-1.3262,-1.403,-1.4709,-1.5357,-1.6173,-1.7097,-1.7557,-1.8057,-1.8596,-1.8923,0.0,0.0,0.0,0.0,0.0,0.0,0.0,0.0,0.0,0.0,0.0,0.0,0.0,0.0,0.0,0.0,0.0,0.0,0.0,0.0,0.0,0.0,0.0,0.0,0.0,0.0,0.0,0.0,0.0,0.0,0.0,0.0,0.0,0.0,0.0,0.0,0.0,0.0,0.0,-0.7621,-0.7622,-0.7576,-0.7566,-0.76,0.0,0.0,0.0,0.0,0.0,0.0,0.0,0.0,0.0,-0.9269,-0.981,-1.0257,-1.0579,-1.1192,-1.1553,-1.1715,-1.2783,-1.3369,-1.3586,-1.4557,-1.5196,-1.5565,-1.6234,-1.6638,-1.6859,-1.6957,-1.7253,-1.7779,0.0,0.0,0.0,0.0,-2.0222,-2.0724,0.0,0.0,0.0,0.0,0.0,0.0,0.0,0.0,0.0,0.0,0.0,0.0,0.0,0.0,0.0,-0.9783,0.0,0.0,0.0,0.0,0.0,0.0,0.0,0.0,0.0,0.0,0.0,-1.2664,-1.333,-1.4058,-1.4762,-1.5314,-1.61,-1.7019,-1.7766,-1.8384,-1.8965,-1.9572,-1.9942,0.0,0.0,0.0,0.0,0.0,0.0,0.0,0.0,0.0,0.0,0.0,0.0,0.0,0.0,0.0,0.0,0.0,0.0,0.0,0.0,0.0,0.0,0.0,0.0,0.0,0.0,0.0,0.0,0.0,0.0,0.0,0.0,0.0,0.0,0.0,0.0,0.0,0.0,-0.7412,-0.7526,-0.7455,-0.7498,-0.7521,0.0,0.0,0.0,0.0,0.0,0.0,-0.8319,-0.8731,-0.9075,-0.9391,-0.9812,-1.0385,-1.0932,-1.1389,-1.1787,-1.2114,-1.2935,-1.3478,-1.3856,-1.4665,-1.5303,-1.5945,-1.6471,-1.7107,-1.7706,-1.7638,-1.7925,-1.8473,-1.8935,-1.9437,-1.9973,-2.037,-2.089,-2.1391,0.0,0.0,0.0,0.0,0.0,0.0,0.0,0.0,0.0,0.0,0.0,0.0,0.0,0.0,-0.8624,-0.9026,-0.9157,-0.9292,0.0,0.0,0.0,0.0,0.0,0.0,0.0,0.0,0.0,-1.2615,-1.3106,-1.3661,-1.434,-1.473,-1.5485,-1.6482,-1.7136,-1.8141,-1.9299,-2.0064,-2.0635,-2.1043,0.0,0.0,0.0,0.0,0.0,0.0,0.0,0.0,0.0,0.0,0.0,0.0,0.0,0.0,0.0,0.0,0.0,0.0,0.0,0.0,0.0,0.0,0.0,0.0,0.0,0.0,0.0,0.0,0.0,0.0,0.0,0.0,0.0,0.0,0.0,0.0,0.0,0.0,0.0,-0.7036,-0.7143,0.0,0.0,0.0,0.0,-0.7878,-0.827,-0.8462,-0.8472,-0.8934,-0.9287,-0.9552,-1.0043,-1.0515,-1.1059,-1.1455,-1.1841,-1.2382,-1.2989,-1.3635,-1.4169,-1.4767,-1.5303,-1.5945,-1.6471,-1.7213,-1.7996,-1.7977,-1.8303,-1.8781,-1.9026,-1.9437,-1.9997,-2.0827,-2.1493,-2.2085,0.0,0.0,0.0,0.0,0.0,0.0,0.0,0.0,0.0,0.0,0.0,0.0,0.0,-0.79,-0.8094,-0.8273,-0.8407,-0.8554,-0.8676,0.0,0.0,0.0,0.0,0.0,0.0,0.0,-1.1308,-1.1873,-1.25,-1.3199,-1.4003,-1.4841,-1.5753,-1.6762,-1.7492,-1.8453,-1.9499,-1.9767,-2.0427,-2.1305,-2.1488,-2.1842,0.0,0.0,0.0,0.0,0.0,0.0,0.0,0.0,0.0,0.0,0.0,0.0,0.0,0.0,0.0,0.0,0.0,0.0,0.0,0.0,0.0,0.0,0.0,0.0,0.0,0.0,0.0,0.0,0.0,0.0,0.0,0.0,0.0,0.0,0.0,0.0,0.0,-0.7109,-0.7237,0.0,-0.7319,-0.7543,-0.7783,-0.7936,-0.8229,-0.8471,-0.8628,-0.8882,-0.9239,-0.9727,-0.9892,-1.0417,-1.1404,-1.1514,-1.2005,-1.2713,-1.3098,-1.3689,-1.4493,-1.5083,-1.5636,-1.6208,-1.6723,-1.7239,-1.7675,-1.8067,-1.8766,-1.969,-2.0093,-2.0594,-2.1154,-2.1779,-2.228,-2.2719,0.0,0.0,0.0,0.0,0.0,0.0,0.0,0.0,0.0,0.0,0.0,-0.7361,-0.7282,-0.7382,-0.7511,-0.7661,-0.7835,-0.7953,-0.8004,0.0,0.0,0.0,-0.8636,0.0,0.0,-1.0236,-1.0799,-1.14,-1.1965,-1.2674,-1.3574,-1.4373,-1.5279,-1.6326,-1.7125,-1.8024,-1.8923,-1.9325,-2.0233,-2.1443,-2.1902,-2.2425,-2.2868,0.0,0.0,0.0,0.0,0.0,0.0,0.0,0.0,0.0,0.0,0.0,0.0,0.0,0.0,0.0,0.0,0.0,0.0,0.0,0.0,0.0,0.0,0.0,0.0,0.0,0.0,0.0,0.0,0.0,0.0,0.0,0.0,0.0,0.0,-0.6594,-0.6599,-0.6778,-0.6867,-0.6966,-0.7068,-0.733,-0.7539,-0.7694,-0.8135,-0.8461,-0.8621,-0.8828,-0.9158,-0.9761,-0.9816,-1.0335,-1.1476,-1.1476,-1.1927,-1.2821,-1.3088,-1.3673,-1.4515,-1.5094,-1.568,-1.6177,-1.6739,-1.7241,-1.7662,-1.82,-1.9047,-2.0054,-2.0365,-2.0919,-2.1512,-2.1951,-2.2406,-2.2921,0.0,0.0,0.0,0.0,0.0,0.0,0.0,0.0,0.0,0.0,-0.7,-0.6942,-0.6814,-0.6782,-0.6901,-0.7143,-0.7419,-0.7509,-0.7385,-0.7865,0.0,0.0,0.0,0.0,-0.9265,-0.9794,-1.0412,-1.117,-1.1511,-1.2158,-1.3097,-1.3318,-1.4029,-1.5169,-1.5963,-1.6776,-1.7606,-1.8779,-2.0105,-2.1473,-2.2337,-2.2961,-2.3407,0.0,0.0,0.0,0.0,0.0,0.0,0.0,0.0,0.0,0.0,0.0,0.0,0.0,0.0,0.0,0.0,0.0,0.0,0.0,0.0,0.0,0.0,0.0,0.0,0.0,0.0,0.0,0.0,0.0,0.0,0.0,0.0,0.0,-0.5812,-0.5721,-0.5687,-0.5942,-0.5994,-0.6097,-0.6392,-0.6864,-0.7165,-0.7217,-0.7988,-0.8472,-0.8472,-0.8754,-0.9144,-0.9746,-0.9801,-1.0268,-1.1283,-1.1283,-1.1709,-1.2591,-1.2848,-1.3464,-1.4333,-1.4847,-1.5405,-1.5941,-1.6493,-1.7143,-1.7938,-1.8459,-1.9105,-1.9755,-1.9827,-2.0313,-2.1029,-2.1318,-2.1891,-2.265,0.0,0.0,0.0,0.0,0.0,0.0,0.0,0.0,0.0,0.0,-0.6865,-0.6713,-0.6535,-0.6511,-0.6499,-0.6478,-0.667,-0.6801,-0.676,0.0,0.0,0.0,0.0,0.0,-0.8788,-0.9231,-0.9819,-1.062,-1.1007,-1.1736,-1.2822,-1.3714,-1.4716,-1.5858,-1.6677,-1.7436,-1.8201,-1.8916,-1.9926,-2.1124,-2.2042,-2.3084,-2.4055,0.0,0.0,0.0,0.0,0.0,0.0,0.0,0.0,0.0,0.0,0.0,0.0,0.0,0.0,0.0,0.0,0.0,0.0,0.0,0.0,0.0,0.0,0.0,0.0,0.0,0.0,0.0,0.0,0.0,0.0,0.0,-0.5232,-0.5147,-0.5617,-0.5617,-0.5636,-0.5687,-0.5961,-0.6167,-0.6266,-0.6659,-0.7009,-0.7165,-0.7605,-0.7971,-0.8181,-0.8448,-0.8874,-0.9409,-0.9462,-0.9969,-1.1072,-1.1072,-1.1614,-1.2591,-1.2848,-1.3464,-1.4327,-1.5044,-1.5538,-1.5881,-1.6625,-1.714,-1.7508,-1.8023,-1.8597,-1.9169,-2.007,-2.0797,-2.1365,-2.1796,-2.2366,-2.2943,0.0,0.0,0.0,0.0,0.0,0.0,0.0,0.0,0.0,0.0,-0.6723,-0.6517,-0.626,-0.6238,-0.6214,-0.6133,-0.6206,-0.6296,-0.6406,0.0,0.0,0.0,0.0,-0.7901,-0.8131,-0.8694,-0.9383,-1.0137,-1.0534,-1.1296,-1.2386,-1.3149,-1.4227,-1.5542,-1.632,-1.7225,-1.8157,-1.8957,-1.9907,-2.0992,-2.1917,-2.315,-2.4445,-2.459,-2.4942,-2.5259,-2.4375,-2.3563,-2.2703,-2.1409,0.0,0.0,0.0,0.0,0.0,0.0,0.0,0.0,0.0,0.0,0.0,0.0,0.0,0.0,0.0,0.0,0.0,0.0,0.0,0.0,0.0,0.0,0.0,0.0,-0.4616,-0.4534,-0.486,-0.5135,-0.5286,-0.5436,-0.5645,-0.5887,-0.609,-0.6398,-0.6675,-0.6931,-0.7244,-0.7592,-0.7858,-0.8171,-0.8643,-0.9276,-0.9276,-0.9815,-1.0874,-1.0874,-1.1392,-1.2365,-1.2722,-1.3268,-1.4017,-1.4911,-1.5458,-1.568,-1.6457,-1.7082,-1.7527,-1.8032,-1.8596,0.0,0.0,0.0,0.0,0.0,-2.2444,-2.2846,0.0,0.0,0.0,0.0,0.0,0.0,0.0,0.0,0.0,0.0,0.0,-0.6398,-0.604,-0.5997,-0.5995,-0.5965,-0.5927,-0.5997,0.0,0.0,0.0,-0.6779,-0.7016,-0.7295,-0.7568,-0.8299,-0.9019,-0.9766,-1.0174,-1.0897,-1.1908,-1.2254,-1.3233,-1.4752,-1.5544,-1.6551,-1.7753,-1.8902,-1.9992,-2.1032,-2.1921,-2.3185,-2.462,-2.4986,-2.5445,-2.5795,-2.5147,-2.4379,-2.3518,-2.2329,0.0,0.0,0.0,0.0,0.0,0.0,0.0,0.0,0.0,0.0,0.0,0.0,0.0,0.0,0.0,0.0,0.0,0.0,0.0,0.0,0.0,0.0,0.0,0.0,-0.3954,-0.3866,-0.3962,-0.4435,-0.4786,-0.509,-0.514,-0.534,-0.5842,-0.6083,-0.6295,-0.6497,-0.6906,-0.7282,-0.7549,-0.7863,0.0,0.0,0.0,-0.9717,-1.0681,-1.0654,-1.1106,-1.194,-1.2453,-1.2973,-1.3454,-1.4506,-1.5117,-1.5388,-1.6148,-1.6951,-1.7656,-1.8149,-1.8846,-1.96,-1.9861,-2.0243,-2.0792,-2.1692,-2.2212,-2.2441,0.0,0.0,0.0,0.0,0.0,0.0,0.0,0.0,0.0,-0.6757,-0.6666,-0.6496,-0.6046,-0.5997,-0.5934,-0.5761,-0.5787,-0.5901,0.0,0.0,-0.6578,-0.6788,-0.7199,-0.7623,-0.8038,-0.8317,-0.8844,-0.9638,-1.0044,-1.0776,-1.1834,-1.2701,-1.3703,-1.4826,-1.5958,-1.6871,-1.7702,-1.8712,-2.0021,-2.1415,-2.1879,-2.302,-2.4499,-2.4994,-2.5415,-2.5716,-2.5575,-2.495,-2.3959,-2.267,-2.1303,-1.9868,-1.8402,-1.6937,0.0,0.0,0.0,0.0,0.0,0.0,0.0,0.0,0.0,0.0,0.0,0.0,0.0,0.0,0.0,0.0,0.0,0.0,0.0,-0.3884,-0.3813,-0.3866,-0.3962,-0.4083,-0.4234,-0.4539,-0.4736,-0.4987,-0.534,-0.5761,-0.6075,-0.6123,-0.66,-0.7015,-0.7267,-0.7522,-0.8076,-0.8872,-0.8922,-0.9406,-1.047,-1.032,-1.0706,-1.1665,0.0,0.0,-1.2974,-1.3933,-1.4618,-1.5026,-1.5621,-1.6378,-1.7226,-1.7492,-1.8373,-1.9583,-2.0114,-2.0384,-2.0622,-2.1363,-2.1768,-2.2024,0.0,0.0,0.0,0.0,0.0,0.0,0.0,0.0,0.0,0.0,-0.6957,-0.6715,-0.6334,-0.6115,-0.5933,-0.5755,-0.582,0.0,0.0,-0.6312,-0.6541,-0.6731,-0.7041,-0.74,-0.7841,-0.8132,-0.8686,-0.9443,-0.999,-1.0754,-1.1778,-1.2533,-1.354,-1.4736,-1.5965,-1.7006,-1.7902,-1.8885,-2.0287,-2.187,-2.2075,-2.3102,-2.4596,-2.5295,-2.5788,-2.6092,-2.6016,-2.5412,-2.4397,-2.302,-2.1612,-2.016,-1.8479,-1.6957,-1.5463,0.0,0.0,0.0,0.0,0.0,0.0,0.0,0.0,0.0,0.0,0.0,0.0,0.0,0.0,-0.3673,-0.3448,0.0,-0.3036,-0.2992,-0.3007,-0.3038,-0.3127,-0.314,-0.3409,-0.4126,-0.4437,-0.4688,-0.4987,-0.534,-0.5691,-0.5992,-0.6242,-0.6642,-0.7188,-0.7341,-0.7806,-0.866,-0.8709,-0.9154,-1.0075,-0.9983,-1.0449,-1.1428,-1.182,-1.2272,-1.2825,-1.3767,-1.445,-1.4957,-1.5575,-1.633,-1.7159,-1.7822,-1.858,-1.9393,-1.9934,-2.0437,-2.0941,-2.1451,-2.1728,-2.1858,0.0,0.0,0.0,0.0,0.0,0.0,0.0,0.0,0.0,0.0,-0.7315,-0.6986,-0.6734,-0.6393,-0.6118,0.0,0.0,0.0,0.0,-0.6376,-0.6551,-0.6694,-0.6904,-0.7185,-0.7535,-0.801,-0.8599,-0.9361,-1.0022,-1.0833,-1.1749,-1.2348,-1.3378,-1.4748,-1.5964,-1.7139,-1.8247,-1.9212,-2.0624,-2.2229,-2.2362,-2.3336,-2.477,-2.5591,-2.6137,-2.6395,-2.63,-2.5738,-2.4825,-2.3365,-2.188,-2.0279,-1.8425,-1.6706,-1.5065,-1.3484,-1.217,0.0,0.0,0.0,0.0,0.0,0.0,0.0,0.0,-0.4968,-0.4391,-0.4076,-0.3494,-0.3004,-0.2734,-0.2511,-0.2305,-0.2076,-0.213,-0.2144,-0.2236,-0.229,-0.2657,-0.3595,-0.3962,-0.432,-0.4684,-0.4987,-0.534,-0.5792,-0.5942,-0.6292,-0.6989,-0.7138,-0.7572,-0.8401,-0.8542,-0.8989,-0.9744,-0.9751,-1.0237,-1.1242,-1.1652,-1.2129,-1.2682,-1.3619,-1.4288,-1.4783,-1.5665,-1.6453,-1.7176,-1.8181,-1.881,-1.9135,-1.9552,-2.0205,-2.0954,-2.145,-2.1669,-2.1807,0.0,0.0,0.0,0.0,0.0,0.0,0.0,0.0,0.0,0.0,0.0,0.0,0.0,0.0,0.0,0.0,0.0,0.0,-0.6468,-0.6691,-0.6812,-0.6706,-0.7175,-0.7504,-0.7676,-0.8135,-0.8774,-0.9568,-1.0248,-1.1027,-1.1896,-1.2738,-1.3814,-1.5092,-1.6371,-1.7496,-1.8519,-1.9582,-2.0913,-2.2324,-2.2697,-2.368,-2.5025,-2.5716,-2.6054,-2.6122,-2.613,-2.5862,-2.5301,-2.3764,-2.2017,-2.0159,-1.8228,-1.641,-1.4645,-1.2894,-1.1514,-1.0296,-0.9321,-0.8053,-0.6941,-0.659,-0.5833,-0.5085,0.0,-0.4257,-0.3587,-0.3136,-0.278,-0.2424,-0.2018,-0.1884,-0.1807,-0.1614,-0.1759,-0.1958,-0.2046,-0.2194,-0.2356,-0.2551,-0.305,-0.3615,-0.4381,-0.4686,-0.4987,-0.529,-0.5741,-0.6142,-0.6487,-0.6936,-0.7424,-0.7866,-0.8349,-0.8894,-0.9516,-0.9533,-1.0035,-1.102,-1.1291,-1.163,-1.2123,-1.3059,-1.3749,-1.4267,-1.5526,-1.6477,-1.713,-1.7622,-1.8175,-1.8767,-1.9019,-1.9362,-1.988,-2.0712,-2.1228,-2.1584,0.0,0.0,0.0,0.0,0.0,0.0,0.0,0.0,0.0,0.0,0.0,0.0,0.0,0.0,0.0,0.0,0.0,0.0,-0.696,-0.701,-0.7036,-0.7047,-0.7387,-0.7632,-0.7809,-0.8308,-0.8952,-0.9724,-1.0546,-1.1404,-1.2282,-1.3509,-1.454,-1.5454,-1.705,-1.8143,-1.888,-2.0306,-2.159,-2.271,-2.3325,-2.4233,-2.521,-2.5477,-2.5716,-2.596,-2.6231,-2.6129,0.0,-2.3955,-2.2189,-2.0277,-1.8006,-1.5957,-1.3996,-1.2,-1.0477,-0.9135,-0.7753,-0.6768,-0.6051,-0.5661,-0.5099,-0.4478,-0.4123,-0.363,-0.3048,-0.2601,-0.2153,-0.1749,-0.1436,-0.1256,-0.1124,-0.1044,-0.1136,-0.1231,-0.1242,-0.1427,-0.1677,-0.1923,-0.222,-0.2784,-0.3623,-0.4236,-0.4686,-0.4937,-0.5338,-0.5789,-0.6387,-0.6572,-0.6967,-0.7597,-0.7929,-0.836,-0.8955,-0.9242,-0.9779,-1.0612,-1.1072,-1.1548,-1.2043,-1.2973,-1.3814,-1.4612,-1.5464,-1.6125,-1.6686,-1.7069,-1.7545,-1.8077,-1.861,-1.8994,-1.9321,-2.0064,-2.0532,-2.0937,0.0,0.0,0.0,0.0,0.0,0.0,0.0,0.0,0.0,0.0,0.0,0.0,0.0,0.0,0.0,0.0,0.0,-0.7038,-0.7327,-0.7333,-0.7319,-0.7304,-0.7606,-0.7808,-0.7932,-0.8539,-0.9219,-0.9962,-1.1058,-1.2028,-1.2938,-1.4391,-1.5502,-1.631,-1.7987,-1.9081,-1.9735,-2.1248,-2.244,-2.334,-2.3962,-2.4679,-2.5413,-2.5391,-2.5592,-2.5916,-2.6046,-2.5985,-2.5528,-2.3879,-2.2086,-2.0126,-1.7629,-1.5319,-1.3063,-1.0914,-0.9084,-0.7446,-0.6001,-0.5362,-0.5014,-0.4601,-0.4164,-0.3719,-0.3318,-0.2825,-0.2376,-0.1973,-0.148,-0.1076,-0.0852,-0.0583,-0.0359,-0.0314,-0.0403,-0.0494,-0.0497,-0.0769,-0.1103,-0.134,-0.1635,-0.2047,-0.2718,-0.3533,-0.4236,-0.4533,-0.4887,-0.5388,-0.6037,-0.6232,-0.6599,-0.7271,-0.7494,-0.7878,-0.8464,-0.8951,-0.9563,-1.0294,-1.0939,-1.1472,-1.1929,-1.2908,-1.3831,-1.4729,-1.524,-1.5732,-1.6234,-1.6691,-1.7145,-1.7587,-1.8276,-1.8667,-1.8957,-1.9352,-1.9905,-2.0527,0.0,0.0,0.0,0.0,0.0,0.0,0.0,0.0,0.0,0.0,0.0,0.0,0.0,0.0,-0.7883,-0.7889,-0.7643,-0.7482,-0.7494,-0.7735,-0.7693,-0.7315,-0.7868,-0.8129,-0.801,-0.8773,-0.9587,-1.038,-1.1847,-1.304,-1.3998,-1.5393,-1.6691,-1.7899,-1.9245,-2.0353,-2.1314,-2.2389,-2.3406,-2.4262,-2.4426,-2.4975,-2.5682,-2.5619,-2.5789,-2.6018,-2.5376,0.0,-2.4974,-2.3357,-2.1536,-1.95,-1.7014,-1.4411,-1.1821,-0.968,-0.7254,-0.5097,-0.4231,-0.3768,-0.353,-0.3298,-0.2914,-0.2513,-0.2289,-0.1839,-0.1391,-0.1166,-0.0762,-0.0359,-0.009,0.0179,0.0448,0.0628,0.0269,0.0,0.0,-0.0416,-0.0751,-0.083,-0.1276,-0.1631,-0.1664,-0.2625,-0.3432,-0.3982,-0.4535,-0.4937,-0.524,-0.5888,-0.6455,-0.68,-0.7217,-0.7656,-0.8201,-0.8688,-0.9388,-1.0294,-1.0766,-1.1209,-1.1649,-1.2732,-1.3562,-1.4245,-1.4854,-1.5466,-1.6073,-1.6653,-1.7145,-1.7561,-1.7968,-1.8308,-1.8613,-1.858,-1.9469,-2.0705,0.0,0.0,0.0,0.0,0.0,0.0,0.0,0.0,0.0,0.0,0.0,0.0,0.0,0.0,0.0,0.0,-0.8055,-0.8002,-0.8103,-0.8109,-0.8085,-0.8045,-0.8522,-0.8836,-0.8923,-0.9861,-1.0721,-1.152,-1.2682,-1.3737,-1.4714,-1.6206,-1.7562,-1.8829,-2.0074,-2.1213,-2.2238,-2.3259,-2.398,-2.4475,-2.5056,-2.5507,-2.5809,-2.5698,-2.558,-2.5342,0.0,0.0,-2.425,-2.2425,-2.0464,-1.8328,-1.5503,-1.2849,-1.0107,-0.653,-0.4434,-0.3167,-0.2599,-0.2162,-0.1956,-0.2059,-0.182,-0.1525,-0.1256,-0.1076,-0.0762,-0.0224,0.0,0.0179,0.0403,0.059,0.0687,0.0733,0.0648,0.0515,0.0519,0.0094,-0.0238,-0.0245,-0.0736,-0.1138,-0.1311,-0.2322,-0.3078,-0.343,-0.378,-0.4282,-0.4887,-0.5229,-0.5648,-0.6228,-0.6758,-0.7241,-0.7713,-0.8512,-0.9152,-0.9662,-1.0569,-1.1361,-1.2093,-1.2829,-1.3432,-1.3823,-1.4509,-1.4952,-1.5328,-1.5903,-1.6373,-1.6768,-1.7446,-1.7912,-1.8237,-1.8441,-1.9137,-1.9972,0.0,0.0,0.0,0.0,0.0,0.0,0.0,0.0,0.0,0.0,0.0,0.0,0.0,0.0,0.0,0.0,0.0,-0.8348,-0.8395,-0.8407,-0.8436,-0.8502,-0.8965,-0.9371,-0.9621,-1.049,-1.1334,-1.2137,-1.3357,-1.4437,-1.5356,-1.7118,-1.8516,-1.9593,-2.1057,-2.2186,-2.3011,-2.4024,-2.4756,-2.5292,-2.5875,-2.6311,-2.6632,-2.6425,-2.5937,0.0,0.0,-2.3583,-2.2784,-2.1201,-1.929,-1.7034,-1.4013,-1.0568,-0.6986,-0.3523,-0.1894,-0.1163,-0.0687,-0.0456,-0.0425,-0.06,-0.0651,-0.0571,-0.031,-0.0222,-0.0044,0.0537,0.0762,0.0942,0.1076,0.1186,0.1295,0.1295,0.1176,0.1099,0.1107,0.0626,0.0291,0.0297,-0.0099,-0.0498,-0.0757,-0.1464,-0.217,-0.2725,-0.3177,-0.3731,-0.4332,-0.4617,-0.5088,-0.5845,-0.6306,-0.6789,-0.7356,-0.8201,-0.8944,-0.9517,-1.0421,-1.1272,-1.2024,-1.2609,-1.3071,-1.3381,-1.4126,-1.4556,-1.482,-1.538,-1.5774,-1.6146,-1.6794,-1.724,-1.7572,-1.7912,-1.8491,-1.9147,0.0,0.0,0.0,0.0,0.0,0.0,0.0,0.0,0.0,0.0,0.0,0.0,0.0,0.0,0.0,0.0,0.0,0.0,-0.8448,-0.8672,-0.8807,-0.8734,-0.9242,-0.9683,-1.004,-1.071,-1.1448,-1.2263,-1.3832,-1.5076,-1.6005,-1.8098,-1.9457,-2.0244,-2.2124,-2.3197,-2.3674,-2.4665,-2.5662,-2.6597,-2.6711,-2.7267,-2.7931,-2.7602,0.0,0.0,0.0,-2.2734,-2.0696,-1.9709,-1.7839,-1.5355,-1.2284,-0.7557,-0.2747,-0.0735,0.0274,0.0866,0.1447,0.1336,0.102,0.1001,0.063,0.0338,0.0604,0.0694,0.083,0.1115,0.1524,0.184,0.1842,0.2057,0.2226,0.2228,0.1889,0.1637,0.1619,0.118,0.0841,0.0857,0.0606,0.0354,0.0051,-0.0202,-0.0808,-0.1816,-0.2675,-0.3229,-0.3578,-0.4134,-0.4806,-0.5509,-0.5895,-0.639,-0.7051,-0.783,-0.8784,-0.9872,-1.0333,-1.0895,-1.1504,-1.2058,-1.2526,-1.2936,-1.3731,-1.4266,-1.4621,-1.5016,-1.5401,-1.5701,-1.6053,-1.6405,-1.6752,-1.7065,-1.7616,-1.8318,0.0,0.0,0.0,0.0,0.0,0.0,0.0,0.0,0.0,0.0,0.0,0.0,0.0,0.0,0.0,0.0,0.0,0.0,-0.9001,-0.9054,-0.9124,-0.9221,-0.9632,-1.0086,-1.0499,0.0,0.0,-1.2946,-1.4214,-1.5456,-1.6744,-1.8046,-1.9458,-2.0961,-2.2014,-2.299,-2.386,-2.441,-2.526,-2.6242,0.0,-2.6917,-2.7602,0.0,0.0,0.0,-2.4024,-2.2092,-1.9783,-1.829,-1.4488,-0.9907,-0.6978,-0.3767,-0.0678,0.1238,0.2225,0.2778,0.311,0.2919,0.252,0.2168,0.1785,0.1473,0.1566,0.1502,0.1566,0.1969,0.2219,0.2389,0.2654,0.2566,0.2518,0.2653,0.2407,0.2192,0.2203,0.1904,0.1607,0.1414,0.1162,0.0909,0.0606,0.0152,-0.0202,-0.0505,-0.1464,-0.2373,-0.3279,-0.3696,-0.4186,-0.4759,-0.5438,-0.6033,-0.6564,-0.7688,-0.8759,-0.97,-0.9967,-1.0464,-1.1214,-1.1961,-1.2526,-1.2936,-1.3731,-1.4162,-1.4271,-1.4941,-1.5254,-1.5379,-1.5974,-1.6405,-1.6752,-1.7065,-1.7616,-1.8222,0.0,0.0,0.0,0.0,0.0,0.0,0.0,0.0,0.0,0.0,0.0,0.0,0.0,0.0,0.0,0.0,0.0,0.0,0.0,-0.9263,-0.9335,-0.9491,-0.9888,-1.0334,-1.0769,0.0,0.0,0.0,0.0,0.0,-1.6593,-1.7785,-1.9172,-2.0681,-2.1617,-2.2504,-2.3304,-2.3745,0.0,0.0,0.0,0.0,0.0,0.0,0.0,-2.4059,-2.2957,-2.0076,-1.6445,-1.4065,-1.0566,-0.6686,-0.3636,-0.0934,0.1432,0.321,0.4174,0.4644,0.4802,0.442,0.3912,0.3557,0.2947,0.2453,0.2477,0.2358,0.236,0.2644,0.2873,0.307,0.3272,0.3196,0.3164,0.3275,0.2989,0.2775,0.2775,0.2422,0.2118,0.1969,0.1817,0.1615,0.1363,0.0959,0.0606,0.0354,-0.0859,-0.1869,-0.2474,-0.3065,-0.3616,-0.414,-0.4938,-0.5852,-0.6871,-0.7728,-0.855,-0.9409,-0.9645,-1.018,-1.0999,-1.1706,-1.2305,-1.2813,0.0,-1.3878,-1.4119,-1.4447,-1.4729,-1.4987,-1.5377,-1.5796,-1.6163,-1.6527,-1.7039,-1.7584,0.0,0.0,0.0,0.0,0.0,0.0,0.0,0.0,0.0,0.0,0.0,0.0,0.0,0.0,0.0,0.0,0.0,0.0,0.0,0.0,0.0,0.0,-0.9991,-1.0385,-1.0769,-1.1418,-1.2058,-1.2643,-1.3566,-1.466,0.0,0.0,0.0,0.0,0.0,0.0,0.0,0.0,0.0,0.0,0.0,0.0,0.0,0.0,0.0,-2.2728,-2.1104,-1.7174,-1.2305,-0.8994,-0.6741,-0.4725,-0.1554,0.1198,0.3545,0.5106,0.5967,0.6395,0.6395,0.5777,0.5082,0.4854,0.4031,0.327,0.3348,0.322,0.3167,0.3283,0.3532,0.3791,0.3869,0.3903,0.398,0.4006,0.3637,0.3331,0.3331,0.2927,0.2623,0.2573,0.2573,0.2421,0.2118,0.1868,0.1465,0.096,-0.0505,-0.1415,-0.1516,-0.2385,-0.3182,-0.3776,-0.4559,-0.5764,-0.7356,-0.7682,-0.8258,-0.9109,-0.9407,-0.9992,-1.0775,-1.1409,-1.1983,-1.2561,-1.3098,-1.355,-1.396,-1.3834,-1.409,-1.4529,-1.4646,-1.4981,-1.542,-1.5769,-1.6249,-1.6761,0.0,0.0,0.0,0.0,0.0,0.0,0.0,0.0,0.0,0.0,0.0,0.0,0.0,0.0,0.0,0.0,0.0,0.0,0.0,0.0,0.0,0.0,-0.9621,-0.9855,-1.0154,-1.0769,-1.1309,-1.1801,-1.2643,-1.3822,0.0,0.0,0.0,0.0,0.0,0.0,0.0,0.0,0.0,0.0,0.0,0.0,0.0,0.0,0.0,0.0,-1.705,-1.3832,-1.0761,-0.7352,-0.4837,-0.2626,0.037,0.296,0.517,0.6679,0.7314,0.7476,0.7326,0.663,0.5854,0.5321,0.4696,0.4175,0.4114,0.3961,0.3924,0.4276,0.4414,0.46,0.4828,0.4788,0.4693,0.4594,0.4335,0.4137,0.3883,0.3781,0.363,0.3428,0.3377,0.3176,0.2724,0.2422,0.2019,0.1516,0.0606,-0.0354,-0.1212,-0.1947,-0.2906,-0.4168,-0.4717,-0.5497,-0.6561,-0.714,-0.7855,-0.8709,-0.914,-0.9771,-1.0588,-1.1335,-1.1872,-1.2223,-1.296,0.0,-1.321,-1.3628,-1.3927,-1.4138,-1.4536,-1.4922,-1.5303,-1.574,-1.6144,-1.6488,0.0,0.0,0.0,0.0,0.0,0.0,0.0,0.0,0.0,0.0,0.0,0.0,0.0,0.0,0.0,0.0,0.0,0.0,0.0,0.0,0.0,0.0,0.0,0.0,-0.9777,-1.0275,-1.071,-1.1082,0.0,-1.2881,-1.4222,-1.4961,-1.6061,-1.7478,-1.8001,-1.8564,-1.9117,-1.9596,-2.0207,-2.0907,-2.1198,-2.1407,0.0,0.0,0.0,0.0,-1.4031,-1.1304,-0.8734,-0.5381,-0.2471,0.0112,0.213,0.432,0.6363,0.7596,0.8241,0.8513,0.8208,0.7591,0.6896,0.6282,0.5563,0.4917,0.4811,0.4624,0.454,0.4846,0.4985,0.5093,0.5291,0.53,0.5265,0.5132,0.493,0.4738,0.4435,0.4369,0.4193,0.3937,0.3886,0.3837,0.3531,0.3096,0.2725,0.2474,0.1566,0.0553,-0.0498,-0.163,-0.273,-0.3901,-0.461,-0.5453,-0.6384,-0.7017,-0.7732,-0.8591,-0.8985,-0.9576,-1.0368,-1.1074,-1.159,-1.1957,-1.2506,-1.2785,-1.2932,-1.3161,-1.3529,-1.392,-1.43,-1.4754,-1.5244,-1.5653,-1.6058,-1.6431,0.0,0.0,0.0,0.0,0.0,0.0,0.0,0.0,0.0,0.0,0.0,0.0,0.0,0.0,0.0,0.0,0.0,0.0,0.0,0.0,0.0,0.0,0.0,0.0,-0.9439,0.0,0.0,-1.0344,-1.1006,0.0,0.0,0.0,0.0,0.0,-1.6164,-1.6662,-1.7247,-1.762,-1.802,0.0,0.0,-1.8747,-1.8587,0.0,0.0,0.0,0.0,-0.9155,-0.6612,-0.3405,-0.0349,0.2411,0.3779,0.5562,0.7349,0.8322,0.8937,0.9208,0.8856,0.828,0.7676,0.7099,0.6307,0.5646,0.5499,0.5331,0.5257,0.5405,0.5528,0.562,0.5668,0.5843,0.5873,0.5729,0.5558,0.5338,0.5087,0.4963,0.4763,0.456,0.4575,0.4529,0.4407,0.389,0.3497,0.3232,0.2206,0.1091,-0.0098,-0.1416,-0.2521,-0.3409,-0.4297,-0.5174,-0.6034,-0.67,-0.7424,-0.8286,-0.8645,-0.9231,-1.003,-1.0663,-1.1187,-1.1609,-1.1971,-1.2325,-1.2663,-1.2764,-1.3164,-1.3769,-1.407,-1.4577,-1.5147,-1.5498,-1.5904,-1.6316,0.0,0.0,0.0,0.0,0.0,0.0,0.0,0.0,0.0,0.0,0.0,0.0,0.0,0.0,0.0,0.0,0.0,0.0,0.0,0.0,0.0,0.0,0.0,0.0,0.0,0.0,0.0,-0.9517,-1.012,0.0,0.0,0.0,0.0,0.0,0.0,-1.4778,-1.5361,-1.5658,0.0,0.0,0.0,0.0,0.0,0.0,0.0,0.0,0.0,-0.7282,-0.4801,-0.1826,0.0896,0.3355,0.5342,0.6888,0.8156,0.8975,0.9246,0.9246,0.9041,0.8389,0.7671,0.7209,0.6741,0.6384,0.6232,0.6181,0.6186,0.6257,0.629,0.6302,0.6314,0.6526,0.6608,0.6378,0.6287,0.6187,0.5942,0.578,0.5693,0.5641,0.5777,0.5588,0.4979,0.4862,0.4364,0.3285,0.2201,0.0958,-0.0574,-0.1405,-0.22,-0.2959,-0.3626,-0.4299,-0.4952,-0.5681,-0.6422,-0.7253,-0.7888,-0.8599,-0.9397,-1.0218,-1.0688,-1.094,-1.1642,-1.2036,0.0,-1.2629,-1.3103,-1.3571,-1.401,-1.4419,-1.4804,-1.5274,-1.5662,-1.6,0.0,0.0,0.0,0.0,0.0,0.0,0.0,0.0,0.0,0.0,0.0,0.0,0.0,0.0,0.0,0.0,0.0,0.0,0.0,0.0,0.0,0.0,0.0,0.0,0.0,0.0,-0.8718,-0.8855,-0.9261,0.0,0.0,0.0,0.0,0.0,0.0,-1.2807,-1.3262,-1.3665,0.0,0.0,0.0,0.0,0.0,0.0,0.0,0.0,0.0,0.0,-0.3267,-0.0584,0.1716,0.3826,0.5809,0.7203,0.825,0.9056,0.9397,0.9392,0.9079,0.8678,0.8173,0.745,0.7097,0.6857,0.6554,0.643,0.6414,0.6599,0.6656,0.6656,0.6656,0.6838,0.6932,0.6697,0.6769,0.6736,0.6289,0.6349,0.626,0.5943,0.5986,0.5957,0.5641,0.5212,0.4504,0.3232,0.2467,0.1517,0.0281,-0.0643,-0.1538,-0.2467,-0.3187,-0.398,-0.4806,-0.5474,-0.6246,-0.7111,-0.7768,-0.8522,-0.9322,-1.0143,-1.0603,-1.0839,-1.145,-1.1817,0.0,-1.2336,-1.285,-1.342,-1.3821,-1.421,-1.4647,-1.5108,-1.543,-1.5691,0.0,0.0,0.0,0.0,0.0,0.0,0.0,0.0,0.0,0.0,0.0,0.0,0.0,0.0,0.0,0.0,0.0,0.0,0.0,0.0,0.0,0.0,0.0,0.0,0.0,0.0,-0.8296,-0.8336,-0.8608,-0.8951,0.0,0.0,-1.0104,-1.0413,0.0,0.0,0.0,0.0,0.0,0.0,0.0,0.0,0.0,0.0,0.0,0.0,0.0,0.0,0.0,0.0,0.0,0.4142,0.5925,0.7246,0.8255,0.898,0.9367,0.9451,0.9101,0.8836,0.8533,0.7813,0.7514,0.7318,0.7063,0.689,0.6874,0.7102,0.7102,0.7119,0.7162,0.7371,0.7463,0.7225,0.7336,0.7303,0.6888,0.6981,0.6867,0.6478,0.6475,0.6431,0.6126,0.5415,0.4465,0.3294,0.2841,0.2125,0.1065,0.018,-0.08,-0.1911,-0.2803,-0.358,-0.4335,-0.5063,-0.5848,-0.668,-0.739,-0.8212,-0.9051,-0.9766,-1.0273,-1.0591,-1.1125,-1.1437,0.0,-1.2058,-1.2613,-1.3186,-1.3549,-1.4001,-1.4478,-1.4902,-1.5196,-1.5468,0.0,0.0,0.0,0.0,0.0,0.0,0.0,0.0,0.0,0.0,0.0,0.0,0.0,0.0,0.0,0.0,0.0,0.0,0.0,0.0,0.0,0.0,0.0,0.0,0.0,0.0,-0.7957,-0.7892,-0.8229,-0.8376,-0.832,-0.8796,-0.9005,-0.902,0.0,0.0,0.0,0.0,0.0,0.0,0.0,0.0,0.0,0.0,0.0,0.0,0.0,0.0,0.0,0.0,0.0,0.0,0.0,0.7092,0.8217,0.8832,0.913,0.9252,0.906,0.885,0.8602,0.8277,0.8033,0.7912,0.7903,0.79,0.79,0.79,0.79,0.7952,0.8072,0.8186,0.8251,0.8183,0.809,0.7989,0.7881,0.7715,0.7537,0.7396,0.7526,0.7284,0.6447,0.5453,0.4451,0.3538,0.3229,0.2645,0.1528,0.0979,0.0043,-0.1346,-0.2303,-0.2936,-0.3209,-0.4097,-0.4885,-0.5625,-0.6514,-0.7442,-0.8432,-0.8963,-0.9498,-1.0037,-1.052,-1.0861,0.0,-1.184,-1.2375,-1.2867,-1.3329,-1.3791,-1.4249,-1.4597,-1.5001,-1.5439,0.0,0.0,0.0,0.0,0.0,0.0,0.0,0.0,0.0,0.0,0.0,0.0,0.0,0.0,0.0,0.0,0.0,0.0,0.0,0.0,0.0,0.0,0.0,0.0,0.0,0.0,-0.7476,-0.7568,-0.752,-0.7573,-0.7692,-0.7826,-0.7972,-0.8113,-0.8284,-0.8495,0.0,0.0,0.0,0.0,0.0,0.0,-0.9612,0.0,0.0,0.0,0.0,0.0,0.0,0.0,0.0,0.0,0.0,0.0,0.0,0.8182,0.8811,0.9217,0.8867,0.8828,0.8716,0.8148,0.8037,0.8047,0.7929,0.79,0.793,0.8005,0.8027,0.8076,0.8282,0.84,0.8435,0.8249,0.8379,0.836,0.7945,0.801,0.8015,0.7783,0.7478,0.7063,0.6331,0.5658,0.5003,0.4286,0.3683,0.2916,0.2041,0.1279,0.0347,-0.0868,-0.1729,-0.2514,-0.3206,-0.4031,-0.4807,-0.5622,-0.6475,-0.7301,-0.8003,-0.8751,-0.9269,-0.9638,-1.0232,-1.0724,-1.1153,-1.1685,-1.2212,-1.2713,-1.3177,-1.3601,-1.398,-1.4419,-1.4804,-1.5167,0.0,0.0,0.0,0.0,0.0,0.0,0.0,0.0,0.0,0.0,0.0,0.0,0.0,0.0,0.0,0.0,0.0,0.0,0.0,0.0,0.0,0.0,0.0,0.0,0.0,-0.7377,-0.7204,-0.7224,-0.7094,-0.7059,-0.7086,-0.719,-0.722,-0.7304,-0.7438,-0.7619,0.0,0.0,0.0,0.0,0.0,0.0,-0.8618,0.0,0.0,0.0,0.0,0.0,0.0,0.0,0.0,0.0,0.0,0.0,0.0,0.0,0.8424,0.8968,0.8729,0.8794,0.8772,0.8264,0.8261,0.8336,0.8208,0.8215,0.8244,0.8351,0.8428,0.8521,0.8734,0.8854,0.8825,0.8561,0.8697,0.8713,0.8258,0.8328,0.8335,0.8062,0.7618,0.7066,0.6429,0.6011,0.5444,0.4674,0.4068,0.338,0.2487,0.1781,0.094,-0.0127,-0.1072,-0.1942,-0.2684,-0.351,-0.438,-0.5276,-0.6071,-0.6866,-0.7688,-0.8334,-0.8852,-0.9315,-0.9847,-1.0329,0.0,-1.1341,-1.1872,-1.2467,-1.2858,-1.3307,-1.3731,-1.4151,-1.4508,-1.4843,0.0,0.0,0.0,0.0,0.0,0.0,0.0,0.0,0.0,0.0,0.0,0.0,0.0,0.0,0.0,0.0,0.0,0.0,0.0,0.0,0.0,0.0,0.0,0.0,0.0,-0.7311,-0.7103,-0.6911,-0.6876,-0.6759,-0.6546,-0.6757,-0.6726,-0.6561,-0.6773,-0.6877,0.0,0.0,0.0,0.0,0.0,0.0,0.0,0.0,0.0,0.0,0.0,0.0,0.0,0.0,0.0,0.0,0.0,0.0,0.0,0.0,0.0,0.0,0.0,0.8733,0.8872,0.8652,0.8612,0.8612,0.8624,0.8706,0.0,0.8852,0.8995,0.9169,0.9388,0.9433,0.9356,0.9182,0.9148,0.9013,0.8779,0.871,0.8598,0.8322,0.7874,0.7365,0.6711,0.6437,0.582,0.4759,0.4524,0.3944,0.2919,0.2384,0.1706,0.0774,-0.0325,-0.1205,-0.1882,-0.2702,-0.3638,-0.4686,-0.5336,-0.627,-0.7425,-0.7774,-0.8334,-0.9053,-0.9335,-0.9786,0.0,-1.087,-1.1466,-1.2096,-1.2467,-1.295,-1.348,-1.3851,-1.4181,-1.4499,0.0,0.0,0.0,0.0,0.0,0.0,0.0,0.0,0.0,0.0,0.0,0.0,0.0,0.0,0.0,0.0,0.0,0.0,0.0,0.0,0.0,0.0,0.0,0.0,0.0,-0.7202,-0.6948,-0.6887,-0.66,-0.6331,-0.6124,-0.6198,-0.6149,-0.6069,-0.6339,-0.6605,0.0,0.0,0.0,0.0,0.0,0.0,0.0,0.0,0.0,0.0,-0.3798,-0.2624,0.0,0.0,0.0,0.0,0.0,0.0,0.0,0.0,0.7147,0.7586,0.7977,0.0,0.8872,0.8652,0.8612,0.8645,0.0,0.8792,0.8897,0.9173,0.9314,0.9396,0.9531,0.9673,0.969,0.947,0.9387,0.9317,0.913,0.8871,0.8562,0.8183,0.7939,0.7601,0.6964,0.6458,0.5984,0.5632,0.479,0.4016,0.3349,0.2852,0.2123,0.1181,0.056,-0.0473,-0.1882,-0.2702,-0.3529,-0.4336,-0.5104,-0.5795,-0.6448,-0.7091,-0.7717,-0.8287,-0.8878,-0.9466,-1.011,-1.0807,-1.1341,-1.1778,-1.2375,-1.2744,-1.3011,-1.3459,-1.3821,-1.4181,0.0,0.0,0.0,0.0,0.0,0.0,0.0,0.0,0.0,0.0,0.0,0.0,0.0,0.0,0.0,0.0,0.0,0.0,0.0,0.0,0.0,0.0,0.0,0.0,-0.7335,-0.6948,-0.6701,-0.663,-0.6306,-0.6128,-0.6041,-0.596,-0.5921,-0.5934,-0.6098,-0.6418,0.0,0.0,0.0,0.0,-0.7136,0.0,0.0,0.0,0.0,0.0,-0.3861,-0.2808,0.0,-0.0392,0.075,0.188,0.0,0.0,0.0,0.0,0.6586,0.695,0.7559,0.8157,0.8556,0.8428,0.8533,0.8706,0.88,0.8946,0.912,0.9363,0.9469,0.9535,0.9713,0.9823,0.9886,0.974,0.9712,0.9643,0.9508,0.9237,0.8973,0.8664,0.8405,0.8042,0.7408,0.6917,0.6406,0.5958,0.5295,0.4592,0.3813,0.33,0.2567,0.1602,0.0949,-0.0039,-0.1412,-0.2247,-0.3137,-0.4077,-0.4755,-0.5451,-0.6119,-0.6764,-0.7404,-0.8019,-0.8538,-0.9145,-0.9817,-1.0364,-1.0902,-1.1421,-1.1767,-1.2132,-1.2456,-1.2816,-1.3203,-1.3593,0.0,0.0,0.0,0.0,0.0,0.0,0.0,0.0,0.0,0.0,0.0,0.0,0.0,0.0,0.0,0.0,0.0,0.0,0.0,0.0,0.0,0.0,0.0,-0.7173,-0.6961,-0.6744,-0.6558,-0.6357,-0.6122,-0.6034,-0.6033,-0.5854,-0.5843,-0.5951,-0.5951,-0.6201,0.0,0.0,-0.6867,-0.7199,-0.703,0.0,0.0,0.0,0.0,0.0,0.0,0.0,0.0,-0.0829,0.0199,0.1177,0.254,0.0,0.0,0.0,0.0,0.0,0.7092,0.7669,0.8069,0.8113,0.8463,0.8737,0.8762,0.9116,0.9416,0.9473,0.9559,0.9721,0.9896,0.9949,1.0015,1.0052,1.0069,0.9965,0.976,0.958,0.9413,0.9309,0.8918,0.8485,0.7949,0.7499,0.6889,0.6159,0.5807,0.5252,0.4296,0.3768,0.3033,0.2081,0.1216,0.0314,-0.0742,-0.1605,-0.2636,-0.3734,-0.4321,-0.5048,-0.5911,-0.6485,-0.7138,-0.7857,0.0,0.0,-0.9454,-0.9824,-1.0396,-1.1031,-1.105,-1.1398,-1.1894,-1.211,-1.2485,-1.2944,0.0,0.0,0.0,0.0,0.0,0.0,0.0,0.0,0.0,0.0,0.0,0.0,0.0,0.0,0.0,0.0,0.0,0.0,0.0,0.0,0.0,0.0,-0.7935,-0.7525,-0.7179,-0.6946,-0.6767,-0.6563,-0.6228,-0.5992,-0.5833,-0.5747,-0.5732,-0.5749,-0.5749,-0.5957,-0.6373,-0.6373,-0.6539,-0.6781,-0.674,0.0,0.0,0.0,0.0,0.0,0.0,0.0,0.0,-0.1212,-0.02,0.0835,0.1908,0.0,0.0,0.0,0.0,0.0,0.6213,0.6789,0.7363,0.7852,0.8247,0.8592,0.8687,0.9064,0.949,0.9742,0.9823,0.99,1.0139,1.0245,1.0314,1.0317,1.0287,1.0116,0.9619,0.9413,0.9302,0.9138,0.8801,0.8494,0.8251,0.772,0.7249,0.6917,0.6034,0.5344,0.4954,0.4246,0.3469,0.2671,0.204,0.1126,-0.0114,-0.129,-0.2223,-0.2976,-0.3685,-0.4351,-0.5025,-0.5734,-0.6416,-0.7106,0.0,-0.8468,-0.9113,-0.9638,-1.0149,-1.0685,-1.08,-1.101,-1.1279,-1.1542,-1.188,-1.2349,0.0,0.0,0.0,0.0,0.0,0.0,0.0,0.0,0.0,0.0,0.0,0.0,0.0,0.0,0.0,0.0,0.0,0.0,0.0,0.0,0.0,-0.8143,-0.7983,-0.7652,-0.7163,-0.7038,-0.6841,-0.6451,-0.6086,-0.591,-0.5902,-0.5777,-0.5697,-0.5697,-0.5697,-0.5869,-0.6211,-0.6297,-0.6509,-0.6771,0.0,0.0,0.0,0.0,0.0,0.0,0.0,0.0,0.0,0.0,-0.0888,0.0121,0.123,0.0,0.0,0.0,0.0,0.0,0.5722,0.6121,0.6494,0.7248,0.7927,0.8455,0.8812,0.9083,0.9428,0.9831,0.9884,0.9973,1.0257,1.0379,1.0465,1.072,1.0833,1.0737,1.049,1.0245,1.0004,0.9816,0.9466,0.9009,0.8602,0.8185,0.7725,0.7212,0.6618,0.5978,0.5363,0.4651,0.3854,0.2981,0.2273,0.1425,0.0371,-0.0593,-0.1674,-0.2799,-0.3513,-0.4178,-0.4831,-0.5557,-0.6218,-0.6843,0.0,-0.8042,-0.8592,-0.9145,-0.9728,-1.0262,-1.0167,-1.0433,-1.0879,-1.1324,-1.1746,-1.2201,0.0,0.0,0.0,0.0,0.0,0.0,0.0,0.0,0.0,0.0,0.0,0.0,0.0,0.0,0.0,0.0,0.0,0.0,0.0,0.0,-0.8359,-0.8142,-0.8142,-0.7834,-0.7178,-0.7174,-0.6915,-0.6405,-0.6062,-0.5912,-0.5924,-0.5777,-0.5688,-0.5688,-0.5688,-0.588,-0.626,-0.6391,-0.6662,-0.6933,0.0,0.0,0.0,0.0,0.0,0.0,0.0,0.0,0.0,0.0,0.0,0.0,0.0,0.0,0.0,0.3298,0.3835,0.43,0.5144,0.55,0.5847,0.6691,0.7506,0.8284,0.8789,0.909,0.9388,0.9861,1.0084,1.0215,1.049,1.0655,1.0795,1.1105,1.1272,1.1363,1.1274,1.101,1.0716,1.0516,1.0036,0.9588,0.9121,0.8702,0.8184,0.7496,0.7155,0.6597,0.5764,0.5122,0.4349,0.3446,0.2611,0.1753,0.0911,0.0036,-0.1104,-0.2531,-0.322,-0.3892,-0.4595,-0.5326,-0.5954,-0.6544,-0.7101,-0.7624,-0.8107,-0.8662,-0.9247,-0.9806,-0.965,-1.0024,-1.0644,-1.112,-1.1631,-1.2172,0.0,0.0,0.0,0.0,0.0,0.0,0.0,0.0,0.0,0.0,0.0,0.0,0.0,0.0,0.0,0.0,0.0,0.0,0.0,0.0,-0.8786,-0.8571,-0.8571,-0.8193,-0.7398,-0.739,-0.7136,-0.6668,-0.6356,-0.6019,-0.5708,-0.5725,-0.5688,-0.5688,-0.5688,-0.6062,-0.667,-0.667,-0.6943,-0.7356,-0.7356,0.0,0.0,0.0,0.0,0.0,0.0,0.0,0.0,0.0,0.0,0.0,0.0,0.0,0.1861,0.2419,0.3089,0.3765,0.4255,0.4879,0.5602,0.6336,0.7108,0.7813,0.8457,0.908,0.9615,1.0103,1.0541,1.0881,1.1017,1.1273,1.1439,1.1335,1.1456,1.1476,1.1161,1.111,1.0991,1.0795,1.0237,0.9854,0.9827,0.9091,0.8483,0.825,0.7528,0.6896,0.6434,0.5674,0.4976,0.4345,0.3413,0.2473,0.1531,0.0498,-0.0589,-0.1685,-0.242,-0.3155,-0.3892,-0.4561,-0.5259,-0.5987,-0.6646,-0.7241,-0.7764,-0.8317,-0.8861,-0.9372,-0.9537,-1.0002,-1.0616,-1.0644,-1.1227,-1.2067,0.0,0.0,0.0,0.0,0.0,0.0,0.0,0.0,0.0,0.0,0.0,0.0,0.0,0.0,0.0,0.0,0.0,0.0,0.0,0.0,-0.8828,-0.8612,-0.8612,-0.8368,-0.7928,-0.765,-0.7251,-0.6702,-0.6384,-0.6135,-0.5952,-0.5777,-0.5688,-0.5688,-0.5688,-0.5936,-0.634,-0.6603,-0.6817,-0.7062,-0.7287,-0.7146,0.0,0.0,0.0,0.0,0.0,0.0,0.0,0.0,-0.2119,-0.1257,-0.0476,0.0286,0.1053,0.1784,0.2443,0.3092,0.3849,0.4387,0.4973,0.5977,0.6599,0.7222,0.8432,0.9014,0.9481,1.0279,1.0676,1.0992,1.1164,1.1608,1.1866,1.1659,1.1836,1.2006,1.1841,1.1614,1.1359,1.1138,1.0807,1.0391,0.9947,0.9606,0.9159,0.8588,0.8034,0.7505,0.6969,0.6126,0.5395,0.481,0.3785,0.2838,0.1967,0.0922,-0.0069,-0.0941,-0.2115,-0.3088,-0.3825,-0.4495,-0.5096,-0.5624,-0.6288,-0.6815,-0.7241,-0.7922,-0.8506,-0.9032,-0.9519,-0.9814,-1.0041,-1.0668,-1.1145,-1.1503,0.0,0.0,0.0,0.0,0.0,0.0,0.0,0.0,0.0,0.0,0.0,0.0,0.0,0.0,0.0,0.0,0.0,0.0,0.0,-0.9087,-0.8823,-0.8696,-0.8656,-0.8472,-0.8201,-0.7867,-0.7454,-0.6971,-0.647,-0.6215,-0.6083,-0.5822,-0.5688,-0.5688,-0.5777,-0.6017,-0.6326,-0.6648,-0.6859,-0.7004,-0.7284,-0.7192,0.0,0.0,0.0,0.0,0.0,0.0,0.0,0.0,-0.2661,-0.1901,-0.1063,-0.0365,0.0337,0.1052,0.1691,0.233,0.3223,0.376,0.4387,0.5556,0.6178,0.6902,0.8357,0.8905,0.9367,1.0312,1.0849,1.1248,1.1512,1.1934,1.223,1.2111,1.236,1.2518,1.2428,1.2167,1.1879,1.1689,1.1305,1.0911,1.0385,1.0056,0.9653,0.9044,0.8566,0.8039,0.7415,0.6633,0.5877,0.518,0.4194,0.3244,0.2409,0.1331,0.0445,-0.0269,-0.1577,-0.2653,-0.3489,-0.4159,-0.4761,-0.5259,-0.5888,-0.6383,-0.6782,-0.7466,-0.8149,-0.8839,-0.9364,-0.9685,-0.9907,-1.0555,-1.0985,-1.1321,0.0,0.0,0.0,0.0,0.0,0.0,0.0,0.0,0.0,0.0,0.0,0.0,0.0,0.0,0.0,0.0,0.0,0.0,0.0,-0.917,-0.8911,-0.8911,-0.8696,-0.8476,-0.8201,-0.7984,-0.7768,-0.7507,-0.6745,-0.6299,-0.6083,-0.5822,-0.5688,-0.5733,-0.5997,-0.6332,-0.6728,-0.6917,-0.7145,-0.7415,-0.7415,-0.7278,-0.7051,0.0,0.0,0.0,0.0,0.0,0.0,0.0,-0.2898,-0.2186,-0.1504,0.0,-0.021,0.0253,0.0868,0.1569,0.2285,0.3047,0.3893,0.5089,0.5942,0.681,0.8115,0.8758,0.9333,1.0154,1.1117,1.1869,1.2179,1.2432,1.2618,1.2685,1.2949,1.3035,1.2758,1.2755,1.2688,1.2443,1.1744,1.1311,1.1311,1.0466,0.9836,0.964,0.9048,0.8432,0.7855,0.7242,0.6481,0.5548,0.4643,0.3772,0.28,0.1806,0.0975,0.0302,-0.0638,-0.1647,-0.272,-0.3456,-0.4159,-0.4827,-0.5352,-0.5881,-0.6416,-0.6975,-0.7824,-0.8807,-0.9023,-0.9581,-1.0268,-1.0135,-1.0732,-1.1591,0.0,0.0,0.0,0.0,0.0,0.0,0.0,0.0,0.0,0.0,0.0,0.0,0.0,0.0,0.0,0.0,0.0,0.0,0.0,-0.9476,-0.9257,-0.8911,-0.8823,-0.8692,-0.8476,-0.812,-0.7676,-0.7231,-0.6881,-0.6567,-0.6299,-0.6083,-0.5997,-0.5997,-0.6083,-0.6373,-0.6774,-0.6921,-0.7086,-0.7217,-0.7326,-0.7278,-0.7051,0.0,0.0,0.0,0.0,0.0,0.0,0.0,0.0,0.0,-0.2096,0.0,-0.0883,-0.0253,0.0391,0.1121,0.2018,0.278,0.3621,0.4804,0.5705,0.6623,0.7822,0.8758,0.9772,1.1079,1.1723,1.2182,1.2481,1.2758,1.2883,1.2732,1.3087,1.3307,1.3032,1.2999,1.299,1.2913,1.2389,1.187,1.1531,1.1095,1.0595,1.0073,0.958,0.9057,0.8454,0.7742,0.6953,0.6092,0.5125,0.4229,0.3426,0.2419,0.158,0.084,0.0067,-0.1041,-0.2388,-0.3058,-0.3694,-0.4261,-0.4957,-0.5484,-0.5918,-0.6839,-0.7657,-0.8431,-0.8745,-0.9241,-0.9767,-0.9951,-1.0387,-1.0902,0.0,0.0,0.0,0.0,0.0,0.0,0.0,0.0,0.0,0.0,0.0,0.0,0.0,0.0,0.0,0.0,0.0,0.0,0.0,0.0,-0.9463,-0.9154,-0.9065,-0.8921,-0.8632,-0.8362,-0.7923,-0.7365,-0.6996,-0.6704,-0.6567,-0.6346,-0.6213,-0.6213,-0.6349,-0.6526,-0.6799,-0.6975,-0.7048,-0.7105,-0.7241,-0.7224,-0.7098,0.0,0.0,0.0,0.0,0.0,0.0,0.0,0.0,0.0,-0.2537,-0.2025,-0.1555,-0.0883,-0.026,0.0448,0.1345,0.2198,0.3118,0.4338,0.5309,0.6391,0.8042,0.9255,1.0314,1.1341,1.1958,1.2357,1.2562,1.2845,1.307,1.3013,1.3379,1.3561,1.3387,1.3433,1.343,1.3218,1.2879,1.2457,1.1991,1.1599,1.1217,1.0712,1.0129,0.9569,0.9092,0.8202,0.7313,0.6491,0.5588,0.4723,0.3954,0.305,0.2185,0.1412,0.0672,-0.0336,-0.1547,-0.2421,-0.3125,-0.3727,-0.4688,-0.5319,-0.5785,-0.6642,-0.7363,-0.7977,-0.8404,-0.8823,-0.9268,-0.9658,-1.004,-1.0403,0.0,0.0,0.0,0.0,0.0,0.0,0.0,0.0,0.0,0.0,0.0,0.0,0.0,0.0,0.0,0.0,0.0,0.0,0.0,0.0,-0.961,-0.9547,-0.9334,-0.9055,-0.8753,-0.8707,-0.8394,-0.7822,-0.7189,-0.6853,-0.6795,-0.6567,-0.6432,-0.6432,-0.6704,-0.6795,-0.684,-0.701,-0.7095,-0.7095,-0.7095,-0.7095,-0.7098,-0.6881,0.0,0.0,0.0,0.0,0.0,0.0,0.0,0.0,-0.2953,-0.2477,-0.2186,-0.1555,-0.091,-0.0269,0.0493,0.1436,0.2479,0.3769,0.4896,0.6308,0.8575,0.9953,1.0844,1.1186,1.1854,1.2382,1.2476,1.2847,1.3229,1.3529,1.3748,1.3874,1.3855,1.4009,1.393,1.3454,1.326,1.3,1.2517,1.2066,1.1694,1.1446,1.0675,1.001,0.9635,0.8644,0.7674,0.6792,0.6066,0.525,0.4422,0.3658,0.2857,0.1985,0.1244,0.0437,-0.0437,-0.1614,-0.2555,-0.3293,-0.4489,-0.5322,-0.5855,-0.6412,-0.6937,-0.7489,-0.7944,-0.8404,-0.8802,-0.9236,-0.9652,-1.0015,0.0,0.0,0.0,0.0,0.0,0.0,0.0,0.0,0.0,0.0,0.0,0.0,0.0,0.0,0.0,0.0,0.0,0.0,0.0,0.0,-0.9874,-0.9813,-0.9559,-0.9288,-0.8999,-0.8804,-0.849,-0.8056,-0.7744,-0.7306,-0.6795,-0.6748,-0.6704,-0.6704,-0.6792,-0.6881,-0.7054,-0.7098,-0.7095,-0.7095,-0.7095,-0.7095,-0.7095,-0.7054,-0.6786,0.0,0.0,0.0,0.0,0.0,0.0,0.0,-0.3703,-0.3125,-0.2439,-0.1934,-0.1214,-0.0448,0.0448,0.1436,0.2479,0.3584,0.5364,0.7219,0.8512,0.975,1.0801,1.1455,1.1878,1.2308,1.3141,1.3374,1.3531,1.3894,1.4171,1.4335,1.428,1.4254,1.422,1.4096,1.3593,1.3157,1.2898,1.259,1.2168,1.1618,1.1259,1.0644,0.9735,0.906,0.8285,0.7362,0.6602,0.5889,0.516,0.4259,0.346,0.0,0.1848,0.1042,0.0235,-0.1109,-0.2351,-0.3456,-0.3992,-0.4625,-0.5322,-0.5855,-0.6379,-0.6933,-0.7456,-0.7944,-0.8366,-0.8635,-0.9081,-0.9614,0.0,0.0,0.0,0.0,0.0,0.0,0.0,0.0,0.0,0.0,0.0,0.0,0.0,0.0,0.0,0.0,0.0,0.0,0.0,0.0,0.0,0.0,-0.9866,-0.9683,-0.9544,-0.9248,-0.8883,-0.8398,-0.8168,-0.7678,-0.6922,-0.6922,-0.6922,-0.6922,-0.6922,-0.701,-0.7095,-0.7095,-0.7095,-0.7095,-0.7095,-0.7095,-0.7095,-0.7095,-0.6874,-0.6567,-0.6432,0.0,0.0,0.0,0.0,0.0,0.0,0.0,-0.3109,-0.243,-0.1808,-0.1107,-0.0224,0.0762,0.1888,0.3631,0.5448,0.7096,0.8193,0.9326,1.0407,1.1297,1.1969,1.2507,1.3192,1.3578,1.3879,1.4071,1.4358,1.4545,1.4503,1.45,1.445,1.4252,1.405,1.3789,1.3413,1.312,1.272,1.2161,1.1673,1.1038,1.0201,0.9538,0.8821,0.8009,0.7199,0.6449,0.5752,0.4827,0.3995,0.3222,0.2385,0.1377,0.0202,-0.1042,-0.215,-0.3155,-0.3689,-0.4259,-0.4891,-0.5425,-0.5954,-0.6474,-0.7003,-0.7493,-0.7912,-0.8344,-0.8732,-0.9049,0.0,0.0,0.0,0.0,0.0,0.0,0.0,0.0,0.0,0.0,0.0,0.0,0.0,0.0,0.0,0.0,0.0,0.0,0.0,0.0,0.0,0.0,-1.0158,-1.0068,-1.0019,-0.9743,-0.932,-0.8707,-0.8497,-0.8006,-0.7187,-0.7139,-0.7095,-0.7095,-0.7095,-0.7095,-0.7095,-0.7095,-0.7095,-0.7095,-0.7095,-0.7095,-0.7095,-0.7095,-0.6966,-0.6748,-0.6567,-0.6346,-0.6065,-0.5523,0.0,0.0,0.0,0.0,-0.3771,-0.2996,-0.2421,-0.1866,-0.102,0.0045,0.1434,0.3628,0.5233,0.6555,0.772,0.8765,0.9837,1.091,1.1873,1.2671,1.3026,1.3583,1.3976,1.4095,1.4377,1.4612,1.4652,1.4692,1.4621,1.4343,1.4478,1.4392,1.3918,1.356,1.321,1.2702,1.2002,1.1362,1.0784,1.0065,0.9326,0.8651,0.7814,0.6999,0.6243,0.5388,0.4525,0.3687,0.2785,0.1612,0.0168,-0.0874,-0.1781,-0.2586,-0.3288,-0.3925,-0.4492,-0.506,-0.5557,-0.6046,-0.6581,-0.704,-0.7428,-0.8084,-0.8349,-0.8479,0.0,0.0,0.0,0.0,0.0,0.0,0.0,0.0,0.0,0.0,-0.8016,-0.8363,0.0,0.0,0.0,0.0,0.0,0.0,0.0,0.0,0.0,0.0,-1.0539,-1.0462,-1.0019,-0.9858,-0.943,-0.8707,-0.8567,-0.8129,-0.7459,-0.7187,-0.7095,-0.7095,-0.7095,-0.7095,-0.7095,-0.7095,-0.7095,-0.7095,-0.7095,-0.7095,-0.7095,-0.7095,-0.6966,-0.6795,-0.6748,-0.6567,-0.634,-0.6062,-0.5799,0.0,0.0,0.0,-0.392,-0.3485,-0.2862,-0.2122,-0.1388,0.0177,0.1973,0.3363,0.4743,0.6001,0.6883,0.8223,0.9489,1.0259,1.1274,1.2206,1.2885,1.3196,1.348,1.4029,1.427,1.4555,1.49,1.4843,1.4764,1.4718,1.4639,1.4462,1.4115,1.3855,1.3412,1.2606,1.2152,1.1654,1.1073,1.0511,0.9881,0.9204,0.8463,0.7652,0.6811,0.5918,0.5153,0.4425,0.2956,0.1782,0.0941,0.0134,-0.0874,-0.2051,-0.2586,-0.3255,-0.3959,-0.4628,-0.5126,-0.5557,-0.6222,-0.6613,-0.6872,-0.7423,-0.7819,-0.8117,0.0,0.0,0.0,0.0,0.0,0.0,0.0,0.0,0.0,0.0,0.0,-0.8317,0.0,0.0,0.0,0.0,0.0,0.0,0.0,0.0,0.0,-1.0268,-1.0407,-1.0373,-1.0135,-0.9768,-0.9397,-0.898,-0.8637,-0.8286,-0.7896,-0.7499,-0.7234,-0.7095,-0.7095,-0.7095,-0.7095,-0.7095,-0.7095,-0.7102,-0.7234,-0.7272,-0.7278,-0.7363,-0.7309,-0.7207,-0.6989,-0.6824,-0.6674,-0.637,-0.613,-0.5929,-0.5531,0.0,0.0,0.0,-0.3304,-0.2526,-0.1271,0.0215,0.1687,0.281,0.4058,0.5291,0.6505,0.7704,0.8894,0.9907,1.0796,1.1668,1.2758,1.3287,1.3713,1.4184,1.442,1.4638,1.501,1.4946,1.4908,1.5009,1.4811,1.4614,1.4452,1.3995,1.3492,1.2971,1.2577,1.2085,1.1536,1.1028,1.0428,0.9728,0.8952,0.8144,0.7358,0.6474,0.5455,0.4261,0.3056,0.2084,0.1344,0.0605,-0.037,-0.148,-0.2151,-0.2788,-0.3391,-0.4061,-0.4631,-0.5126,-0.5719,-0.6181,-0.6581,-0.7007,-0.74,-0.7754,0.0,0.0,0.0,0.0,0.0,0.0,0.0,0.0,0.0,0.0,0.0,0.0,0.0,0.0,0.0,0.0,0.0,0.0,0.0,0.0,0.0,-1.0362,-1.0374,-1.0343,-1.0204,-0.9743,-0.9413,-0.9178,-0.8779,-0.8463,-0.8201,-0.7812,-0.7455,-0.7187,-0.7139,-0.7095,-0.7095,-0.7095,-0.7051,-0.7023,-0.7218,-0.7282,-0.7299,-0.7446,-0.755,-0.7537,-0.724,-0.7132,-0.7038,-0.6655,-0.6486,-0.6328,-0.5907,-0.553,0.0,0.0,0.0,-0.285,-0.1243,-0.0042,0.1092,0.2182,0.3399,0.4689,0.5979,0.7122,0.8256,0.9412,1.0215,1.1126,1.235,1.3083,1.3624,1.4094,1.4381,1.4661,1.5001,1.5033,1.5073,1.5107,1.498,1.4815,1.4631,1.4063,1.3609,1.336,1.2889,1.2436,1.2027,1.1466,1.0839,1.0142,0.9344,0.8565,0.7777,0.6773,0.5587,0.4195,0.3355,0.2586,0.1849,0.1109,0.0235,-0.0739,-0.1648,-0.2354,-0.2887,-0.3591,-0.4161,-0.4661,-0.5253,-0.5752,-0.6185,-0.6618,-0.6975,-0.7265,0.0,0.0,0.0,0.0,0.0,0.0,0.0,0.0,0.0,0.0,0.0,0.0,-0.9235,-0.9305,-0.9476,-0.9951,0.0,0.0,0.0,0.0,0.0,-1.0582,-1.0781,0.0,-1.0204,-0.9976,-0.9651,-0.9178,-0.8964,-0.8652,-0.8201,-0.7984,-0.7724,-0.7462,-0.7231,-0.7095,-0.7095,-0.7095,-0.701,-0.6805,-0.6953,-0.7011,-0.7024,-0.716,-0.7359,-0.7597,-0.759,-0.7495,-0.7324,-0.7047,-0.6905,-0.6716,-0.6368,-0.5845,-0.5339,0.0,0.0,0.0,-0.1789,-0.0702,0.0336,0.1471,0.2938,0.4294,0.5016,0.6354,0.7707,0.8582,0.9559,1.0541,1.1565,1.2277,1.2868,1.3433,1.4038,1.4529,1.486,1.5229,1.5327,1.4966,1.5232,1.5149,1.438,1.4182,1.3908,1.351,1.2928,1.259,1.2567,1.1747,1.1052,1.0485,0.969,0.8856,0.7987,0.6609,0.5528,0.4764,0.4059,0.3355,0.2619,0.1882,0.1143,0.0336,-0.1042,-0.1949,-0.2482,-0.322,-0.3723,-0.4128,-0.4858,-0.5256,-0.5528,-0.6185,-0.6449,-0.6548,0.0,0.0,0.0,0.0,0.0,0.0,0.0,0.0,0.0,0.0,0.0,0.0,0.0,-0.9432,-0.965,-0.9951,-1.0125,0.0,0.0,0.0,0.0,-1.068,-1.075,-1.0613,-1.0262,-1.0058,-0.98,-0.9442,-0.9073,-0.8823,-0.8644,-0.8139,-0.7782,-0.757,-0.723,-0.7095,-0.7095,-0.7095,-0.6966,-0.6815,-0.7047,-0.714,-0.7166,-0.7353,-0.7638,-0.7868,-0.777,-0.7699,-0.7624,-0.7346,-0.7245,-0.713,-0.6719,-0.6402,-0.5993,-0.5083,-0.4092,-0.3094,-0.2024,-0.1199,-0.0282,0.0886,0.2132,0.3367,0.4409,0.558,0.6776,0.7872,0.8813,0.9675,1.0528,1.1732,1.2826,1.3572,1.3754,1.4034,1.4673,1.4668,1.4639,1.4747,1.4748,1.4626,1.4339,1.4158,1.3948,1.3709,1.3368,1.3033,1.2744,1.2151,1.1529,1.0902,1.0136,0.9177,0.8019,0.6937,0.5984,0.5163,0.4328,0.3491,0.2686,0.2084,0.1379,0.0638,-0.0202,-0.1075,-0.1949,-0.2551,-0.3153,-0.3723,-0.4192,-0.4725,-0.5256,-0.5624,-0.602,-0.6449,0.0,0.0,0.0,0.0,0.0,0.0,0.0,0.0,0.0,-0.8357,0.0,0.0,0.0,0.0,-0.9733,-1.0077,-1.0386,-1.0603,-1.0776,-1.0862,-1.0862,-1.0781,-1.0781,-1.0689,-1.0424,-1.0207,-0.9994,-0.9733,-0.9345,-0.9008,-0.8766,-0.8263,-0.7874,-0.7609,-0.7246,-0.7064,-0.7028,-0.7078,-0.6922,-0.6681,-0.6959,-0.7023,-0.7007,-0.7334,-0.7643,-0.7879,-0.7874,-0.7855,-0.778,-0.7584,-0.7455,-0.7353,-0.7075,-0.6786,-0.6288,-0.5124,-0.4309,-0.3524,-0.2546,-0.1725,-0.0863,0.0236,0.1412,0.2586,0.372,0.481,0.5935,0.7126,0.7951,0.8772,0.9661,1.0894,1.2076,1.3027,1.3302,1.3599,1.4257,1.4255,1.4255,1.4398,1.4351,1.4261,1.4131,1.4039,1.395,1.3799,1.3601,1.3307,1.2897,1.2375,1.1685,1.0776,1.004,0.9113,0.8019,0.7167,0.635,0.5561,0.4694,0.3859,0.3054,0.2453,0.1782,0.1042,0.0504,-0.0336,-0.1379,-0.1982,-0.2584,-0.3186,-0.3656,-0.4192,-0.4758,-0.5093,-0.5557,-0.6086,0.0,0.0,0.0,0.0,0.0,0.0,0.0,0.0,-0.8381,-0.859,0.0,0.0,0.0,0.0,0.0,-1.0294,-1.0743,-1.1008,-1.1008,-1.1181,-1.1224,-1.1008,0.0,0.0,-1.0727,-1.0467,-1.0207,-0.9994,-0.9733,-0.9281,-0.8624,-0.8411,-0.8102,-0.7683,-0.7225,-0.6982,-0.6932,-0.7031,-0.6827,-0.6408,-0.6685,-0.6697,-0.6531,-0.7036,-0.7391,-0.7646,-0.7892,-0.7894,-0.7818,-0.7814,-0.7617,-0.7422,-0.7412,-0.697,-0.6255,-0.547,-0.4867,-0.4231,0.0,0.0,0.0,-0.0549,0.0784,0.2077,0.2859,0.4029,0.5231,0.6227,0.6979,0.7822,0.9025,0.9695,1.0469,1.171,1.2557,1.3161,1.3535,1.3999,1.4235,1.3906,1.4107,1.4148,1.3834,1.392,1.395,1.3799,1.3601,1.3368,1.3019,1.2428,1.1466,1.0047,0.937,0.8694,0.8019,0.7269,0.6581,0.5888,0.516,0.4461,0.3792,0.3054,0.2318,0.158,0.1042,0.0235,-0.0807,-0.1547,-0.2083,-0.245,-0.3186,-0.3687,-0.4056,-0.4592,-0.5024,-0.5422,0.0,0.0,0.0,0.0,0.0,0.0,0.0,-0.9018,-0.9048,0.0,0.0,0.0,-0.9602,-0.9903,-1.0299,-1.0786,-1.0921,-1.1051,-1.1224,-1.1267,-1.1267,-1.1224,-1.1224,-1.1132,-1.0916,-1.0829,-1.0608,-1.0207,-0.9994,-0.9631,-0.9094,-0.8622,-0.8168,-0.7753,-0.7262,-0.7026,-0.6979,-0.6965,-0.6739,-0.6408,-0.6685,-0.6697,-0.6531,-0.7036,-0.7391,-0.7646,-0.7892,-0.7965,-0.796,-0.8049,-0.793,-0.777,-0.7773,-0.7349,-0.6739,-0.622,-0.5554,-0.4761,-0.3857,0.0,0.0,0.0,0.0,0.0,0.1802,0.2976,0.4126,0.5077,0.6006,0.687,0.764,0.8334,0.9023,0.9712,1.1028,1.2167,1.2797,1.2877,1.2931,1.3091,1.3459,1.3692,1.358,1.3851,1.395,0.0,1.3601,1.3368,1.3019,1.2212,1.1341,1.046,0.9748,0.9049,0.8382,0.7694,0.6905,0.6046,0.5491,0.4794,0.3928,0.3489,0.2885,0.2149,0.1613,0.0975,0.0269,-0.0706,-0.1479,-0.2084,-0.2517,-0.3051,-0.3617,-0.3938,-0.4423,-0.4939,0.0,0.0,0.0,0.0,0.0,0.0,-0.9387,-0.9345,-0.9345,0.0,0.0,0.0,-0.9859,-1.025,-1.0603,-1.0965,-1.1094,-1.1224,-1.144,-1.1483,-1.1483,-1.1613,-1.1521,-1.1397,-1.1267,-1.1094,-1.0873,-1.0608,-1.0299,-0.9843,-0.935,-0.8858,-0.8335,-0.7768,-0.7407,-0.7221,-0.7116,-0.7,-0.6734,-0.6408,-0.6685,-0.6605,-0.6392,-0.6842,-0.7191,-0.749,-0.7743,-0.7892,-0.8028,-0.8234,-0.8199,-0.8052,-0.7957,-0.7606,-0.7154,-0.6768,-0.61,-0.5331,-0.4465,-0.3671,-0.2862,-0.1998,0.0,0.0,0.0862,0.1958,0.3032,0.3865,0.4742,0.5561,0.6272,0.6946,0.7593,0.8225,0.9353,1.0529,1.1678,1.1929,1.2089,1.2459,1.2789,1.3056,1.3186,1.3437,1.3558,1.3467,1.3428,1.3141,1.2518,1.1616,1.0882,1.0405,0.9706,0.9099,0.8641,0.7922,0.7199,0.6412,0.5888,0.516,0.4328,0.3892,0.3322,0.2619,0.215,0.1579,0.094,0.0199,-0.066,-0.1486,-0.198,-0.2465,-0.2973,-0.3346,-0.3848,-0.4403,0.0,0.0,0.0,0.0,0.0,0.0,-0.9554,-0.9462,-0.9432,0.0,-0.9712,-0.9897,-1.0333,-1.0658,-1.0896,-1.1081,-1.1277,-1.1478,-1.1738,-1.1716,-1.1828,-1.2,-1.1828,-1.1699,-1.1699,-1.1267,-1.1051,-1.1008,-1.0564,-1.0036,-0.9409,-0.9169,-0.8595,-0.7842,-0.7603,-0.7411,-0.7281,-0.7067,-0.678,-0.6408,-0.6666,-0.6496,-0.6158,-0.6631,-0.6977,-0.7238,-0.7494,-0.7793,-0.8035,-0.8294,-0.8386,-0.8331,-0.8046,-0.7839,-0.7582,-0.7222,-0.6604,-0.5866,-0.5229,-0.4309,-0.3418,-0.2785,-0.1842,0.0,-0.0078,0.0901,0.1905,0.2608,0.332,0.4063,0.4913,0.5534,0.6174,0.7027,0.7647,0.8613,1.039,1.1045,1.1483,1.1872,1.2089,1.2336,1.2621,1.2828,1.292,1.292,1.3053,1.2737,1.1799,1.0886,1.029,1.006,0.9456,0.8998,0.8763,0.8074,0.747,0.6881,0.6255,0.5557,0.4864,0.4328,0.3727,0.309,0.2653,0.2082,0.1408,0.101,0.0225,-0.0805,-0.1444,-0.1921,-0.23,-0.2726,-0.3277,-0.3839,-0.9657,0.0,0.0,0.0,0.0,0.0,-0.9583,-0.9761,-0.9864,-0.9907,-1.0235,-1.0568,-1.083,-1.1256,-1.1591,-1.1868,-1.187,-1.1894,-1.1938,-1.1935,-1.1957,-1.2,-1.1957,-1.1871,-1.1699,-1.1613,-1.1397,-1.1008,-1.0916,-1.0424,-0.9648,-0.9409,-0.8871,-0.803,-0.7676,-0.7411,-0.7281,-0.7067,-0.678,-0.6399,-0.6563,-0.6415,-0.615,-0.6583,-0.69,-0.7238,-0.7494,-0.7793,-0.8054,-0.8236,-0.8585,-0.8896,-0.8544,-0.8273,-0.8036,-0.7866,-0.7307,-0.6647,-0.6084,-0.5282,-0.4447,-0.374,-0.2862,0.0,-0.1371,-0.0392,0.0541,0.1109,0.1932,0.2758,0.3474,0.4164,0.4882,0.5606,0.6297,0.7409,0.9332,0.9996,1.0433,1.0769,1.1296,1.167,1.1732,1.2174,1.2428,1.2428,1.2221,1.1883,1.1428,1.0763,1.0221,0.9796,0.9489,0.9051,0.8482,0.8126,0.7596,0.6881,0.6486,0.5954,0.5263,0.4831,0.4328,0.3761,0.3157,0.2619,0.2144,0.1466,0.058,-0.0451,-0.0849,-0.1344,-0.1868,-0.2166,-0.2662,-0.3228,-0.9954,-0.9733,0.0,0.0,0.0,0.0,0.0,-0.9986,-1.012,-0.9994,-1.0406,-1.085,-1.1318,-1.1562,-1.186,-1.2232,-1.2207,-1.2322,-1.2597,-1.2451,-1.2444,-1.2531,-1.2316,-1.216,-1.2032,-1.1914,-1.1699,-1.1354,0.0,0.0,-0.9984,-0.9694,-0.9145,-0.8369,-0.8078,-0.7764,-0.745,-0.7359,-0.6932,-0.6399,-0.6536,-0.6395,-0.6147,-0.6412,-0.6781,-0.7238,-0.7341,-0.7793,-0.8275,-0.8239,-0.8544,-0.8913,-0.8694,-0.852,-0.8364,-0.8147,-0.7756,-0.7208,-0.6603,-0.5919,-0.5194,-0.4452,-0.3761,0.0,0.0,-0.1568,-0.0775,-0.0075,0.0734,0.1546,0.2141,0.2843,0.3551,0.4148,0.4878,0.58,0.7107,0.8345,0.9288,0.9849,1.025,1.0629,1.0982,1.1334,1.1646,1.1934,1.1406,1.104,1.0865,1.0122,0.9584,0.9345,0.916,0.889,0.8497,0.8164,0.7759,0.7307,0.6778,0.628,0.5719,0.5292,0.4794,0.4259,0.3725,0.319,0.2648,0.2086,0.131,0.044,-0.0244,-0.0828,-0.1349,-0.1723,-0.2169,-0.2654,-1.0255,-0.9922,-0.9753,0.0,0.0,0.0,0.0,0.0,-1.0309,-1.0226,-1.0598,-1.1136,-1.1723,-1.1878,-1.2137,-1.2507,-1.2601,-1.2802,-1.3226,-1.3075,-1.3022,-1.3155,-1.276,-1.2531,-1.2488,-1.2227,-1.1952,-1.1742,0.0,0.0,0.0,0.0,-0.9462,-0.8831,-0.8567,-0.8141,-0.7666,-0.7628,-0.713,-0.6393,-0.6506,-0.6357,-0.6062,-0.6159,-0.6563,-0.706,-0.7159,-0.7774,-0.8497,-0.8206,-0.842,-0.8792,-0.8621,-0.8612,-0.8564,-0.8336,-0.806,-0.7653,-0.7038,-0.6528,-0.595,-0.5123,-0.4618,-0.4107,0.0,0.0,0.0,-0.1255,-0.0482,0.0217,0.0809,0.154,0.2214,0.275,0.3451,0.4151,0.4809,0.6359,0.7804,0.878,0.9102,0.9486,1.0104,1.0453,1.0839,1.131,1.075,1.0371,1.0342,0.9556,0.9078,0.9045,0.8854,0.8711,0.8615,0.826,0.7954,0.7699,0.7134,0.6605,0.6145,0.569,0.5226,0.4728,0.4261,0.3727,0.3117,0.264,0.2033,0.1331,0.0329,-0.0375,-0.087,-0.1291,-0.1754,-0.2233,-1.0331,-1.0143,-1.004,-0.9694,0.0,0.0,0.0,0.0,-1.0717,-1.0874,-1.1318,-1.1733,-1.2021,-1.2602,-1.2967,-1.3015,-1.3237,-1.3386,-1.3479,-1.3427,-1.3426,-1.3471,-1.3173,-1.2947,-1.2771,-1.2486,-1.224,-1.1957,0.0,0.0,0.0,0.0,-0.9897,-0.9302,-0.8878,-0.8384,-0.7839,-0.768,-0.713,-0.6387,-0.6402,-0.622,-0.5926,-0.5939,-0.6205,-0.6644,-0.707,-0.7675,-0.8294,-0.8165,-0.842,-0.8792,-0.8621,-0.8612,-0.8612,-0.8564,-0.8368,-0.8056,-0.7697,-0.7263,-0.6767,-0.5966,-0.5476,-0.5007,-0.4345,0.0,-0.3387,-0.2699,0.0,-0.1335,-0.0598,0.0,0.0,0.1445,0.2149,0.2817,0.3349,0.4181,0.5404,0.7209,0.7967,0.8528,0.8958,0.9664,1.0174,1.0428,1.037,1.0271,1.0127,0.9753,0.942,0.9176,0.9107,0.8918,0.8615,0.8489,0.8187,0.7699,0.7493,0.7036,0.635,0.5991,0.566,0.5263,0.4567,0.4061,0.3649,0.2897,0.228,0.1722,0.0784,0.0058,-0.0505,-0.0842,-0.1428,-0.2025,-1.0625,-1.0368,-1.0143,-0.9992,0.0,0.0,0.0,0.0,-1.1013,-1.1368,-1.1698,-1.2115,-1.264,-1.2941,-1.3249,-1.3539,-1.3682,-1.385,-1.4183,-1.4034,-1.4019,-1.4197,-1.3812,-1.3536,-1.3446,-1.2997,-1.2691,-1.2479,-1.2236,0.0,0.0,0.0,-1.0362,-0.9709,-0.9257,-0.8766,-0.8292,-0.7923,-0.7348,-0.6612,-0.6476,-0.6156,-0.5812,-0.5877,-0.6209,-0.6688,-0.6985,-0.7557,-0.8176,-0.8016,-0.8317,-0.8706,-0.8761,-0.8705,-0.8617,-0.8742,-0.8623,-0.8312,-0.7894,-0.7627,-0.7323,-0.65,-0.6173,-0.5899,-0.5237,-0.489,-0.445,-0.371,0.0,0.0,0.0,0.0,0.0,0.0,0.084,0.151,0.2182,0.2919,0.4048,0.5866,0.6625,0.7321,0.8247,0.8926,0.9408,0.969,0.9755,0.9755,0.9701,0.9485,0.9272,0.9097,0.8993,0.8825,0.8615,0.8414,0.8182,0.7857,0.7624,0.7232,0.6683,0.635,0.5954,0.5488,0.499,0.4495,0.4025,0.3383,0.281,0.2216,0.1442,0.0671,-0.003,-0.0445,-0.0935,-0.1422,-1.1037,-1.0625,-1.0353,-1.0312,-1.0521,0.0,0.0,-1.0939,-1.1336,-1.1742,-1.2077,-1.2506,-1.3022,-1.3249,-1.3491,-1.3883,-1.4027,-1.4262,-1.4688,-1.4603,-1.4631,-1.4812,-1.4366,-1.413,-1.413,-1.3519,-1.3121,-1.2989,-1.2585,0.0,0.0,0.0,0.0,-1.0181,-0.971,-0.9175,-0.867,-0.8194,-0.7544,-0.6836,-0.652,-0.6104,-0.565,-0.5812,-0.6184,-0.6713,-0.6762,-0.7296,-0.7942,-0.7821,-0.8111,0.0,-0.8673,-0.8662,-0.8632,-0.8753,-0.87,-0.8511,-0.8085,-0.7955,-0.7791,-0.7103,-0.6868,-0.6676,-0.6089,-0.5783,-0.5434,-0.4652,-0.4067,0.0,0.0,0.0,-0.1492,-0.0979,0.0,0.0302,0.0975,0.1679,0.2781,0.468,0.5576,0.647,0.7526,0.8177,0.863,0.892,0.9172,0.9258,0.9227,0.923,0.9143,0.9017,0.8867,0.8748,0.866,0.8414,0.8177,0.7987,0.7754,0.7396,0.6975,0.6646,0.6247,0.5782,0.5355,0.4894,0.44,0.383,0.3253,0.2637,0.2021,0.1288,0.0505,-0.0062,-0.0527,-0.0971,-1.1409,-1.1074,-1.0744,-1.0623,-1.0755,-1.0994,-1.1214,-1.1493,-1.1785,-1.2062,-1.2497,-1.2839,-1.3071,-1.3539,-1.3883,-1.3883,-1.4358,-1.4694,-1.4688,-1.4927,-1.507,-1.507,-1.4831,-1.4678,-1.4678,-1.3906,-1.3498,-1.3498,-1.2751,0.0,0.0,0.0,0.0,-1.0664,-1.0197,-0.9593,-0.8859,-0.8376,-0.7757,-0.7051,-0.6605,-0.6049,-0.5526,-0.5648,-0.6002,-0.6381,-0.6254,-0.6807,-0.7591,-0.7477,-0.7797,0.0,0.0,0.0,-0.8604,-0.8604,-0.86,-0.8552,-0.8436,-0.8383,-0.8295,-0.7868,-0.7633,-0.7365,-0.6942,-0.6714,-0.6367,-0.5699,-0.5328,-0.4864,-0.391,-0.3242,-0.2638,-0.196,-0.1412,0.0,0.0,0.0235,0.1376,0.3589,0.508,0.6137,0.6675,0.7354,0.7809,0.8019,0.8657,0.8941,0.8823,0.9128,0.9218,0.8994,0.8882,0.8791,0.8791,0.8608,0.8317,0.7987,0.7987,0.7689,0.7171,0.6839,0.6576,0.635,0.569,0.5163,0.4731,0.4059,0.3489,0.2919,0.2385,0.1813,0.1166,0.0315,-0.0345,-0.0836,-1.1484,-1.1413,-1.1342,-1.1051,-1.0959,-1.1054,-1.1483,-1.1779,-1.2107,-1.2497,-1.2828,-1.3154,-1.3582,-1.3786,-1.4027,-1.4406,-1.4598,-1.4831,-1.5213,-1.5309,-1.5404,-1.5547,-1.5354,-1.5254,-1.5254,-1.4601,-1.4133,-1.374,-1.3329,-1.2836,0.0,0.0,0.0,-1.0901,-1.0424,-0.982,-0.913,-0.8464,-0.7889,-0.7305,-0.6421,-0.5835,-0.5442,-0.5524,-0.582,-0.612,-0.6078,-0.6692,0.0,-0.7428,-0.7822,-0.8312,-0.8518,-0.8594,-0.8693,-0.8809,-0.8753,0.0,0.0,0.0,-0.8335,-0.8077,-0.7949,-0.7829,-0.7553,-0.7326,-0.7061,-0.6553,-0.6053,-0.5494,-0.4904,-0.4188,-0.3505,-0.2879,-0.2318,-0.1713,0.0,0.0,0.1142,0.2382,0.3915,0.5117,0.5789,0.6445,0.7003,0.7433,0.8014,0.8409,0.8582,0.8835,0.899,0.8985,0.8867,0.8802,0.8802,0.8614,0.8376,0.8139,0.8047,0.7787,0.7396,0.7007,0.6683,0.6383,0.5785,0.5322,0.4957,0.4225,0.3694,0.3261,0.2591,0.2087,0.1576,0.0658,0.0066,-0.0332,-1.1834,-1.1789,-1.1713,-1.1419,-1.1324,-1.1447,-1.1883,-1.2169,-1.2503,-1.2894,-1.3194,-1.3539,-1.3883,-1.4076,-1.431,-1.4688,-1.4879,-1.5118,-1.5493,-1.5588,-1.5642,-1.5778,-1.5683,-1.5588,-1.5588,-1.5118,-1.4557,-1.4063,-1.3686,-1.3144,0.0,0.0,0.0,-1.0867,-1.0482,-0.9843,-0.9055,-0.8404,-0.7889,-0.7361,-0.6367,-0.5706,-0.5355,-0.539,-0.565,-0.5987,0.0,-0.6535,-0.7267,-0.7248,-0.7672,-0.8279,-0.8435,-0.8585,-0.8716,-0.8872,-0.8812,-0.8665,-0.8551,-0.8513,0.0,-0.8327,-0.8255,0.0,-0.8055,-0.7868,-0.7599,-0.7211,-0.6788,-0.627,-0.5603,-0.5012,-0.4395,-0.3626,-0.3088,-0.2484,0.0,-0.037,0.0671,0.141,0.2917,0.4189,0.4924,0.5624,0.6251,0.6773,0.7297,0.7759,0.8117,0.8391,0.863,0.8859,0.8848,0.8859,0.8959,0.8744,0.8537,0.8329,0.812,0.7857,0.7559,0.7106,0.6782,0.6552,0.5951,0.5521,0.5156,0.4425,0.3861,0.3431,0.2758,0.2287,0.1918,0.1042,0.0404,-0.0101,-1.2419,-1.2164,-1.1811,-1.168,-1.1885,-1.2129,-1.2392,-1.2631,-1.2917,-1.3186,-1.363,-1.3931,-1.3931,-1.4406,-1.4694,-1.4742,-1.5207,-1.5493,-1.5493,-1.5689,-1.5784,-1.5784,-1.5784,-1.5784,-1.5784,-1.5371,-1.4852,-1.4321,-1.378,-1.315,0.0,0.0,-1.1549,-1.0695,-1.0433,-0.9683,-0.8682,-0.818,-0.7724,-0.7233,-0.6357,-0.5656,-0.5178,-0.517,-0.5525,-0.5944,-0.5814,-0.6324,-0.7055,-0.6933,-0.7417,-0.8075,-0.8075,-0.8333,-0.867,-0.867,-0.867,-0.867,-0.867,-0.867,-0.867,-0.867,0.0,0.0,0.0,0.0,-0.7978,-0.7633,-0.7514,-0.7135,-0.6071,-0.5721,-0.5268,-0.4232,-0.3756,-0.3052,-0.1816,-0.0908,-0.0067,0.0672,0.2153,0.3399,0.4195,0.494,0.5545,0.6036,0.6573,0.7071,0.7489,0.7808,0.8161,0.8578,0.8786,0.8996,0.9171,0.898,0.8799,0.8596,0.8192,0.7889,0.7699,0.7143,0.6913,0.6848,0.6185,0.5727,0.5329,0.4622,0.3992,0.3464,0.2922,0.2487,0.2087,0.1379,0.0639,-0.0034,-1.2535,-1.2476,-1.2531,-1.2672,-1.2493,-1.2392,-1.2665,-1.274,-1.3032,-1.3624,-1.3842,-1.3979,-1.416,-1.4496,-1.479,-1.4987,-1.5309,-1.554,-1.573,-1.5784,-1.5784,-1.5784,-1.5784,-1.5784,-1.5784,-1.5657,-1.5186,-1.4321,-1.4155,-1.3605,-1.2613,0.0,0.0,-1.0893,-1.0311,-0.9553,-0.8682,-0.818,-0.7323,-0.6249,-0.6003,-0.5565,-0.505,0.0,-0.5175,-0.5544,-0.5507,-0.5958,-0.6559,-0.6555,-0.7013,-0.7635,-0.7635,-0.792,-0.824,-0.824,-0.824,-0.824,-0.824,-0.8317,-0.8394,-0.8394,-0.8358,-0.836,0.0,0.0,0.0,0.0,0.0,0.0,-0.6777,-0.6103,-0.5441,-0.4919,-0.4087,-0.3253,-0.2519,-0.1613,-0.0773,-0.0101,0.1095,0.232,0.3524,0.4329,0.5089,0.5755,0.6355,0.6888,0.7403,0.0,0.0,0.8359,0.8589,0.879,0.896,0.8775,0.8732,0.8828,0.8258,0.7987,0.7889,0.7209,0.6913,0.6848,0.6185,0.5727,0.5362,0.4758,0.4192,0.3658,0.3123,0.252,0.1918,0.1311,0.0808,0.0337,-1.3146,-1.3061,-1.3046,-1.3069,-1.2796,-1.2634,-1.2876,-1.2935,-1.3126,-1.3678,-1.3731,-1.3825,-1.4101,-1.4328,-1.4608,-1.4847,-1.5126,-1.5365,-1.5631,-1.5645,-1.5698,-1.5771,-1.5784,-1.5784,-1.5784,-1.5784,-1.5305,-1.4321,-1.4321,-1.3762,-1.2699,0.0,-1.1385,-1.0851,-1.0181,-0.9348,-0.8387,-0.778,-0.6849,-0.5787,-0.5787,-0.5433,0.0,-0.4822,-0.499,-0.5222,-0.5222,-0.5712,-0.6412,-0.6412,-0.6881,-0.7491,-0.7491,-0.7766,-0.8115,-0.8115,-0.8115,-0.8115,-0.8115,-0.8191,-0.8301,-0.8301,-0.8372,-0.8437,-0.8524,-0.8336,-0.8193,0.0,-0.7727,-0.723,0.0,-0.6302,-0.5641,-0.4979,-0.4189,-0.342,-0.2787,-0.1982,-0.1176,-0.047,0.0448,0.1477,0.2596,0.3678,0.4615,0.53,0.5911,0.6488,0.0,0.0,0.7861,0.8334,0.8529,0.8792,0.9088,0.8804,0.8713,0.8811,0.8177,0.7857,0.7857,0.7209,0.6913,0.6848,0.6185,0.5727,0.5362,0.4824,0.4292,0.3725,0.3121,0.252,0.1985,0.158,0.1144,0.0707,-1.3954,-1.3686,-1.3398,-1.3185,-1.2918,-1.2832,-1.3031,-1.3103,-1.3218,-1.3477,-1.3513,-1.3604,-1.3888,-1.4096,-1.4308,-1.4591,-1.4867,-1.5115,-1.5324,-1.5337,-1.5471,-1.5758,-1.5772,-1.5744,-1.5784,-1.5744,-1.5272,-1.4321,-1.4238,-1.3686,-1.2656,0.0,-1.1348,-1.0646,-0.9984,-0.9058,-0.7987,-0.7211,-0.6405,-0.5598,-0.5598,-0.5287,-0.4795,-0.4779,-0.489,-0.4998,-0.4961,-0.5554,-0.6349,-0.6349,-0.6808,-0.7412,-0.7412,-0.7689,-0.7999,-0.7999,-0.8034,-0.8034,-0.8034,-0.8144,-0.8254,-0.8254,-0.8389,-0.8504,-0.8328,-0.8298,-0.8197,-0.7903,-0.7646,-0.7364,0.0,0.0,-0.5821,-0.4846,-0.4223,-0.3623,-0.2921,-0.2151,-0.1412,-0.0706,0.0103,0.0,0.1665,0.3061,0.4133,0.4751,0.5416,0.0,0.0,0.0,0.7554,0.8254,0.8538,0.8846,0.9168,0.0,0.8644,0.8644,0.7989,0.7699,0.7699,0.7143,0.6913,0.6848,0.6185,0.5727,0.5362,0.4827,0.4292,0.3692,0.3021,0.252,0.2188,0.2018,0.1614,0.1144,-1.4073,-1.3831,-1.3568,-1.3398,-1.3179,-1.2985,-1.2814,-1.2976,-1.3218,-1.3477,-1.3513,-1.3604,-1.3888,-1.4096,-1.4308,-1.4591,-1.4867,-1.5028,-1.5082,-1.5082,-1.517,-1.5464,-1.5471,-1.5585,-1.5778,-1.5404,-1.493,-1.4321,-1.3862,-1.3231,-1.2443,-1.1937,-1.1265,-1.0449,-0.9944,-0.8902,-0.7561,-0.7096,-0.6405,-0.5598,-0.5598,-0.5287,-0.4785,-0.4722,-0.4849,-0.497,-0.4746,-0.5242,-0.5974,-0.5974,-0.6376,-0.6876,-0.6981,-0.7176,-0.7404,-0.7565,-0.7598,-0.7598,-0.7598,-0.7834,-0.8037,-0.8037,-0.8164,-0.8276,-0.8307,-0.8176,-0.8049,-0.8047,-0.7743,-0.7448,-0.7236,0.0,0.0,-0.5126,-0.4553,-0.4023,-0.3429,-0.2624,-0.185,-0.1244,-0.0207,0.0737,0.1481,0.2604,0.3568,0.4273,0.515,0.5812,0.0,0.0,0.7512,0.0,0.8194,0.0,0.0,0.0,0.8384,0.8366,0.7915,0.7699,0.7699,0.7143,0.6913,0.6848,0.6185,0.5727,0.5362,0.4927,0.4295,0.3496,0.3092,0.2723,0.2357,0.2188,0.1985,0.1681,-1.4139,-1.3864,-1.3652,-1.3561,-1.3193,-1.2847,-1.2715,-1.2589,-1.2602,-1.3043,-1.2976,-1.2984,-1.325,-1.3453,-1.3668,-1.3926,-1.4286,-1.4569,-1.4723,-1.4736,-1.4863,-1.5157,-1.517,-1.5192,-1.5186,-1.4963,-1.4521,-1.3875,-1.3611,-1.3144,-1.24,-1.1937,-1.1297,-1.0511,-0.9595,-0.8546,-0.7422,-0.7109,0.0,-0.5598,-0.5598,-0.5249,-0.4732,-0.4712,-0.4751,-0.4766,-0.4631,-0.4987,-0.5488,-0.5601,-0.5978,-0.6419,-0.6585,-0.6813,-0.7081,-0.7273,-0.7408,-0.7489,-0.7489,-0.7657,-0.7857,-0.7857,-0.7982,-0.8077,-0.7996,-0.7916,-0.7841,-0.7807,-0.7548,-0.725,-0.6881,-0.6307,0.0,0.0,-0.4722,-0.4225,-0.3598,-0.2891,-0.2218,-0.1547,-0.0646,0.0207,0.0944,0.1829,0.2779,0.3771,0.4638,0.5281,0.0,0.0,0.0,0.0,0.0,0.0,0.0,0.0,0.0,0.804,0.773,0.7531,0.7433,0.7077,0.6815,0.6618,0.6123,0.5657,0.5193,0.4628,0.4095,0.3627,0.3259,0.2958,0.269,0.2522,0.2386,0.2218,-1.4166,-1.386,-1.3688,-1.3604,-1.308,-1.265,-1.2603,-1.2221,-1.2071,-1.2481,-1.2361,-1.2316,-1.2609,-1.2773,-1.2936,-1.314,-1.3596,-1.3937,-1.4187,-1.4206,-1.4402,-1.4716,-1.4729,-1.4667,-1.4546,-1.4443,-1.4072,-1.3498,-1.3355,-1.2953,0.0,-1.182,-1.1199,-1.0391,-0.922,0.0,0.0,0.0,-0.6508,-0.5595,-0.5568,-0.5222,-0.4687,-0.466,-0.4605,-0.4569,-0.4565,-0.475,-0.5044,-0.5231,-0.561,-0.6061,-0.6276,-0.6537,-0.6817,-0.703,-0.7201,-0.7361,-0.7361,-0.7462,-0.7572,-0.7616,-0.7787,-0.7899,-0.7722,-0.7699,-0.7661,-0.7526,-0.7298,-0.6945,-0.649,-0.6098,0.0,0.0,-0.4858,-0.4359,-0.3663,-0.3056,-0.2452,-0.1748,-0.0975,-0.0203,0.052,0.125,0.2136,0.3181,0.4082,0.4748,0.5117,0.0,0.0,0.0,0.0,0.7181,0.7597,0.0,0.7525,0.761,0.7442,0.7297,0.7138,0.6946,0.6683,0.6383,0.6053,0.5557,0.499,0.4328,0.3961,0.3792,0.346,0.3226,0.3092,0.2922,0.2855,0.2721,-1.4166,-1.3826,-1.3558,-1.3352,-1.2915,-1.2529,-1.2277,-1.2058,-1.1938,-1.1986,-1.1934,-1.2043,-1.2329,-1.2369,-1.2449,-1.2649,-1.2875,-1.3051,-1.3124,-1.3309,-1.3549,-1.3911,-1.3887,-1.4059,-1.4315,-1.3844,-1.3567,-1.3498,-1.2818,-1.2349,0.0,-1.1569,-1.0756,0.0,0.0,0.0,0.0,-0.719,-0.6508,-0.5589,-0.5541,-0.5177,-0.4676,-0.4564,-0.4479,-0.4411,-0.4429,-0.4543,-0.4766,-0.4893,-0.5291,-0.5789,-0.6061,-0.6289,-0.6457,-0.6604,-0.6768,-0.6878,-0.6878,-0.6999,-0.7194,-0.7379,-0.7595,-0.7718,-0.772,-0.7699,-0.7661,-0.7526,-0.7086,-0.6678,-0.6434,-0.5982,-0.5581,0.0,0.0,-0.4392,-0.3859,-0.3155,-0.2485,-0.1951,-0.1076,-0.0235,0.0438,0.1181,0.1859,0.2441,0.3545,0.4285,0.0,0.0,0.0,0.6169,0.0,0.6981,0.6984,0.7206,0.7211,0.6973,0.6955,0.6946,0.6913,0.6778,0.6613,0.6383,0.6053,0.5491,0.4797,0.4434,0.4164,0.3961,0.3792,0.3627,0.3464,0.3431,0.3295,0.3159,-1.3904,-1.354,-1.334,-1.3266,-1.2864,-1.2479,-1.2239,-1.1856,-1.1552,-1.1437,-1.1543,-1.1691,-1.1808,-1.1965,-1.2089,-1.2167,-1.2515,-1.2742,-1.2771,-1.2858,-1.3031,-1.3296,-1.3315,-1.34,-1.3592,-1.3355,-1.3127,-1.2818,-1.2545,-1.2198,-1.1828,0.0,0.0,0.0,0.0,-0.8205,-0.7378,-0.6914,-0.6311,-0.5586,-0.5333,-0.5018,-0.4676,-0.455,-0.4392,-0.4232,-0.4257,-0.4339,-0.4439,-0.4598,-0.4962,-0.5388,-0.5702,-0.5925,-0.6141,-0.637,-0.6541,-0.6697,-0.6791,-0.6851,-0.693,-0.7011,-0.7096,-0.7151,-0.7176,-0.7164,-0.7128,-0.6994,-0.6621,-0.6292,-0.6117,-0.5825,-0.5502,0.0,0.0,-0.4495,-0.3892,-0.3324,-0.2755,-0.2153,-0.1344,-0.0571,0.0134,0.0874,0.158,0.2221,0.3088,0.373,0.0,0.0,0.0,0.5679,0.0,0.6425,0.6593,0.6822,0.6917,0.6913,0.6913,0.6848,0.6773,0.6597,0.626,0.579,0.5446,0.5133,0.4847,0.4665,0.4498,0.4325,0.4161,0.3964,0.3797,0.3694,0.3627,0.3558,-1.3554,-1.328,-1.3073,-1.3073,-1.2568,-1.2092,-1.1941,-1.1434,-1.1028,-1.0882,-1.102,-1.12,-1.1357,-1.1566,-1.1643,-1.1643,-1.2009,-1.2277,-1.2286,-1.2332,-1.2452,-1.2682,-1.2694,-1.2696,-1.2759,-1.2765,-1.259,-1.2283,-1.2198,-1.1989,0.0,0.0,0.0,0.0,-0.8811,-0.8116,-0.7286,-0.672,-0.6126,-0.5525,-0.5124,-0.4815,-0.4553,-0.4397,-0.4207,-0.3993,-0.4156,-0.4168,-0.4181,-0.4417,-0.4712,-0.5046,-0.5348,-0.5605,-0.5855,-0.6054,-0.6233,-0.637,-0.6492,-0.6496,-0.651,-0.6565,-0.6579,-0.6598,-0.6657,-0.6671,-0.6623,-0.6445,-0.6189,-0.5922,-0.5777,-0.5514,-0.5247,-0.4934,0.0,0.0,-0.3789,-0.3393,-0.2891,-0.2186,-0.1513,-0.0807,-0.0067,0.0672,0.1412,0.2154,0.2723,0.3324,0.0,0.0,0.0,0.0,0.0,0.0,0.0,0.6478,0.6609,0.6749,0.6722,0.6631,0.6554,0.6278,0.5879,0.5381,0.5088,0.494,0.4893,0.4863,0.4761,0.4661,0.4498,0.4364,0.4228,0.4125,0.4092,0.4092,-1.3253,-1.3005,-1.279,-1.279,-1.197,-1.1306,-1.1306,-1.0754,-1.0304,-1.0304,-1.031,-1.0509,-1.1057,-1.1117,-1.1117,-1.1117,-1.1304,-1.1427,-1.1516,-1.1689,-1.185,-1.1914,-1.1926,-1.1925,-1.2023,-1.2029,-1.199,-1.2,-1.1828,0.0,-1.1284,0.0,-0.9665,-0.9005,-0.8501,-0.784,-0.7078,-0.6675,-0.6107,-0.5464,-0.4924,-0.4514,-0.4189,-0.404,-0.3893,-0.376,-0.4094,-0.4109,-0.4052,-0.438,-0.4605,-0.4746,-0.5018,-0.5348,-0.5599,-0.5595,-0.5713,-0.5804,-0.5804,-0.5804,-0.5848,-0.6061,-0.6105,-0.6158,-0.6357,-0.6405,-0.6318,-0.5984,-0.5793,-0.5649,-0.5451,-0.5017,-0.4763,-0.4873,0.0,0.0,-0.3551,-0.3226,-0.2721,-0.1985,-0.1412,-0.0807,-0.0067,0.0672,0.1412,0.2154,0.252,0.0,0.0,0.0,0.0,0.5087,0.5292,0.0,0.621,0.6214,0.628,0.6416,0.6269,0.6211,0.6207,0.5778,0.5521,0.5404,0.5184,0.503,0.4887,0.4887,0.4874,0.4797,0.4797,0.4797,0.4797,0.4797,0.4797,0.4797,-1.267,-1.2351,-1.2091,-1.1777,-1.1451,-1.1153,-1.0874,-1.0625,-1.0471,-1.0327,-1.0292,-1.0358,-1.0527,-1.0737,-1.0918,-1.1093,-1.1149,-1.1185,-1.1238,-1.1282,-1.1365,-1.1408,-1.1419,-1.1464,-1.1514,-1.1687,-1.1695,-1.1517,0.0,0.0,0.0,-0.9913,-0.9292,-0.8388,-0.7934,-0.7373,-0.6661,-0.6064,-0.555,-0.5044,-0.4544,-0.4229,-0.3975,-0.39,-0.3694,-0.3513,-0.376,-0.3789,-0.3749,-0.3965,-0.427,-0.4574,-0.4656,-0.4959,-0.5266,-0.538,-0.5517,-0.5681,-0.5768,-0.5795,-0.5808,-0.587,-0.5883,-0.5901,-0.5962,-0.581,-0.5619,-0.5505,-0.5322,-0.5091,-0.4843,-0.4734,-0.4608,-0.4276,-0.4158,0.0,-0.3382,-0.3023,-0.2519,-0.1782,-0.1109,-0.0471,0.0135,0.0841,0.1513,0.2154,0.252,0.0,0.0,0.0,0.0,0.0,0.5226,0.0,0.5987,0.6115,0.6221,0.6265,0.6204,0.6049,0.5778,0.5549,0.5376,0.5182,0.5122,0.5081,0.5056,0.53,0.5353,0.5342,0.5347,0.5352,0.5322,0.5259,0.5196,0.5196,-1.1975,-1.1759,-1.151,-1.1153,-1.0934,-1.0727,-1.0489,-1.0301,-1.0138,-1.0037,-0.9964,-0.9966,-1.0073,-1.0153,0.0,-1.0689,-1.0796,-1.0819,-1.0782,-1.0834,-1.0889,-1.0944,-1.0956,-1.0962,-1.1022,-1.1128,0.0,-1.093,-1.07,-1.0238,-0.9572,-0.9238,-0.8715,-0.7955,-0.74,-0.6846,-0.6295,-0.5578,-0.5078,-0.472,-0.4217,-0.3894,-0.3751,-0.3717,-0.3533,-0.3357,-0.3513,-0.3583,-0.361,-0.3691,-0.3993,-0.4325,-0.4325,-0.4519,-0.4825,-0.5073,-0.5234,-0.5344,-0.543,-0.5458,-0.5458,-0.5458,-0.5458,-0.5458,-0.5458,-0.5293,-0.5128,-0.5077,-0.4904,-0.468,-0.4439,-0.4358,-0.4236,-0.3945,-0.3786,-0.3542,-0.3078,-0.2721,-0.2252,-0.1513,-0.0874,0.0,0.0,0.0942,0.158,0.0,0.0,0.0,0.0,0.0,0.0,0.4797,0.503,0.0,0.5888,0.5952,0.6061,0.6207,0.6041,0.5791,0.5486,0.5405,0.5261,0.5105,0.5101,0.5094,0.5107,0.534,0.5492,0.5614,0.5686,0.5763,0.5815,0.5789,0.5789,0.5789,-1.117,-1.1163,-1.1088,0.0,-1.0444,0.0,-1.0143,-0.977,-0.9484,-0.9452,-0.9344,-0.9374,-0.9626,-0.9471,-0.953,-0.9984,0.0,0.0,0.0,-1.0353,-1.0453,-1.0453,-1.047,-1.0481,-1.0534,-1.0344,-1.0232,-1.0233,-0.9658,-0.9363,-0.9308,-0.8451,-0.7943,-0.7684,-0.6842,-0.6323,-0.5979,-0.5187,-0.4714,-0.4399,-0.3906,-0.3609,-0.3462,-0.3489,-0.337,-0.3202,-0.3317,-0.3455,-0.3557,-0.3555,-0.3749,-0.3968,-0.3968,-0.4052,-0.4276,-0.4708,-0.4873,-0.4873,-0.4873,-0.4873,-0.4901,-0.4897,-0.4897,-0.4873,-0.4873,-0.4873,-0.4818,-0.4688,-0.455,-0.438,-0.4193,-0.3875,-0.3704,-0.3823,-0.3344,-0.2893,-0.2709,-0.2354,-0.1884,-0.1143,0.0,0.0,0.0,0.1042,0.1648,0.0,0.0,0.0,0.0,0.0,0.4125,0.4797,0.4831,0.519,0.5873,0.5717,0.5817,0.6166,0.5758,0.5478,0.5297,0.5297,0.5242,0.5128,0.5128,0.5134,0.5135,0.5147,0.5329,0.5668,0.5856,0.6057,0.6228,0.6379,0.6453,0.6453,0.0,0.0,-1.0538,-1.0125,-0.9973,-0.98,-0.9562,-0.9411,-0.928,-0.9151,-0.9087,-0.9104,-0.9167,-0.9141,-0.9098,-0.9101,-0.9611,-0.9944,-0.9908,-1.0138,-1.0202,-1.0061,-1.0049,-0.9987,-0.9856,-0.9836,-0.9756,-0.9617,-0.945,-0.9044,-0.8418,-0.8022,-0.7533,-0.6859,-0.6401,-0.5918,-0.5379,-0.4843,-0.4383,-0.4013,-0.3696,-0.3448,-0.3253,-0.3216,-0.3147,-0.3038,-0.3085,-0.3071,-0.3084,-0.319,-0.3355,-0.3552,-0.3552,-0.3716,-0.3965,-0.4273,-0.4463,-0.4629,-0.4715,-0.4743,-0.4767,-0.4873,-0.4822,-0.4715,-0.4629,-0.4463,-0.4356,-0.4332,-0.4135,-0.391,-0.3777,-0.3506,-0.3293,-0.3151,-0.2843,-0.254,-0.2345,-0.1849,-0.1311,0.0,-0.0202,0.0337,0.0908,0.1446,0.1951,0.0,0.0,0.0,0.0,0.4028,0.4364,0.4797,0.5096,0.5403,0.5666,0.5788,0.5794,0.5734,0.549,0.5337,0.5297,0.5297,0.527,0.5242,0.5242,0.5345,0.5505,0.5588,0.5781,0.6003,0.6317,0.6453,0.654,0.6726,0.6876,0.7007,-1.0248,-1.0113,-0.9927,-0.9624,-0.9504,-0.9376,-0.9177,-0.9177,-0.9113,-0.9017,-0.8958,-0.8861,-0.8765,-0.8694,-0.8565,-0.8441,-0.908,-0.9468,-0.9405,-0.9563,-0.9639,-0.9608,-0.9543,-0.9472,-0.9468,-0.9317,-0.9086,-0.8811,-0.8731,-0.8352,-0.7735,-0.7397,-0.687,-0.6218,-0.5852,-0.537,-0.4844,-0.4429,-0.4028,-0.3705,-0.3383,-0.3192,-0.3082,-0.2933,-0.2815,-0.2761,-0.2736,-0.2764,-0.283,-0.2884,-0.3079,-0.3272,-0.3272,-0.3355,-0.3519,-0.366,-0.3965,-0.4298,-0.4356,-0.4384,-0.4411,-0.446,-0.4436,-0.4356,-0.4215,-0.4104,-0.3996,-0.3858,-0.3633,-0.3436,-0.3299,-0.3027,-0.2809,-0.2703,-0.2334,-0.2017,-0.1812,-0.1311,-0.0773,-0.0336,0.0202,0.0706,0.1143,0.1715,0.2186,0.2522,0.2958,0.0,0.3859,0.4228,0.4564,0.4797,0.5196,0.5451,0.5607,0.577,0.577,0.5603,0.5563,0.5517,0.5517,0.5517,0.5517,0.5517,0.5517,0.5599,0.569,0.5765,0.5912,0.6131,0.6578,0.6785,0.6926,0.7261,0.7466,0.7563,-0.9702,-0.953,-0.9396,-0.9274,-0.9113,-0.8985,-0.8926,-0.892,-0.892,-0.8856,-0.8765,-0.8608,-0.8447,-0.8279,-0.8107,-0.8019,-0.8584,-0.8902,-0.8774,-0.8856,-0.8972,-0.914,-0.8953,-0.8945,-0.9103,-0.8727,-0.835,-0.7938,-0.7753,-0.7518,-0.7171,-0.6696,-0.6244,-0.5766,-0.5301,-0.4874,-0.4444,-0.4032,-0.3707,-0.3431,-0.3125,-0.2984,-0.293,-0.2688,-0.2547,-0.2471,-0.2394,-0.2468,-0.2635,-0.2635,-0.277,-0.2963,-0.2963,-0.2993,-0.3021,-0.3021,-0.3383,-0.383,-0.3885,-0.3913,-0.3941,-0.3913,-0.3913,-0.3855,-0.3713,-0.3658,-0.3602,-0.3357,-0.3105,-0.2935,-0.2824,-0.251,-0.225,-0.225,-0.1781,-0.1379,-0.121,0.0,-0.0235,0.0067,0.0605,0.1042,0.1412,0.1951,0.2421,0.2753,0.309,0.3527,0.4028,0.4461,0.4725,0.4894,0.5239,0.5499,0.5626,0.5742,0.5756,0.5622,0.5736,0.5795,0.5795,0.5822,0.5818,0.5818,0.5845,0.5873,0.5905,0.5905,0.5999,0.625,0.6772,0.7067,0.7327,0.7827,0.8084,0.8117,-0.9177,-0.9113,-0.9081,-0.9049,-0.9017,-0.8894,-0.8608,-0.8576,-0.8479,-0.8182,-0.8149,-0.8117,-0.8084,-0.8047,-0.8019,-0.7987,-0.8115,-0.8168,-0.8136,-0.8307,-0.841,-0.8446,-0.8313,-0.8248,-0.8286,-0.7933,-0.7578,-0.7182,-0.7146,-0.6913,-0.6522,-0.6126,-0.5827,-0.561,-0.4914,-0.4502,-0.4294,-0.3789,-0.3442,-0.3228,-0.3058,-0.285,-0.2654,-0.2546,-0.2468,-0.239,-0.2284,-0.2249,-0.2268,-0.2268,-0.2296,-0.235,-0.235,-0.2464,-0.2603,-0.2603,-0.2745,-0.2998,-0.3385,-0.358,-0.3638,-0.3524,-0.3497,-0.3411,-0.31,-0.3044,-0.2991,-0.2828,-0.2547,-0.2322,-0.2322,-0.189,-0.154,-0.154,-0.1068,-0.0672,-0.0638,0.0,0.0437,0.0639,0.1144,0.1614,0.2018,0.2386,0.2755,0.3092,0.3491,0.3861,0.4233,0.4725,0.5123,0.5296,0.5492,0.5624,0.5764,0.578,0.5794,0.5768,0.5795,0.5795,0.5795,0.5923,0.5978,0.5978,0.6077,0.6213,0.6305,0.6305,0.6428,0.6656,0.7065,0.7365,0.7597,0.8016,0.8371,0.8673,-0.9017,-0.8861,-0.8738,-0.8738,-0.8571,-0.8404,-0.8247,-0.8214,-0.8122,-0.7862,-0.7824,-0.7759,-0.7591,-0.7563,-0.7531,-0.74,-0.74,-0.74,-0.74,-0.7683,-0.7884,-0.786,-0.7759,-0.7617,-0.7513,-0.7233,-0.6984,-0.6662,-0.6662,-0.6438,-0.5958,-0.5783,-0.5461,-0.5051,-0.458,-0.4248,-0.3995,-0.3529,-0.3228,-0.3054,-0.2744,-0.2544,-0.2407,-0.2236,-0.2145,-0.2109,-0.2014,-0.2017,-0.2073,-0.2018,-0.2045,-0.2071,-0.2015,-0.2043,-0.2127,-0.2127,-0.2408,-0.2747,-0.2968,-0.3081,-0.3109,-0.3023,-0.3023,-0.294,-0.2601,-0.2517,-0.2462,-0.2266,-0.1961,-0.1709,-0.1709,-0.133,-0.0986,-0.0894,-0.0519,0.0,0.0,0.0504,0.0941,0.121,0.1648,0.2052,0.242,0.2788,0.3123,0.3491,0.3861,0.4231,0.4564,0.4994,0.5354,0.5596,0.5688,0.5785,0.5966,0.5999,0.6014,0.6014,0.6196,0.6277,0.6277,0.6354,0.6381,0.6381,0.6431,0.6512,0.6571,0.663,0.681,0.706,0.7544,0.7871,0.8143,0.8499,0.8823,0.9087,-0.8791,-0.8571,-0.8382,-0.8382,-0.8122,-0.7922,-0.7884,-0.7857,-0.7727,-0.7536,-0.7503,-0.7405,-0.7171,-0.7138,-0.704,-0.6881,-0.6848,-0.6815,-0.6745,-0.7036,-0.723,-0.7317,-0.7123,-0.6958,-0.6756,-0.6577,-0.6398,-0.6159,-0.6159,-0.5919,-0.5419,-0.532,-0.5024,-0.4528,-0.4231,-0.393,-0.3623,-0.327,-0.3029,-0.279,-0.2421,-0.2226,-0.2138,-0.1918,-0.1815,-0.174,-0.1699,-0.1738,-0.1821,-0.1712,-0.1738,-0.182,-0.1708,-0.168,-0.168,-0.1651,-0.1933,-0.2326,-0.2465,-0.2493,-0.2493,-0.2493,-0.2493,-0.2408,-0.2073,-0.1989,-0.1903,-0.1651,-0.1317,-0.1094,-0.1094,-0.074,-0.0401,-0.0216,0.0,0.0,0.0,0.1109,0.1479,0.1816,0.2186,0.2555,0.2921,0.3224,0.356,0.3959,0.4264,0.4567,0.493,0.5326,0.5697,0.6033,0.5947,0.5969,0.6124,0.6197,0.6282,0.6309,0.6603,0.6734,0.6761,0.6815,0.6842,0.6842,0.6869,0.6891,0.6896,0.7068,0.7251,0.7501,0.8058,0.8444,0.8699,0.9053,0.9306,0.9466,-0.8149,-0.8052,-0.8052,-0.8052,-0.7857,-0.7694,-0.7559,-0.7363,-0.7171,-0.6979,-0.6946,-0.6946,-0.6913,-0.6913,-0.6876,-0.6741,-0.6708,-0.6576,-0.628,-0.6276,-0.6449,-0.6758,-0.6465,-0.6172,-0.5992,-0.5959,-0.5792,-0.5463,-0.5463,-0.5256,-0.4843,-0.4545,-0.4375,-0.43,-0.3799,-0.3429,-0.322,-0.3006,-0.2713,-0.2355,-0.2254,-0.2009,-0.1751,-0.1713,-0.1563,-0.1351,-0.1348,-0.1347,-0.1346,-0.1347,-0.1347,-0.1346,-0.1346,-0.1346,-0.1318,-0.1178,-0.1094,-0.1149,-0.1708,-0.1874,-0.1874,-0.1874,-0.1874,-0.1792,-0.143,-0.1374,-0.129,-0.1009,-0.0701,-0.0477,-0.0477,-0.0089,0.0278,0.0401,0.0,0.0,0.148,0.185,0.2253,0.2586,0.2922,0.3293,0.3692,0.3861,0.4095,0.4525,0.4694,0.493,0.5329,0.5782,0.625,0.6708,0.6413,0.6237,0.6201,0.6314,0.649,0.6674,0.682,0.6879,0.6906,0.7149,0.7263,0.7257,0.7386,0.7434,0.7457,0.7711,0.7847,0.7909,0.8579,0.8966,0.9199,0.9604,0.983,0.9951,-0.7857,-0.7754,-0.7657,-0.7531,-0.7335,-0.7171,-0.7036,-0.6937,-0.6773,-0.6511,-0.6478,-0.6416,-0.6284,-0.6284,-0.6251,-0.6218,-0.6079,-0.598,-0.5848,-0.565,-0.5683,-0.6013,-0.5683,-0.5488,-0.5422,-0.5292,-0.5163,-0.503,-0.496,-0.4764,-0.4498,-0.4231,-0.3997,-0.3799,-0.3462,-0.3195,-0.3008,-0.2654,-0.2359,-0.2095,-0.1943,-0.1728,-0.15,-0.147,-0.1391,-0.1291,-0.1291,-0.1234,-0.115,-0.1094,-0.101,-0.0898,-0.0785,-0.0729,-0.0729,-0.0589,-0.0505,-0.0505,-0.0644,-0.0952,-0.1232,-0.1232,-0.1232,-0.1177,-0.0981,-0.0842,-0.0701,-0.0505,-0.0224,0.0,0.0084,0.0349,0.0664,0.1045,0.0,0.1581,0.2178,0.242,0.2721,0.3322,0.3491,0.3758,0.4259,0.4428,0.4661,0.506,0.5223,0.5488,0.5885,0.6197,0.648,0.6796,0.672,0.6611,0.6522,0.6734,0.6869,0.695,0.7171,0.73,0.7408,0.7488,0.7595,0.767,0.7723,0.7871,0.807,0.8249,0.8534,0.8878,0.9248,0.9587,0.9901,1.004,1.0269,1.0491,-0.7489,-0.733,-0.7199,-0.7068,-0.6843,-0.6646,-0.6544,-0.6478,-0.6379,-0.6148,-0.6046,-0.5951,-0.5818,-0.5756,-0.5723,-0.5657,-0.5517,-0.5385,-0.5286,-0.4957,-0.4921,-0.5322,-0.509,-0.4954,-0.4954,-0.4758,-0.4628,-0.4561,-0.4461,-0.4295,-0.4033,-0.383,-0.3596,-0.3328,-0.306,-0.2847,-0.2638,-0.2265,-0.2,-0.1789,-0.1647,-0.148,-0.1303,-0.1245,-0.1178,-0.1122,-0.1122,-0.101,-0.087,-0.0785,-0.0645,-0.0533,-0.0393,-0.028,-0.0196,-0.0112,0.0,0.0112,0.0196,-0.0056,-0.0393,-0.0561,-0.0617,-0.0589,-0.0449,-0.028,-0.0112,0.0056,0.0308,0.0533,0.0645,0.0835,0.116,0.1717,0.1831,0.2113,0.2943,0.3054,0.3322,0.4025,0.4125,0.4325,0.4858,0.506,0.5292,0.5624,0.5818,0.6145,0.6572,0.6688,0.6872,0.7121,0.7063,0.7009,0.7025,0.7166,0.7246,0.73,0.7574,0.7756,0.7863,0.7916,0.799,0.8117,0.823,0.844,0.8695,0.8985,0.9313,0.9664,0.9944,1.0194,1.046,1.0523,1.0713,1.0965,-0.6907,-0.6778,-0.6708,-0.6708,-0.6412,-0.6178,-0.6178,-0.602,-0.5888,-0.5888,-0.5719,-0.5583,-0.5583,-0.5488,-0.5326,-0.512,-0.5087,-0.4954,-0.4625,-0.4225,-0.4228,-0.4764,-0.4661,-0.4592,-0.4592,-0.4389,-0.4189,-0.3995,-0.3995,-0.3828,-0.3498,-0.3295,-0.3125,-0.2989,-0.2589,-0.2285,-0.2091,-0.1809,-0.1575,-0.1381,-0.1308,-0.1206,-0.1094,-0.1094,-0.0926,-0.0701,-0.0701,-0.0561,-0.0393,-0.0393,-0.0308,-0.0196,-0.0196,0.0,0.0196,0.0196,0.0449,0.0701,0.0701,0.0813,0.0757,0.0168,0.0,0.0028,0.0168,0.0308,0.0477,0.0673,0.0926,0.115,0.129,0.1467,0.181,0.2422,0.2556,0.2889,0.3709,0.3823,0.4059,0.4731,0.4797,0.5027,0.555,0.5785,0.5987,0.6178,0.6511,0.6937,0.7489,0.7373,0.7469,0.7801,0.7488,0.7446,0.7696,0.7568,0.7568,0.7696,0.8055,0.8195,0.8221,0.8348,0.8474,0.8619,0.8968,0.917,0.9355,0.9969,1.0218,1.0252,1.066,1.0807,1.0839,1.1028,1.1185,1.1303,-0.6253,-0.6294,-0.6313,-0.6152,-0.5951,-0.5752,-0.5657,-0.5455,-0.5289,-0.516,-0.506,-0.499,-0.4924,-0.4858,-0.4758,-0.4553,-0.4422,-0.4195,-0.3863,-0.3594,-0.3493,-0.3661,-0.3892,-0.3959,-0.383,-0.3763,-0.3627,-0.3426,-0.336,-0.319,-0.2922,-0.2725,-0.249,-0.2217,-0.2042,-0.1865,-0.1656,-0.1454,-0.1232,-0.1053,-0.0929,-0.0757,-0.0617,-0.0617,-0.0561,-0.0477,-0.0393,-0.0252,-0.0112,0.0,0.0112,0.0252,0.0393,0.0561,0.0701,0.0813,0.0898,0.1038,0.1262,0.1375,0.1262,0.0757,0.0645,0.0645,0.0673,0.087,0.1038,0.1122,0.1373,0.1652,0.1877,0.1976,0.2239,0.2937,0.3151,0.3499,0.4247,0.4438,0.4761,0.5491,0.5557,0.5723,0.6119,0.6416,0.6618,0.6679,0.7265,0.7689,0.7852,0.8121,0.8215,0.8073,0.8153,0.8218,0.8182,0.7922,0.7922,0.8182,0.8395,0.8586,0.8778,0.9038,0.9241,0.9391,0.9722,1.0092,1.0448,1.0617,1.0882,1.1181,1.1305,1.1435,1.1522,1.156,1.1716,1.1872,-0.573,-0.5809,-0.5818,-0.562,-0.5422,-0.5223,-0.5093,-0.499,-0.4824,-0.4625,-0.4528,-0.4461,-0.4361,-0.4261,-0.4128,-0.3992,-0.3758,-0.3493,-0.3192,-0.2991,-0.2859,-0.279,-0.3025,-0.3226,-0.3295,-0.3163,-0.2993,-0.2893,-0.2757,-0.2587,-0.2386,-0.2186,-0.1918,-0.1646,-0.147,-0.1333,-0.1202,-0.1015,-0.0838,-0.0701,-0.0617,-0.0505,-0.0393,-0.0336,-0.028,-0.0224,-0.0084,0.0084,0.028,0.0364,0.0533,0.0729,0.0982,0.1122,0.1206,0.1345,0.1401,0.1513,0.171,0.185,0.1878,0.1597,0.1401,0.126,0.126,0.1457,0.1654,0.1654,0.1933,0.2238,0.2517,0.2545,0.28,0.3534,0.3733,0.4047,0.488,0.508,0.5422,0.6214,0.6284,0.6449,0.6806,0.7138,0.7433,0.7634,0.8117,0.8436,0.8501,0.8871,0.8968,0.8747,0.8849,0.8898,0.8918,0.8585,0.8474,0.8639,0.8817,0.9063,0.9373,0.9651,0.9909,1.0184,1.0538,1.0872,1.1182,1.1307,1.1569,1.1872,1.1872,1.1965,1.2081,1.2081,1.229,1.2633,-0.5311,-0.5315,-0.5259,-0.5054,-0.4858,-0.4694,-0.4561,-0.4525,-0.4425,-0.4256,-0.4059,-0.3928,-0.3928,-0.3629,-0.3431,-0.3397,-0.3092,-0.2822,-0.2619,-0.2421,-0.2255,-0.212,-0.2087,-0.2321,-0.2822,-0.249,-0.2322,-0.2288,-0.2154,-0.1985,-0.1783,-0.1614,-0.1412,-0.1209,-0.0881,-0.076,-0.0708,-0.0506,-0.0404,-0.0336,-0.0336,-0.0336,-0.0308,-0.0196,-0.0056,0.0084,0.0224,0.0477,0.0729,0.0757,0.0955,0.1239,0.1545,0.1659,0.1718,0.1821,0.1959,0.2071,0.2071,0.2324,0.2549,0.2577,0.2266,0.1958,0.1902,0.2099,0.2266,0.2266,0.2549,0.2856,0.313,0.3186,0.3416,0.416,0.4278,0.4611,0.554,0.5691,0.6018,0.6892,0.7012,0.7171,0.7591,0.7917,0.8344,0.8861,0.9022,0.9177,0.937,0.96,0.9695,0.9699,0.9522,0.957,0.9798,0.9516,0.9281,0.9128,0.9384,0.9674,1.0038,1.024,1.0584,1.1033,1.1366,1.157,1.1742,1.2028,1.2243,1.2367,1.2398,1.2506,1.2622,1.2653,1.3002,1.3532,-0.4498,-0.463,-0.4725,-0.4522,-0.4292,-0.4161,-0.4128,-0.3894,-0.373,-0.3663,-0.3493,-0.3326,-0.3224,-0.3159,-0.2991,-0.2658,-0.2321,-0.2051,-0.1849,-0.1648,-0.148,-0.1344,-0.1344,-0.1378,-0.1512,-0.1681,-0.1681,-0.1547,-0.1412,-0.1244,-0.1042,-0.1008,-0.0807,-0.0504,-0.0447,-0.0311,-0.0154,-0.0029,0.0056,0.0084,0.0196,0.0224,0.0224,0.0252,0.0393,0.0561,0.0701,0.087,0.1066,0.1319,0.1655,0.1942,0.1921,0.2139,0.2376,0.2342,0.2437,0.2577,0.2685,0.2824,0.3021,0.3163,0.3218,0.3079,0.2605,0.2715,0.2907,0.2907,0.3163,0.3499,0.3744,0.3799,0.4002,0.4643,0.4837,0.5217,0.6108,0.633,0.6718,0.7665,0.7759,0.7954,0.8474,0.8823,0.9172,0.9556,0.9722,0.9856,1.0079,1.0362,1.0502,1.0386,1.0494,1.0574,1.0633,1.0671,1.0499,1.009,1.0163,1.0471,1.1,1.1326,1.1575,1.1852,1.2139,1.2379,1.254,1.262,1.2744,1.2858,1.3033,1.3299,1.3597,1.3723,1.4045,1.4466,-0.404,-0.4135,-0.4159,-0.3959,-0.3758,-0.3594,-0.3527,-0.336,-0.3194,-0.2993,-0.2893,-0.2758,-0.2622,-0.2522,-0.2319,-0.1918,-0.1715,-0.1513,-0.1244,-0.1042,-0.0874,-0.074,-0.0639,-0.0571,-0.0571,-0.0639,-0.0774,-0.0908,-0.0774,-0.0605,-0.0403,-0.0365,-0.0231,-0.0066,0.0,0.0091,0.0181,0.0258,0.0364,0.0449,0.0505,0.0589,0.0645,0.0701,0.0842,0.101,0.1178,0.1445,0.1751,0.201,0.2316,0.2578,0.2624,0.2818,0.3028,0.3094,0.3224,0.3343,0.3397,0.36,0.3804,0.3891,0.4024,0.3962,0.3286,0.333,0.3522,0.3522,0.3799,0.4104,0.438,0.4432,0.4625,0.5226,0.5389,0.5771,0.673,0.6932,0.7365,0.8361,0.8468,0.8727,0.9312,0.9632,0.9945,1.0383,1.0485,1.0649,1.0902,1.1146,1.1293,1.1311,1.1338,1.1411,1.1584,1.1469,1.1467,1.1535,1.1221,1.1324,1.1786,1.2123,1.2411,1.2671,1.2882,1.3033,1.3125,1.3125,1.3224,1.3424,1.3716,1.3998,1.4268,1.464,1.5045,1.5524,-0.3648,-0.3652,-0.3591,-0.3364,-0.3161,-0.3025,-0.2891,-0.2824,-0.269,-0.2356,-0.2255,-0.2154,-0.2052,-0.185,-0.158,-0.121,-0.1144,-0.0975,-0.0639,-0.0437,-0.0269,-0.0135,0.0067,0.0202,0.0202,0.0337,0.0168,-0.037,-0.0235,-0.0067,0.0133,0.0227,0.032,0.0384,0.0484,0.053,0.0559,0.0569,0.0645,0.0813,0.0813,0.0898,0.1038,0.115,0.129,0.143,0.1626,0.2063,0.2532,0.2694,0.2935,0.3191,0.3362,0.3522,0.3689,0.3878,0.4025,0.4119,0.415,0.4421,0.4665,0.4665,0.4786,0.4781,0.4175,0.411,0.4159,0.4187,0.4463,0.4767,0.5007,0.5066,0.5281,0.5855,0.5964,0.6327,0.7402,0.7558,0.7973,0.9055,0.9274,0.9594,1.0142,1.0396,1.0713,1.1185,1.1247,1.1404,1.1685,1.184,1.2019,1.2243,1.2085,1.2174,1.2499,1.2254,1.2405,1.2948,1.2454,1.2328,1.2567,1.2831,1.3139,1.345,1.3571,1.3631,1.3653,1.3653,1.3782,1.3955,1.4396,1.4684,1.4926,1.5587,1.6101,1.6533,-0.2957,-0.3029,-0.2991,-0.2624,-0.2525,-0.2456,-0.2322,-0.2153,-0.2018,-0.1985,-0.1681,-0.1446,-0.1412,-0.1143,-0.084,-0.0638,-0.0505,-0.027,0.0135,0.0269,0.0437,0.0639,0.084,0.0941,0.0941,0.0975,0.074,0.0202,0.0329,0.0455,0.0616,0.063,0.0777,0.1055,0.1018,0.1091,0.1265,0.1195,0.1206,0.1206,0.1206,0.1347,0.1515,0.1515,0.1682,0.1931,0.2071,0.2487,0.3039,0.3306,0.3559,0.3787,0.3876,0.4069,0.4287,0.4393,0.4512,0.4637,0.4816,0.5116,0.5359,0.5359,0.5581,0.5831,0.5841,0.5306,0.4818,0.4932,0.5207,0.5508,0.5637,0.5778,0.5996,0.6485,0.6566,0.6942,0.8013,0.8169,0.8602,0.973,1.0428,1.0839,1.0933,1.1247,1.1498,1.1685,1.1872,1.2027,1.2212,1.2336,1.2544,1.2867,1.2848,1.2998,1.3343,1.3459,1.3579,1.3661,1.3817,1.3788,1.3601,1.3631,1.3807,1.407,1.41,1.421,1.435,1.435,1.438,1.4455,1.5041,1.5492,1.5941,1.6872,1.7269,1.7351,-0.2566,-0.2466,-0.2321,-0.2153,-0.1951,-0.1783,-0.1715,-0.1547,-0.1412,-0.1311,-0.1143,-0.0975,-0.0875,-0.064,-0.0404,-0.0067,0.0067,0.0269,0.0572,0.0807,0.1042,0.1244,0.1446,0.1614,0.1715,0.1715,0.1615,0.1347,0.1079,0.0999,0.1159,0.1199,0.1292,0.141,0.1482,0.1547,0.163,0.1579,0.1624,0.1681,0.1681,0.1793,0.1934,0.2046,0.2214,0.2443,0.2831,0.3355,0.3837,0.3952,0.424,0.4561,0.4601,0.4813,0.511,0.524,0.5414,0.5573,0.5732,0.6018,0.6271,0.6271,0.6474,0.6736,0.6977,0.6657,0.6215,0.5878,0.594,0.6109,0.6268,0.6485,0.6734,0.7085,0.7356,0.7846,0.8673,0.8973,0.9461,1.0501,1.1115,1.1529,1.1654,1.1872,1.2089,1.2336,1.2521,1.2674,1.285,1.3003,1.3186,1.3437,1.3437,1.3588,1.3881,1.3971,1.413,1.43,1.4419,1.433,1.404,1.421,1.4359,1.4478,1.4606,1.4695,1.4784,1.4784,1.4784,1.4849,1.5681,1.6526,1.7358,1.7794,1.7974,1.8076]}]]